GFSWCAN_sfc_temp_000.txt.gz
Temp
53 54 54 54 54 54 54 55 54 55 55 55 55 56 56 55 56 50 48 52 45 40 45 53 56 50 47 50 48 53 50 52 53 49 56 63 65 69 69 71 65 64 63 66 66 60 58 72 76 67 72 79 81 83
53 53 54 54 54 54 54 54 54 54 54 55 55 55 56 55 54 52 46 55 53 43 46 58 59 61 59 59 54 54 50 50 55 50 57 58 58 68 67 63 73 66 72 69 68 69 67 71 68 75 81 79 81 82
53 53 53 54 53 53 54 54 54 54 55 55 55 55 55 54 53 52 47 51 51 46 50 55 56 64 67 64 65 51 54 56 55 59 54 53 50 64 57 65 70 71 76 70 66 67 68 68 72 76 80 80 83 85
53 53 53 53 53 54 53 54 54 54 54 54 55 55 56 54 54 53 48 54 51 48 43 55 67 61 67 68 64 62 59 60 57 58 52 51 50 66 60 62 65 67 69 67 66 64 69 69 69 72 74 78 80 82
52 53 53 53 53 53 53 54 54 54 54 54 54 55 55 55 54 53 56 58 56 47 46 50 60 65 67 64 62 62 58 53 50 49 47 49 62 60 67 62 50 53 56 66 65 63 59 56 65 70 71 74 77 77
52 53 53 53 53 54 54 54 55 54 54 54 54 55 55 55 54 56 51 53 57 56 48 46 61 60 63 63 61 58 59 54 54 56 50 48 64 61 50 46 51 56 61 63 67 66 60 58 62 70 68 70 73 74
52 52 53 53 54 54 54 54 54 54 54 54 54 54 54 53 56 52 48 55 53 59 43 41 52 63 63 62 61 60 61 60 60 60 53 49 55 60 49 44 52 57 61 65 67 62 57 58 54 63 69 73 72 75
52 52 52 53 54 54 54 54 54 54 54 54 54 54 53 53 53 54 60 54 56 48 48 39 46 54 65 62 58 63 58 57 62 63 49 49 54 55 44 50 56 57 58 54 55 60 64 63 59 63 70 72 69 67
52 52 52 53 53 53 53 54 54 54 54 54 53 53 57 56 54 56 54 53 56 47 39 43 43 44 68 65 64 61 63 54 63 55 52 55 47 43 46 49 52 57 56 55 55 55 57 58 59 61 63 69 71 70
53 53 53 53 53 53 53 53 53 53 53 53 56 55 50 57 55 58 49 49 49 46 47 46 58 49 57 63 61 61 63 53 45 52 57 47 44 49 51 52 53 54 56 58 52 50 52 54 57 58 62 65 68 70
53 52 53 53 53 53 53 53 52 53 55 56 50 49 59 58 58 56 48 45 45 43 52 54 55 51 63 52 55 66 59 57 43 51 47 44 41 48 52 52 53 55 55 56 59 58 57 59 64 66 65 68 71 72
52 52 52 52 53 53 53 52 52 56 55 51 48 52 57 55 51 45 45 49 43 46 56 53 54 54 55 58 58 64 60 61 48 60 52 38 44 50 52 56 57 58 58 59 61 61 65 66 67 65 66 65 68 71
52 52 52 52 53 53 53 53 52 52 54 57 51 48 48 49 37 37 37 44 43 51 57 57 54 57 58 62 61 62 55 51 61 51 47 44 49 53 55 57 61 63 64 64 65 67 69 69 70 69 66 68 69 69
52 52 52 52 53 53 53 52 52 54 54 47 43 35 35 36 39 42 43 45 55 57 57 58 56 49 63 60 61 53 59 60 50 45 41 47 52 55 57 59 63 63 64 65 66 67 67 69 70 70 70 69 70 69
52 52 52 54 53 52 52 52 52 57 51 42 39 33 37 43 48 53 56 58 61 61 60 59 59 60 59 56 59 57 51 43 41 40 47 53 54 58 58 61 63 65 66 65 67 67 68 69 70 70 71 72 71 70
52 52 59 53 52 52 52 56 61 61 51 48 46 43 49 49 52 56 56 56 63 61 62 61 56 54 52 52 47 45 43 37 42 46 50 54 58 60 60 63 65 66 66 67 68 68 69 69 68 69 72 71 71 70
52 60 54 53 53 53 53 60 60 54 54 51 50 56 54 55 53 56 58 58 63 62 55 58 49 46 56 45 39 43 37 40 48 52 56 58 60 60 62 64 65 66 66 67 68 69 68 69 71 71 68 69 71 71
59 61 55 53 54 59 64 63 59 58 51 56 52 54 56 59 56 57 57 60 60 59 59 52 56 47 43 40 41 46 47 51 54 56 58 61 61 62 64 63 65 67 66 67 68 69 70 70 71 71 70 71 73 73
55 56 53 53 54 55 55 58 59 51 54 56 56 58 58 59 60 60 61 60 61 62 62 58 51 46 45 48 49 53 54 55 54 60 62 61 62 63 63 65 65 66 66 65 66 70 71 68 70 72 74 74 73 74
52 53 53 53 55 57 53 54 62 54 51 53 57 56 58 57 60 61 61 62 63 60 55 51 51 54 56 58 60 60 61 62 59 59 60 60 66 66 63 65 67 66 69 68 68 60 70 70 72 72 72 71 71 72
56 59 55 59 61 58 56 54 55 54 54 55 57 56 56 60 57 57 57 63 59 56 54 57 59 61 60 61 62 62 62 62 58 58 57 56 61 67 67 68 68 69 67 67 67 66 63 66 68 70 70 70 71 72
59 53 59 60 56 55 55 57 53 56 55 56 55 57 54 52 53 54 58 53 51 50 52 54 56 58 58 58 61 61 61 61 61 58 50 53 62 64 64 66 66 65 65 65 65 65 65 66 66 67 68 67 65 70
53 55 58 55 47 44 46 57 49 48 44 48 54 50 46 48 50 53 44 47 47 54 52 57 55 60 59 60 61 61 63 62 60 59 59 61 63 63 63 63 65 64 64 64 66 65 65 56 63 65 67 67 67 67
51 50 47 46 47 44 54 50 54 51 52 49 41 39 43 47 52 48 47 49 53 57 56 57 59 58 62 63 63 63 65 68 68 67 67 69 66 65 68 68 68 67 65 66 66 65 66 65 56 65 65 64 64 64
43 42 46 39 49 48 50 50 50 52 48 50 46 49 52 54 49 50 48 52 57 57 61 63 64 64 63 64 65 65 65 67 66 66 67 68 67 70 70 70 68 66 66 64 63 63 63 64 64 63 62 63 60 60
38 49 44 52 53 50 52 51 51 51 52 51 52 59 60 55 52 48 50 53 54 60 61 61 62 61 61 63 61 61 63 66 65 63 64 66 65 64 63 61 61 62 64 63 62 60 60 61 61 60 61 59 51 58
47 53 57 57 54 53 54 56 56 54 52 51 55 55 58 49 48 51 58 59 60 62 64 65 64 63 62 62 63 64 66 66 63 63 64 64 63 62 61 58 56 56 61 60 61 60 58 58 58 58 58 59 59 57
57 56 54 59 57 59 54 57 55 54 57 61 59 53 50 50 47 55 59 64 66 67 66 66 66 65 64 62 62 62 63 65 66 66 68 67 66 64 61 62 60 46 58 56 56 56 55 55 54 54 54 54 55 54
58 65 58 57 58 59 59 59 60 62 62 63 57 53 52 55 58 56 56 58 59 58 56 54 60 64 63 63 64 64 62 61 57 53 53 54 55 56 59 58 58 58 58 57 41 47 50 51 51 51 52 52 53 54
62 67 60 60 58 56 60 65 62 64 63 60 58 52 48 48 51 54 51 50 49 49 57 60 60 60 59 58 58 59 62 60 58 54 52 51 52 56 56 55 54 55 55 54 53 53 46 50 50 52 50 50 50 48
67 67 63 62 59 62 64 67 66 64 61 53 51 48 47 48 50 53 53 53 57 61 60 60 60 60 57 56 55 53 53 56 55 54 53 55 55 53 53 52 53 53 52 51 51 50 49 49 49 48 47 46 45 44
66 61 60 59 60 62 64 63 61 54 53 47 48 55 55 54 51 54 59 63 62 60 53 57 56 55 56 57 56 55 45 53 51 51 47 49 49 49 51 52 52 51 50 50 50 49 48 47 46 45 44 42 44 44
67 67 66 65 63 62 63 61 57 52 52 54 54 56 58 54 50 55 62 62 59 58 57 58 58 57 55 54 54 54 49 54 44 38 38 37 36 39 48 49 49 49 49 49 49 48 47 45 45 43 43 43 44 43

GFSWCAN_sfc_temp_003.txt.gz
Temp
54 54 54 54 54 54 54 55 55 55 55 56 56 56 56 56 56 56 53 57 45 41 45 53 57 53 52 57 46 46 58 54 54 47 50 56 58 64 64 69 67 65 65 66 68 64 61 80 81 72 75 81 84 85
54 54 54 54 54 54 54 54 54 55 55 55 56 56 56 56 56 55 48 53 52 43 49 60 61 64 62 63 59 58 52 49 57 49 48 49 49 58 63 59 76 68 74 70 72 70 75 79 78 81 83 82 84 85
53 53 54 54 54 54 54 54 54 55 55 55 56 56 56 55 55 53 50 51 49 44 49 56 59 68 71 68 69 54 60 60 58 57 53 47 45 52 54 61 72 70 82 76 74 72 73 77 80 83 84 83 86 89
53 53 54 54 54 54 54 54 54 55 55 55 55 55 56 56 54 54 50 52 49 46 44 54 72 66 72 73 68 67 61 65 59 61 52 47 46 51 51 52 59 56 71 72 68 70 72 73 75 77 78 82 83 80
53 53 53 54 54 54 55 55 55 55 55 55 55 55 56 56 55 56 56 56 53 44 45 53 64 70 73 70 67 67 64 59 55 53 44 46 53 50 56 56 48 51 52 63 67 72 70 68 74 77 74 75 77 77
53 53 53 53 54 54 54 55 55 55 55 55 55 55 56 55 55 56 46 59 61 55 49 47 64 65 69 69 66 64 64 62 60 45 44 52 61 55 46 46 55 57 63 68 64 73 69 69 72 71 72 72 78 79
53 53 53 53 54 54 54 54 55 55 55 55 54 54 54 54 58 49 46 55 57 60 44 40 46 61 67 67 66 65 64 60 56 45 50 52 54 50 49 44 55 58 64 66 71 69 64 67 58 64 68 72 73 77
53 53 53 53 54 54 54 54 54 55 55 55 54 54 54 54 54 54 60 55 58 51 45 38 46 55 68 62 59 66 57 56 52 48 56 49 50 49 44 49 54 58 60 63 66 70 68 66 61 57 59 62 68 68
53 53 53 53 53 54 54 54 54 54 54 54 54 54 58 56 56 54 55 54 54 46 39 40 38 40 69 53 54 63 65 56 60 56 50 49 46 42 46 47 51 55 54 57 62 64 63 61 60 59 58 60 62 67
53 53 53 53 53 53 53 54 54 54 54 54 57 51 50 62 56 60 51 46 44 48 46 44 56 47 57 58 63 63 64 57 49 47 49 46 42 48 51 52 54 54 54 55 52 51 55 53 54 57 57 59 65 63
53 53 53 53 53 53 53 53 53 53 57 59 54 54 63 61 60 53 45 44 45 43 53 55 55 54 67 52 56 61 49 56 43 45 45 42 41 47 52 53 56 56 57 55 55 58 59 58 57 59 61 65 67 72
53 53 53 53 53 53 54 53 53 57 58 54 53 56 59 55 49 45 43 46 46 42 53 49 54 60 65 65 56 57 53 49 46 49 43 39 45 51 54 54 55 56 59 58 61 63 64 67 71 70 70 70 72 74
53 53 53 53 53 53 54 53 53 53 54 58 52 49 48 50 38 38 36 39 41 51 53 53 55 64 64 53 51 50 52 49 59 45 40 42 49 53 54 55 57 61 64 63 63 64 67 70 73 72 71 73 74 74
53 53 53 53 53 54 54 53 53 56 57 52 46 36 37 38 42 48 47 49 54 57 58 61 60 56 59 59 60 54 58 54 45 38 39 46 50 54 59 63 64 64 68 69 69 70 69 72 72 74 74 73 72 69
52 53 53 55 54 54 53 53 53 62 57 45 44 35 40 47 50 49 58 62 64 68 64 61 63 61 61 57 58 54 50 38 39 41 47 49 53 57 60 64 66 68 69 69 70 70 70 72 73 71 70 73 75 72
52 54 61 55 54 53 53 59 65 64 59 54 50 49 54 53 58 60 61 63 69 68 69 59 59 54 51 50 45 44 42 35 39 47 52 54 55 60 61 63 66 70 70 69 70 71 72 71 72 71 74 73 72 73
51 65 55 54 53 53 56 64 69 62 60 56 53 63 60 58 59 61 64 64 70 67 61 60 49 45 51 44 40 41 37 41 47 51 53 54 57 61 63 64 68 69 70 71 70 70 70 72 74 67 68 72 75 74
62 65 56 54 54 61 71 70 65 63 56 60 57 59 61 63 61 62 65 67 66 64 63 56 59 50 44 40 41 47 49 51 53 56 58 60 61 64 63 64 65 65 67 70 71 71 72 69 70 69 72 74 70 74
57 57 53 53 56 58 62 64 64 57 60 62 63 65 64 63 66 67 67 67 69 70 68 60 52 46 46 51 51 54 56 56 56 58 60 63 64 64 67 68 68 66 67 69 71 68 72 72 72 72 73 74 73 72
52 53 54 54 57 63 58 61 68 61 57 60 63 62 64 62 66 67 68 68 67 64 59 54 56 57 56 60 62 60 60 60 58 57 59 67 66 67 67 70 71 70 69 70 70 61 70 70 73 73 74 72 73 72
58 62 58 63 68 65 63 61 61 61 61 60 64 63 60 63 61 60 58 67 61 58 54 56 55 56 61 60 60 60 60 61 58 59 61 63 68 70 71 72 72 72 71 70 69 68 66 69 70 72 72 72 72 73
63 55 65 67 62 61 60 61 59 60 55 60 59 59 53 52 53 55 59 55 50 50 52 54 55 57 58 59 60 64 62 62 61 58 53 57 62 64 63 65 67 66 68 67 68 68 69 69 69 70 71 70 67 72
55 58 64 63 55 51 53 67 55 56 51 55 60 53 53 55 54 60 47 48 51 53 58 58 59 62 63 65 65 65 67 68 68 67 67 69 68 69 70 70 70 67 66 67 69 69 68 59 65 67 69 69 69 69
51 55 52 54 57 50 64 58 65 62 61 58 54 47 53 55 60 53 48 52 56 61 64 64 67 66 67 65 65 65 66 69 70 70 70 70 68 68 70 70 71 70 67 68 68 67 67 67 59 68 67 66 67 66
48 46 54 42 60 57 56 57 58 61 54 57 53 54 56 61 53 50 48 52 63 63 65 67 67 65 63 64 66 66 67 69 67 67 67 69 69 70 68 69 66 65 67 64 64 64 64 65 65 65 65 65 62 61
43 57 48 60 61 59 60 55 56 56 59 57 58 65 67 60 54 47 50 56 59 63 64 64 63 63 63 64 63 63 65 69 67 65 65 67 65 63 62 61 61 61 63 63 61 61 61 61 61 61 62 61 52 58
50 59 65 68 65 64 61 67 66 63 57 56 61 61 58 49 44 49 56 60 57 62 65 65 64 63 63 64 65 66 68 68 66 66 69 68 67 64 62 59 56 56 62 61 60 59 56 56 56 57 57 58 59 58
63 64 58 65 66 70 60 61 60 58 60 65 60 53 50 48 43 52 56 60 62 61 61 63 64 66 67 67 68 68 67 67 67 67 68 69 67 64 62 62 61 47 59 58 57 57 55 54 53 54 54 54 55 57
65 71 69 63 64 63 62 59 58 64 66 64 56 52 49 49 50 51 54 58 59 51 52 60 63 68 68 68 68 67 66 63 58 54 54 56 57 58 60 60 59 59 59 58 41 48 51 52 52 53 53 54 55 55
66 74 66 64 61 57 62 68 65 67 65 61 55 50 47 47 50 56 58 62 62 63 66 67 67 65 61 61 61 61 64 62 59 54 51 51 54 57 57 56 56 57 57 56 56 56 46 52 51 55 52 52 50 49
72 70 65 62 62 67 67 67 67 66 63 57 55 49 47 54 57 64 67 67 68 67 64 62 63 63 59 59 57 54 55 57 55 53 51 54 55 54 54 55 56 56 55 55 54 54 52 52 51 50 49 47 47 46
71 67 66 61 62 69 68 60 63 60 63 58 56 59 57 50 48 61 64 65 63 62 56 60 59 58 60 60 60 59 45 58 54 52 50 50 50 51 54 54 55 55 53 54 53 53 51 49 48 47 46 45 45 45
71 71 69 68 68 65 68 61 56 57 58 62 59 61 62 58 51 60 67 66 62 61 61 62 62 61 59 57 57 57 53 56 44 38 38 38 36 40 49 52 52 53 52 52 51 50 48 46 46 46 46 45 44 45

GFSWCAN_sfc_temp_006.txt.gz
Temp
54 54 54 55 55 55 55 55 55 55 56 56 56 57 57 57 56 55 54 56 46 40 46 52 56 51 52 47 38 44 41 52 56 49 47 47 46 53 56 62 62 59 60 61 65 61 57 83 76 70 76 83 84 85
54 54 54 54 54 55 55 55 55 55 55 56 56 56 57 56 56 56 49 56 55 44 47 57 60 63 61 60 56 54 45 43 47 49 48 48 47 53 54 51 68 59 68 65 67 68 76 82 79 83 85 82 82 83
53 54 54 54 54 54 55 55 55 56 56 56 56 56 56 56 56 55 51 53 50 44 49 55 55 64 67 65 67 53 56 57 56 50 45 45 44 49 48 57 61 70 65 67 68 75 78 80 84 85 85 78 79 77
54 54 54 54 54 54 55 55 55 56 56 56 56 56 56 56 56 55 51 52 50 44 39 50 64 62 71 73 68 67 63 63 60 58 49 48 44 51 47 49 52 54 58 60 68 72 74 76 79 80 79 80 78 75
53 53 54 54 54 55 55 55 55 55 55 56 56 56 56 56 56 57 57 56 53 43 40 48 61 67 71 71 69 67 64 60 55 51 46 42 50 48 50 49 47 54 52 51 55 71 69 69 76 77 76 77 78 75
53 54 54 54 54 54 55 55 55 55 55 55 55 55 55 55 55 58 46 56 56 51 42 46 64 63 69 70 67 65 63 62 60 51 48 45 53 48 46 44 52 54 60 60 52 60 65 71 74 77 74 75 78 78
54 53 54 54 54 54 54 55 55 55 55 55 55 55 55 54 57 50 48 55 55 59 45 42 47 64 65 69 67 65 65 62 60 50 46 45 49 50 47 43 50 54 56 56 57 58 60 66 65 72 72 75 74 76
53 53 53 53 54 54 54 55 55 55 55 55 55 55 54 54 54 54 62 56 56 49 46 37 42 47 61 61 59 67 60 60 52 48 46 48 49 47 44 50 53 53 56 56 58 65 63 66 65 64 68 71 70 70
53 53 53 53 53 54 54 54 54 54 54 54 54 55 58 55 54 55 56 56 56 48 38 41 37 39 50 47 52 61 59 48 52 44 46 49 44 41 46 49 51 55 54 56 61 62 65 62 61 61 62 62 62 63
53 53 53 53 53 54 53 54 54 53 53 54 58 57 50 56 57 56 49 46 44 44 45 42 53 44 45 50 55 58 60 53 42 45 50 44 42 48 49 52 54 55 56 60 57 55 58 58 59 60 58 58 58 58
53 53 53 53 54 54 54 54 53 53 55 60 56 55 63 63 58 49 44 41 44 41 48 54 52 48 51 46 51 57 50 53 43 42 44 41 40 46 51 52 55 54 55 56 59 62 60 56 55 56 58 58 57 59
53 53 53 53 53 53 53 53 53 58 60 53 52 57 58 54 48 42 39 43 41 37 46 50 54 60 58 64 49 49 46 50 40 49 43 38 44 49 51 53 55 56 58 58 58 59 60 62 69 68 67 66 63 66
53 53 53 53 53 53 54 54 53 53 54 61 54 52 50 49 38 40 36 36 40 46 56 57 53 50 52 53 49 46 45 42 49 43 39 41 47 50 52 59 59 60 62 62 64 65 65 68 72 72 69 69 72 69
52 53 53 53 54 54 54 54 53 57 55 54 48 39 41 39 41 42 44 46 54 51 53 62 58 46 47 47 48 43 51 49 42 39 39 45 48 51 55 59 61 59 60 66 66 69 70 70 65 67 68 72 69 66
52 52 53 55 55 55 54 54 53 62 58 52 53 40 47 53 55 56 60 58 56 60 61 63 63 62 53 51 51 50 45 38 38 41 45 49 53 57 59 59 61 63 66 68 70 70 68 70 69 65 67 65 65 65
52 53 61 55 55 54 53 59 64 68 64 57 57 54 58 59 59 61 63 61 69 62 66 67 58 53 49 47 42 38 38 35 39 46 50 53 55 53 54 56 60 68 69 68 68 70 70 67 64 70 70 71 69 71
51 65 55 55 54 53 56 64 71 64 62 59 57 65 62 59 53 60 62 64 69 66 57 57 47 45 51 42 37 41 38 42 46 49 51 53 53 54 60 59 59 56 62 65 69 65 62 68 70 69 68 69 67 71
61 65 56 54 55 61 72 71 67 65 58 62 58 61 64 65 63 63 67 67 65 64 62 55 58 46 41 39 41 45 48 50 52 52 53 57 58 61 62 62 62 65 63 59 58 64 67 67 65 65 64 66 67 66
58 57 53 52 56 56 66 66 66 57 61 62 64 66 64 65 63 67 69 70 71 70 65 61 51 46 47 50 50 51 53 54 54 57 58 61 61 62 62 64 66 68 68 65 62 64 71 70 70 71 72 70 67 71
52 53 54 54 56 65 62 64 70 62 56 60 65 62 63 59 65 67 67 67 66 63 57 52 50 51 51 53 56 56 57 58 57 56 57 64 68 68 65 62 66 67 69 69 69 61 70 70 71 71 71 70 69 69
57 64 58 64 67 68 64 62 62 62 60 58 64 61 57 60 57 57 55 63 57 49 49 54 54 57 61 60 61 62 61 62 58 56 59 64 66 65 66 69 68 67 68 68 67 67 64 66 67 69 70 69 69 71
66 56 66 70 64 64 62 67 63 63 58 62 61 61 55 55 56 54 60 57 52 52 54 55 56 63 62 61 62 64 62 62 63 61 57 60 63 65 66 68 68 66 67 67 68 67 67 67 67 68 69 68 66 71
58 59 67 67 59 53 53 66 59 61 55 57 59 56 55 55 58 65 55 56 57 59 62 63 64 65 65 65 64 63 64 65 67 68 68 67 68 70 70 70 70 67 65 65 68 67 66 58 64 66 68 68 67 67
52 60 58 59 62 51 67 62 64 62 62 60 57 51 55 56 61 56 47 53 61 66 65 63 66 65 65 63 64 64 65 68 68 67 67 67 66 64 64 65 67 65 65 65 65 64 65 64 58 66 66 65 65 64
50 50 55 41 63 61 60 58 60 60 57 59 57 55 56 60 55 49 48 54 58 58 61 65 65 64 62 63 64 65 66 67 65 64 65 66 65 66 64 63 62 62 63 62 60 60 61 62 61 61 62 62 59 60
42 61 49 63 62 60 59 57 59 58 59 58 60 63 52 49 51 45 48 54 58 61 62 62 61 61 62 64 64 64 65 68 66 64 66 67 64 61 59 58 56 56 62 62 59 57 57 57 56 56 57 57 51 57
50 59 67 73 69 68 63 63 65 62 56 53 59 58 56 46 42 47 54 54 55 61 63 64 63 64 63 65 67 67 69 67 64 64 68 66 64 63 61 57 54 55 60 60 58 57 54 53 53 54 55 56 57 56
54 62 46 47 56 63 53 62 60 56 59 64 61 52 51 47 42 50 52 57 62 64 65 66 68 69 68 67 68 67 66 66 65 65 67 65 64 63 61 61 60 48 58 57 57 56 54 54 53 53 53 54 54 55
66 61 63 62 65 66 64 59 58 64 65 64 56 52 48 51 56 59 63 63 66 66 65 65 66 68 67 67 67 66 64 60 55 51 51 53 54 56 59 59 59 59 59 58 44 49 53 53 53 54 53 53 53 53
69 73 65 60 62 59 63 65 64 67 66 62 59 56 56 57 63 67 64 66 65 65 66 66 66 64 61 61 60 60 62 59 55 51 47 48 51 56 56 56 56 57 57 57 56 57 48 53 52 55 52 52 51 49
76 74 68 66 61 67 70 71 68 67 66 63 64 60 58 59 64 66 66 67 67 66 64 63 63 63 60 58 57 55 54 58 55 53 51 53 54 54 55 55 56 56 56 56 56 55 53 52 51 50 49 48 48 47
75 70 68 64 64 70 71 68 66 64 63 61 61 58 58 55 52 58 66 66 64 62 57 61 61 60 60 60 60 59 49 56 54 52 51 51 51 52 53 55 55 55 54 54 54 53 51 49 49 48 48 47 47 47
72 72 71 70 69 67 68 66 62 61 64 60 62 63 62 59 53 59 68 67 64 62 60 62 63 63 61 59 58 58 54 53 46 39 39 39 38 41 49 52 52 52 51 52 51 51 49 48 48 48 47 47 47 46

GFSWCAN_sfc_temp_009.txt.gz
Temp
54 54 55 55 55 55 55 55 55 56 56 56 56 57 57 57 56 54 52 53 46 39 43 47 49 46 47 46 38 44 41 41 39 39 43 41 41 45 45 49 49 44 43 52 54 52 50 72 72 66 62 70 71 71
54 54 54 54 54 55 55 55 55 55 56 56 56 57 57 57 56 55 48 54 53 43 43 52 52 54 53 54 50 43 41 40 39 40 43 44 45 44 44 39 56 44 49 46 55 54 65 70 66 67 68 66 68 67
54 54 54 54 54 54 55 55 55 56 56 56 56 56 56 56 56 55 49 50 49 43 46 48 49 58 61 57 59 46 49 47 44 48 43 43 40 47 41 45 49 57 57 55 57 65 66 66 72 69 67 66 69 69
54 54 54 54 54 54 55 55 55 55 55 56 56 56 56 56 56 56 50 51 48 43 36 44 61 56 65 65 61 57 56 58 49 47 43 42 40 48 44 45 46 52 53 52 53 61 63 63 64 70 69 69 69 68
54 54 54 54 54 54 55 55 55 55 55 55 56 56 56 56 55 55 56 54 51 43 37 40 51 58 62 61 61 61 58 54 52 46 43 42 47 46 48 47 45 51 51 48 48 53 54 59 64 68 67 68 68 67
53 54 54 54 54 54 54 55 55 55 55 55 55 55 56 55 55 53 45 52 55 50 40 37 56 56 61 62 61 59 58 55 55 47 45 47 50 46 42 42 50 52 55 56 54 56 58 63 65 70 67 68 69 69
54 54 54 54 54 54 54 54 54 55 54 55 54 54 54 54 53 49 46 52 54 53 42 39 43 52 57 59 59 58 58 56 54 48 46 46 45 46 45 40 50 52 55 56 59 59 55 58 56 64 67 67 67 68
53 53 54 54 54 54 54 55 55 55 55 54 54 54 54 54 53 49 56 56 55 48 44 36 40 46 51 49 52 59 54 54 49 46 46 43 45 46 42 48 51 52 55 56 56 57 55 56 58 60 64 64 62 62
53 54 54 54 54 54 54 54 54 54 54 54 54 54 54 52 51 52 57 56 55 47 39 39 36 36 48 46 48 47 51 42 48 42 42 44 43 40 45 47 49 52 52 54 55 57 58 56 54 57 58 59 57 58
53 53 53 54 54 54 53 54 54 54 53 54 55 55 48 52 57 55 49 45 43 43 43 39 47 39 46 45 45 46 48 42 38 41 47 42 41 47 49 50 51 52 53 54 52 52 55 54 55 55 56 57 57 58
53 53 53 53 53 53 53 54 54 53 53 58 52 52 56 59 52 47 42 40 41 38 43 46 47 43 50 43 44 48 45 44 38 42 43 40 39 45 50 51 52 53 54 54 56 56 56 56 56 56 56 58 58 57
53 53 53 53 53 53 53 54 53 55 56 51 49 54 55 52 47 41 38 40 38 36 43 44 47 47 49 48 46 47 44 44 38 48 42 36 42 47 49 51 52 53 54 56 58 57 59 58 59 58 60 62 62 62
53 53 53 53 53 53 54 54 54 53 54 59 50 51 48 46 37 37 33 34 37 45 48 49 45 46 49 49 47 44 39 41 48 41 37 40 46 49 50 52 53 55 56 58 58 60 61 64 66 65 62 63 65 65
52 52 52 52 53 54 54 54 54 56 56 52 49 37 44 41 41 42 45 42 47 48 48 49 46 45 46 45 44 42 48 48 41 36 36 43 46 49 51 53 53 55 57 58 59 61 59 63 63 63 65 65 65 61
52 52 53 55 55 55 55 54 54 58 57 52 52 36 47 55 56 57 60 51 49 54 55 54 51 52 47 46 46 46 42 36 38 39 43 47 49 52 54 56 57 55 58 58 63 62 62 64 63 63 64 63 63 63
52 52 58 54 55 54 54 56 61 61 60 56 56 53 58 52 53 57 59 58 64 62 60 57 51 47 43 42 39 37 37 34 39 44 49 51 51 52 52 55 56 58 62 61 58 61 62 62 61 61 64 63 64 63
52 53 56 55 54 53 56 61 65 62 60 56 54 62 52 52 53 56 61 61 65 60 51 52 44 41 44 38 36 41 39 42 47 49 50 51 52 52 53 55 55 56 57 57 57 57 58 62 64 62 61 61 63 63
55 61 57 55 53 57 66 63 63 61 57 55 52 58 60 54 53 59 61 63 61 57 55 51 53 44 40 39 41 45 47 48 50 51 51 53 55 56 56 56 58 58 57 56 56 58 62 61 61 59 59 62 63 63
55 55 53 52 53 52 60 65 64 55 57 58 59 61 60 55 56 60 62 62 62 61 57 53 47 43 43 47 48 49 49 50 49 51 53 56 55 54 56 58 60 59 58 59 60 61 61 60 60 62 63 62 60 60
52 53 54 55 55 59 61 61 67 60 55 53 56 54 57 56 58 61 60 60 58 56 50 47 46 47 48 50 52 52 52 53 52 51 52 58 60 59 58 61 61 60 61 59 61 58 61 60 62 61 61 59 59 58
58 62 59 62 63 64 62 60 60 58 56 55 58 57 53 59 57 56 56 59 54 52 48 51 53 56 57 57 57 55 55 55 54 54 55 57 59 60 60 62 62 63 62 61 60 58 57 58 59 61 59 60 60 61
64 58 63 68 65 64 62 65 61 63 58 56 59 60 53 52 53 55 58 54 51 51 53 54 54 59 57 54 56 57 56 57 59 60 58 58 60 60 61 61 62 60 59 59 59 58 58 59 58 60 59 58 58 58
58 58 62 67 60 49 51 67 59 61 54 57 59 55 52 53 54 61 52 53 53 58 60 59 58 58 57 58 58 57 58 58 59 59 60 62 60 60 60 59 58 56 56 57 59 58 57 53 57 58 60 59 59 58
52 58 57 57 58 49 65 58 61 60 61 59 54 51 52 53 58 53 48 52 56 59 59 57 59 58 59 57 57 57 58 61 60 60 60 60 59 57 58 56 56 57 57 57 56 56 56 55 52 55 56 55 54 54
48 49 52 40 58 58 58 59 60 60 56 60 54 49 46 48 46 49 47 49 52 54 57 58 58 58 56 58 60 60 60 61 58 58 60 60 58 59 57 56 54 54 57 54 52 53 52 52 52 52 53 53 51 52
41 58 48 55 55 56 55 54 57 58 58 56 53 50 51 48 48 44 46 50 52 54 56 55 56 58 59 60 59 59 59 61 59 57 58 59 57 54 52 50 49 50 56 54 52 51 50 50 50 51 52 52 48 51
45 47 52 54 52 53 59 58 63 61 58 55 55 55 53 44 42 48 54 56 56 60 61 62 61 61 60 60 61 61 61 60 56 56 60 59 58 57 54 51 48 50 55 54 53 51 50 50 50 51 51 51 50 50
52 51 49 55 56 63 58 59 59 56 56 60 60 52 48 46 45 54 56 59 62 64 64 65 65 64 62 62 62 60 58 58 57 57 58 58 57 56 55 56 54 47 52 52 52 52 51 50 50 50 49 48 48 49
59 63 59 56 63 63 61 59 58 60 61 60 54 50 50 54 58 60 61 63 65 63 61 62 62 63 62 62 61 59 57 54 49 45 44 45 48 50 54 54 54 54 54 54 46 49 50 50 50 50 50 49 48 48
66 72 65 65 61 59 61 65 61 64 63 60 58 57 56 58 62 65 65 63 61 61 61 62 62 60 57 56 55 55 55 53 51 46 43 44 47 51 52 52 52 53 53 53 53 52 47 50 49 50 48 47 47 46
75 73 68 66 64 67 67 68 67 67 65 63 64 59 57 58 61 65 64 63 63 62 60 59 60 59 56 54 53 52 50 52 51 50 49 50 51 50 50 51 52 52 51 51 51 50 48 48 47 46 46 46 46 45
72 69 67 64 64 69 69 65 63 63 63 61 58 60 59 55 52 58 63 63 61 58 54 57 57 56 58 58 57 56 49 51 50 50 49 48 48 49 50 50 51 51 50 51 50 49 48 47 47 46 45 45 44 44
71 71 70 69 65 63 66 65 62 61 62 58 58 57 59 57 53 60 64 64 60 58 57 58 59 59 56 56 55 54 51 51 47 41 40 40 39 42 47 49 49 49 49 49 49 49 47 46 45 45 44 44 43 44

GFSWCAN_sfc_temp_012.txt.gz
Temp
54 54 55 55 55 55 55 55 55 55 56 57 57 57 57 57 56 48 44 46 44 39 42 44 45 41 40 37 34 38 38 38 34 34 34 35 33 39 37 45 43 40 40 43 48 45 43 66 66 62 61 61 65 65
54 54 54 54 55 55 55 55 55 55 55 56 56 57 57 56 56 53 41 46 47 42 43 48 49 50 48 46 38 38 40 37 39 36 36 37 37 38 36 35 48 41 44 45 49 46 56 60 58 64 62 60 61 61
54 54 54 54 54 54 55 55 55 55 55 56 56 56 56 56 56 54 43 44 43 42 41 41 41 49 52 51 54 40 41 45 41 43 39 38 37 41 36 38 46 48 52 49 51 55 54 58 62 63 63 62 64 64
54 54 54 54 54 54 54 55 55 55 55 55 56 56 56 56 56 55 43 45 45 43 36 40 54 48 56 54 53 52 50 49 46 43 39 35 36 46 40 44 42 49 50 49 49 53 54 58 60 61 64 65 64 64
53 54 54 54 54 54 55 55 55 55 55 55 55 55 56 56 55 52 49 48 48 43 36 40 46 48 49 48 51 54 50 47 44 37 39 39 44 42 45 44 43 50 48 47 47 51 51 53 59 61 61 61 63 62
53 53 53 53 54 54 55 55 55 55 55 55 55 55 55 55 54 44 39 46 48 48 40 33 42 46 51 53 51 50 51 51 46 41 41 45 48 43 39 39 48 50 52 53 52 54 53 57 61 63 61 63 65 64
53 53 53 54 54 54 55 55 55 55 55 55 55 55 54 54 49 42 40 46 52 50 40 37 35 47 51 46 47 47 48 47 49 43 44 44 45 43 41 40 46 50 53 55 56 55 55 55 53 59 61 63 64 65
53 53 53 53 54 54 54 54 54 54 55 55 55 54 54 53 52 47 50 53 53 45 43 36 37 41 47 42 43 48 48 47 44 44 44 42 43 42 40 46 48 51 53 55 55 57 55 57 57 57 60 60 60 59
53 53 53 53 53 54 54 54 54 54 55 54 54 54 51 47 44 48 57 54 51 46 38 38 35 34 47 45 45 45 46 40 45 41 42 42 42 39 44 46 48 51 53 53 55 55 56 54 54 54 56 57 56 56
53 53 53 53 53 53 53 53 54 54 54 53 51 48 43 48 57 55 49 44 42 43 42 36 42 37 42 44 41 43 44 40 35 40 45 40 40 46 48 50 50 52 53 55 51 51 51 52 52 54 54 54 55 56
53 53 53 53 53 53 53 53 53 53 53 47 43 44 49 57 50 46 41 39 40 38 40 40 41 38 48 42 41 46 41 41 34 40 40 38 37 44 49 51 52 53 53 53 53 53 54 55 54 55 55 58 58 59
53 53 53 53 53 53 53 53 53 48 46 47 47 49 48 45 44 40 33 37 36 35 42 41 45 46 46 48 42 45 41 42 37 47 39 35 42 48 49 50 51 53 53 54 55 55 57 57 58 59 59 60 60 61
52 53 52 52 53 53 53 54 54 53 51 48 45 44 42 42 37 34 32 35 37 43 45 46 44 46 47 48 45 42 40 39 47 39 34 38 45 48 49 51 52 54 55 57 58 60 61 61 61 60 59 61 62 60
52 52 52 52 52 53 54 54 54 51 48 44 42 38 39 38 42 42 44 45 46 46 46 47 46 44 46 45 44 43 44 43 38 34 34 42 45 47 49 51 53 52 55 55 56 60 60 58 60 61 62 61 62 60
52 52 52 51 55 55 54 54 53 49 47 44 45 36 41 44 48 52 55 52 53 51 48 46 47 48 44 43 43 43 40 35 36 38 42 47 49 50 51 52 53 54 54 55 56 57 58 59 59 59 61 59 63 62
52 51 52 55 55 54 53 52 52 51 49 49 49 46 48 46 48 52 53 52 57 58 50 48 45 43 40 40 39 37 36 35 40 45 47 48 49 50 51 53 53 55 56 57 56 57 57 60 61 60 62 61 59 59
51 47 54 55 53 52 54 52 53 52 52 51 46 47 46 45 45 50 53 54 60 56 49 46 42 40 43 38 37 41 39 43 46 48 49 50 49 49 52 53 53 54 54 58 58 58 57 60 60 61 58 58 62 59
47 51 55 54 51 51 52 54 54 54 50 48 42 46 46 47 47 51 55 57 54 51 49 46 49 43 39 37 39 44 46 48 49 49 50 51 52 53 53 52 52 55 55 53 52 58 59 59 57 57 57 58 58 57
50 51 53 52 51 48 48 55 55 49 49 47 47 48 48 47 51 54 55 56 57 52 49 48 44 41 41 45 45 47 48 48 48 49 50 52 53 54 54 55 55 56 57 55 55 55 55 55 54 54 54 53 53 54
53 53 54 55 54 49 51 49 54 50 49 49 48 49 47 47 49 52 54 55 51 48 47 43 43 44 44 45 47 48 49 50 50 49 51 54 56 56 57 59 57 55 53 54 54 52 54 55 56 55 53 54 52 50
54 55 56 55 52 51 51 49 49 49 48 46 48 48 46 49 49 49 51 49 51 48 44 43 44 46 49 54 55 55 50 49 46 46 46 49 52 53 54 53 55 55 53 50 49 50 49 49 51 54 53 51 51 50
52 57 53 57 54 54 50 52 49 50 48 47 47 47 44 43 44 45 47 50 47 45 47 45 45 47 50 50 49 55 51 49 49 54 53 53 50 50 51 51 51 49 49 49 49 48 48 49 50 51 51 50 48 47
53 53 51 55 51 43 46 52 49 49 48 47 49 48 46 44 46 49 42 45 47 49 50 49 47 49 48 49 49 50 51 52 49 49 51 50 51 53 52 51 51 49 48 49 49 48 47 46 47 48 47 48 47 47
53 50 49 49 49 44 52 50 51 50 53 48 45 44 45 45 49 44 41 44 45 50 50 48 48 49 48 48 46 49 49 52 52 51 49 50 48 46 47 47 48 48 49 49 48 46 46 45 45 46 45 46 46 45
44 47 47 38 49 48 50 50 51 49 46 46 43 42 43 45 44 44 43 42 47 46 46 48 50 48 45 44 45 48 49 48 46 47 49 49 46 44 43 43 43 42 44 43 42 42 42 42 42 43 45 45 45 44
40 48 43 47 46 45 47 47 49 51 49 48 47 45 47 45 43 37 39 42 43 45 46 47 48 47 46 46 46 45 45 47 48 45 45 48 44 41 39 39 39 40 42 42 41 42 42 43 43 44 44 44 42 43
41 46 47 49 47 48 47 50 51 49 48 47 47 48 47 42 37 40 44 46 46 48 50 51 53 47 45 45 45 45 47 48 44 44 45 45 44 43 42 40 38 40 43 45 44 44 42 42 42 42 42 41 41 42
49 48 45 49 48 50 51 50 49 46 46 48 48 44 42 42 38 44 46 49 51 56 52 51 51 50 48 46 45 44 43 44 46 46 44 43 43 43 43 43 43 44 43 43 44 44 43 42 42 42 42 40 39 41
50 52 51 49 51 53 52 50 48 48 48 47 44 42 42 45 48 48 49 50 50 50 47 46 46 48 47 48 46 44 44 41 39 37 36 34 36 38 42 42 42 42 42 42 45 44 43 43 42 42 42 40 40 40
54 56 52 55 54 50 52 53 50 51 50 48 48 46 46 46 50 52 50 49 47 46 46 46 45 45 43 42 40 40 41 40 39 36 33 33 35 38 40 40 40 41 41 41 41 41 43 42 42 41 40 39 37 37
61 59 57 56 54 54 55 56 55 54 53 51 51 48 46 48 51 51 51 49 48 48 47 45 44 44 43 42 40 38 35 38 40 40 39 38 38 38 39 39 40 40 40 41 40 40 40 39 38 38 38 38 38 37
60 59 56 54 52 55 57 53 52 54 53 52 53 50 49 47 45 48 50 50 47 45 47 45 43 42 43 43 43 42 42 40 39 40 39 38 38 39 39 39 39 40 40 41 41 40 40 39 37 37 37 37 37 37
59 59 59 57 53 55 55 52 51 50 51 51 50 50 50 48 45 47 50 50 48 46 45 45 45 45 45 45 44 43 43 41 41 41 41 40 40 39 37 37 39 40 40 40 40 40 39 39 37 38 37 37 37 37

GFSWCAN_sfc_temp_015.txt.gz
Temp
54 54 55 55 55 55 55 55 55 55 56 56 56 57 57 57 56 47 43 45 42 39 42 46 46 40 40 38 34 35 35 37 33 34 33 30 30 36 34 39 38 39 39 38 42 40 38 57 58 52 54 58 63 64
54 54 54 55 55 54 55 55 55 55 55 56 56 56 56 56 56 53 44 45 46 42 40 46 47 49 47 46 42 38 36 35 37 33 33 34 33 35 33 31 42 37 44 41 47 46 52 55 58 60 59 57 59 60
54 54 54 54 54 54 54 55 55 55 55 56 56 56 56 56 56 54 46 44 43 41 42 42 40 47 49 49 52 39 44 43 39 43 39 36 33 38 31 35 40 45 46 47 47 54 54 57 59 60 60 59 60 60
54 54 54 54 54 54 54 55 55 55 55 55 56 56 56 56 56 55 46 44 45 42 36 38 51 45 51 49 48 49 47 46 46 44 38 36 34 41 36 39 37 42 46 48 48 52 56 57 58 58 59 62 61 60
53 53 54 54 54 54 54 55 55 55 55 55 55 56 56 56 55 52 46 46 47 41 36 38 44 45 45 46 47 47 46 44 44 40 38 36 40 40 42 39 39 47 48 44 45 51 52 52 55 60 58 58 59 59
53 53 53 53 54 54 54 54 54 55 55 55 55 55 55 55 54 47 40 45 47 47 40 34 38 41 45 48 46 45 46 44 45 42 36 38 46 41 38 33 46 49 51 51 51 53 54 54 56 59 59 58 61 60
53 53 53 53 54 54 54 54 54 54 54 55 55 55 55 54 50 43 40 47 51 48 40 36 38 42 47 44 44 44 46 42 45 39 38 39 42 42 38 36 46 49 50 52 56 54 52 55 53 57 59 60 62 63
53 53 53 53 54 54 54 54 54 54 54 54 54 54 54 53 52 47 50 51 50 44 42 35 36 40 47 41 42 46 44 45 44 43 44 42 43 41 36 43 47 49 51 52 54 54 55 55 55 55 57 58 57 57
53 53 53 53 53 53 53 54 54 54 54 54 54 54 51 47 44 46 55 53 49 44 36 37 34 34 47 44 44 44 45 40 45 41 41 42 38 36 42 44 45 49 50 52 54 53 56 54 54 55 56 56 56 56
53 53 53 53 53 53 53 53 53 53 53 53 51 48 42 47 56 54 48 43 42 42 41 35 40 35 42 43 42 42 44 40 35 38 44 37 35 43 45 48 50 52 54 54 52 51 52 52 53 53 53 54 56 56
53 53 53 53 53 53 53 53 53 53 52 46 42 42 47 54 49 46 40 38 39 35 39 39 39 36 45 40 41 44 37 39 33 37 38 34 34 44 50 50 52 53 54 53 53 53 53 54 54 53 54 56 57 58
53 53 53 53 53 53 53 53 53 48 45 46 47 49 45 44 44 39 36 38 35 34 40 40 43 43 45 47 42 43 38 39 36 45 38 33 38 47 49 51 52 53 54 54 55 54 55 56 57 58 58 57 59 60
52 52 52 52 53 53 53 53 54 53 51 47 44 44 41 42 38 35 32 38 40 43 44 45 44 45 46 47 44 41 41 40 46 36 33 36 43 47 48 50 53 54 56 56 56 56 56 57 60 59 58 60 60 60
52 52 52 52 52 53 54 54 53 51 47 44 41 38 39 39 42 42 43 44 49 46 47 46 46 43 46 43 44 42 42 42 36 33 34 43 48 50 52 53 53 52 53 54 56 57 57 57 57 59 59 61 61 58
52 52 52 51 54 55 53 53 53 48 47 45 44 35 41 45 47 50 52 50 51 53 48 45 46 46 41 41 42 41 39 34 36 38 43 47 49 51 51 51 51 53 53 53 56 56 54 56 58 59 60 60 59 60
52 51 52 53 54 53 52 52 51 50 47 49 48 44 46 44 47 49 49 48 54 55 50 49 44 41 40 40 39 36 35 34 40 45 48 49 49 49 50 51 52 54 56 56 56 57 57 58 56 56 59 58 57 58
51 46 54 53 53 52 52 51 52 51 48 50 46 47 43 43 42 48 51 52 56 51 46 44 40 40 43 39 38 42 40 44 46 48 49 50 50 49 51 53 53 52 52 56 56 56 56 57 57 56 54 54 56 58
46 49 53 53 51 49 50 52 52 54 48 44 42 44 44 45 46 50 51 55 50 48 46 45 47 42 39 39 40 44 46 48 48 49 50 50 50 50 51 51 52 51 51 49 51 54 53 53 51 50 51 52 54 53
48 51 52 52 51 48 49 53 54 49 49 46 47 47 45 45 49 51 53 55 56 51 44 43 42 38 38 42 43 46 47 47 47 48 49 50 50 50 48 49 50 51 51 49 50 50 51 51 49 49 50 51 48 48
52 53 54 54 53 49 50 48 50 48 44 47 46 45 44 44 46 48 51 51 48 44 44 41 42 42 42 43 45 45 46 46 46 46 46 50 52 51 49 49 48 48 48 48 48 48 49 49 49 48 48 47 46 44
51 54 55 53 51 51 49 46 47 46 46 46 45 45 44 45 45 46 48 48 48 43 40 40 44 48 49 52 53 50 46 43 42 41 40 43 48 51 49 47 48 47 46 45 43 44 45 43 45 46 46 45 45 45
49 54 50 54 51 51 48 48 48 47 48 48 46 45 43 42 41 42 43 41 42 44 44 41 42 42 44 45 45 49 50 47 45 47 47 47 46 47 47 47 45 44 43 42 42 40 41 41 42 43 44 44 45 44
52 52 50 52 49 45 47 49 48 49 46 46 47 45 46 45 43 45 40 42 45 45 44 45 44 44 44 45 46 45 44 45 43 42 43 42 42 43 45 47 48 46 44 43 42 40 39 41 42 41 42 43 43 42
52 49 48 46 46 42 49 48 47 46 46 43 41 38 44 46 45 40 37 40 43 45 44 44 44 43 42 43 40 41 42 42 44 42 41 41 41 38 39 39 39 39 39 38 39 38 39 40 41 42 42 42 41 39
45 45 45 38 45 46 47 47 47 46 43 42 40 39 41 45 39 38 35 39 40 41 42 44 43 41 39 38 38 39 41 40 40 39 39 39 38 38 38 38 38 37 38 39 38 39 38 39 39 41 41 40 39 38
39 46 43 45 44 45 44 45 45 45 45 44 44 46 45 40 38 35 37 40 41 42 43 42 42 40 39 38 37 38 38 39 40 40 38 38 38 37 36 35 36 37 38 38 39 40 40 40 40 40 39 40 40 39
41 45 45 46 45 45 45 46 46 45 44 43 45 44 42 37 35 38 41 42 43 50 48 44 43 41 39 37 38 38 38 39 40 39 38 37 38 38 38 37 36 38 38 42 41 41 40 39 39 39 38 38 38 38
48 46 47 46 45 46 47 46 45 43 43 44 44 41 40 40 38 42 44 46 44 44 44 42 42 41 40 39 38 38 38 38 40 39 38 38 38 37 37 38 38 40 38 40 40 40 40 39 39 39 39 38 36 37
49 48 48 47 48 48 48 47 46 45 45 44 42 40 40 42 44 45 46 46 43 44 43 42 40 40 39 38 38 37 37 36 36 33 32 31 32 35 36 37 38 38 37 40 41 41 42 40 40 39 39 37 36 36
51 50 48 50 50 48 49 49 48 48 45 45 45 43 43 44 46 47 46 44 44 45 47 42 40 38 36 35 35 35 35 35 34 34 31 31 32 34 35 36 36 36 36 37 38 39 41 39 38 38 37 35 34 34
54 51 52 51 51 50 51 51 50 50 49 48 47 45 45 45 46 46 45 44 43 44 42 40 39 38 37 36 35 34 33 36 35 36 35 34 33 35 35 36 35 35 36 37 37 36 36 35 35 35 35 35 36 35
54 53 51 50 48 49 52 50 49 49 48 47 46 47 48 44 43 44 45 44 43 42 42 41 40 39 40 39 39 38 39 38 37 38 37 36 36 36 35 35 35 37 37 38 37 37 37 36 35 35 34 35 35 35
54 53 53 50 48 49 50 49 47 48 45 45 46 49 46 45 43 44 46 46 45 43 42 41 41 40 41 41 40 39 40 39 39 40 40 40 40 38 35 35 36 37 37 37 38 38 38 37 36 36 36 36 35 35

GFSWCAN_sfc_temp_018.txt.gz
Temp
54 54 55 55 55 55 55 55 55 55 56 56 57 57 57 57 56 48 44 44 44 39 40 42 46 41 41 39 33 38 34 35 33 33 33 31 28 32 31 38 34 32 31 31 34 33 34 57 57 52 54 58 59 59
54 54 54 54 54 54 55 55 55 55 55 56 56 56 56 56 56 54 44 45 46 41 41 47 47 49 47 46 42 39 38 33 34 31 33 31 32 34 34 28 39 33 39 37 41 40 50 54 54 58 59 57 58 56
54 54 54 54 54 54 54 55 55 55 55 56 56 56 56 56 56 54 46 47 44 41 40 40 39 46 47 49 51 38 42 44 41 43 38 36 33 37 29 32 36 42 44 40 42 49 51 55 57 57 58 57 59 58
53 54 54 54 54 54 54 55 55 55 55 55 56 56 56 56 56 56 47 47 45 42 35 36 48 42 49 47 47 48 45 42 42 43 38 35 34 39 35 38 35 39 40 39 41 48 52 55 56 56 58 59 59 60
53 53 54 54 54 54 54 54 54 55 55 55 55 55 56 56 55 53 49 48 49 42 33 36 45 44 44 44 45 45 44 41 41 38 37 36 39 38 40 39 36 41 38 38 39 48 49 51 54 57 56 57 58 58
53 53 53 53 53 54 54 54 54 54 54 55 55 55 55 55 55 48 40 45 48 47 39 35 41 41 47 43 43 42 42 40 42 40 38 41 43 40 35 35 42 45 48 47 47 51 54 54 55 57 56 58 60 59
53 53 53 53 53 54 54 54 54 54 54 54 55 55 55 54 49 43 41 46 49 47 40 35 38 43 45 43 41 39 42 41 40 40 37 36 40 42 38 34 44 47 48 49 52 52 52 54 53 56 57 58 59 60
53 53 53 53 53 53 53 54 54 54 54 54 54 54 54 54 51 47 50 50 49 44 41 34 36 39 45 38 39 42 38 40 41 39 41 39 42 41 35 41 44 46 49 49 51 54 54 55 56 55 56 58 56 56
53 53 53 53 53 53 53 53 54 54 54 54 54 54 50 48 45 46 54 53 49 43 35 35 33 34 45 43 44 44 44 38 44 40 41 41 38 34 38 41 45 47 47 50 53 54 54 53 54 55 56 56 55 55
53 53 53 53 53 53 53 53 53 53 53 53 48 45 41 45 56 54 46 42 41 42 41 34 38 34 40 41 42 42 43 38 35 38 42 37 35 41 44 45 47 48 51 52 51 50 52 52 53 54 54 55 56 56
52 52 53 53 53 53 53 53 53 53 51 44 41 40 47 52 49 46 40 38 38 34 35 36 37 35 43 38 40 43 36 36 32 36 35 33 33 42 48 48 52 53 53 52 53 53 53 53 54 54 55 56 57 58
52 52 52 52 52 52 53 53 53 51 45 48 47 49 46 44 44 40 37 39 36 35 41 39 42 41 43 45 42 42 36 35 33 43 35 32 38 46 50 51 53 54 54 54 54 54 55 56 56 56 57 58 57 60
52 52 52 52 52 53 53 53 53 52 51 47 43 42 44 44 39 37 35 38 41 45 45 46 44 45 47 47 44 41 39 37 44 35 31 40 45 47 47 51 51 54 55 54 54 56 57 57 57 57 55 58 60 59
52 52 52 52 52 53 54 53 53 51 47 43 42 37 40 39 41 42 41 42 46 47 46 44 44 43 44 40 44 40 42 41 35 32 35 43 45 45 45 47 47 48 52 52 52 53 54 55 55 57 57 58 57 56
52 52 52 52 54 54 53 52 53 48 47 43 44 36 38 44 46 47 47 45 48 52 45 44 43 44 42 43 43 40 39 34 35 36 41 45 46 47 46 47 47 47 48 49 51 53 54 55 55 55 56 54 54 54
52 51 51 53 53 53 52 51 51 49 48 48 46 41 44 44 46 48 48 46 52 52 49 47 43 41 40 41 39 38 34 34 40 44 46 47 46 46 46 47 49 51 49 50 51 50 52 54 54 53 54 54 54 52
51 47 53 53 53 52 52 52 52 50 47 47 43 43 41 41 40 45 49 49 51 50 43 45 41 39 43 39 39 41 39 42 45 45 47 47 47 46 47 49 49 48 49 51 51 51 51 52 53 52 49 51 51 51
46 48 53 52 52 49 51 51 51 50 45 43 41 43 42 42 41 46 48 52 47 41 42 43 45 38 36 36 38 43 45 47 46 44 44 44 44 45 47 45 47 47 46 47 48 49 49 48 48 47 48 49 49 49
48 50 52 52 52 47 50 52 51 45 44 43 44 44 43 43 46 46 50 51 51 46 44 43 38 35 37 40 41 43 44 45 44 43 43 45 45 45 45 45 45 46 45 45 45 46 47 47 46 47 48 48 46 46
52 53 53 54 52 49 50 47 49 47 44 45 46 44 42 42 43 48 50 49 45 41 39 36 39 41 40 42 43 43 43 42 45 42 41 46 47 48 45 43 43 43 45 45 46 45 45 46 46 46 45 45 44 43
51 52 54 52 51 49 48 45 46 44 43 44 44 45 43 43 42 42 42 44 42 38 37 38 38 39 41 46 45 43 43 42 39 39 39 39 46 48 47 47 46 44 42 42 41 42 42 41 41 43 44 43 44 44
48 53 49 52 50 49 47 46 46 45 45 44 44 43 41 41 39 40 40 40 39 40 40 39 40 41 42 42 41 41 42 42 41 41 42 41 40 41 41 44 44 43 41 40 40 40 40 40 42 43 44 43 44 44
51 51 49 51 48 44 45 47 46 45 43 42 43 42 41 43 42 42 40 41 42 42 44 41 42 42 40 41 42 42 41 41 39 39 40 39 39 39 40 40 41 40 39 39 39 39 39 40 42 43 43 43 42 42
52 48 47 45 45 41 47 46 45 44 43 41 40 37 40 41 42 38 36 38 41 44 42 42 41 41 41 40 38 38 38 39 39 39 38 39 39 38 38 39 40 40 39 40 40 40 40 41 41 42 42 42 41 40
45 45 45 37 44 45 45 45 45 44 41 41 39 39 40 41 38 36 35 38 40 41 42 41 40 40 38 38 38 38 39 39 39 38 38 38 38 39 39 39 39 38 39 41 40 41 40 41 42 42 42 42 41 40
38 44 44 44 43 44 43 43 43 42 43 42 45 44 41 39 37 35 36 39 40 42 43 42 40 38 38 37 37 38 38 38 39 38 38 36 38 38 38 37 37 39 40 40 42 42 42 42 42 41 41 41 40 41
40 45 44 44 44 44 44 44 44 42 43 41 41 42 41 36 36 38 41 41 42 44 44 42 42 40 38 37 37 38 38 38 39 39 38 37 37 37 38 38 38 39 40 43 43 43 42 42 41 41 41 41 40 41
47 45 47 45 44 45 45 44 44 42 42 42 43 41 40 40 39 42 43 45 43 42 41 39 40 40 38 38 38 39 40 39 40 39 38 39 38 38 38 39 39 39 40 42 42 43 42 42 42 42 41 40 40 41
48 47 47 46 47 46 46 46 45 44 45 43 43 41 41 42 44 45 45 45 43 48 45 40 38 38 37 37 37 37 37 38 38 36 35 33 34 37 37 38 39 39 40 42 40 41 43 42 42 42 41 40 40 40
50 49 47 48 47 47 49 48 46 45 45 45 45 44 44 46 47 47 45 44 44 48 47 43 39 39 38 38 37 38 38 37 37 36 34 34 36 37 37 38 38 38 38 41 41 41 40 41 40 41 40 40 39 39
49 49 49 49 48 49 49 47 46 48 49 48 46 45 45 47 48 46 46 44 44 43 42 40 39 39 38 37 36 36 36 39 39 40 39 38 37 38 38 38 38 39 39 40 40 40 40 39 39 38 38 38 38 38
49 49 49 48 48 48 50 48 47 47 47 45 45 45 45 46 44 46 45 44 44 43 43 42 41 41 41 41 40 39 40 40 40 40 41 39 39 39 39 38 39 41 41 41 40 40 40 40 39 39 38 38 38 38
51 49 49 48 46 47 48 48 46 46 44 44 44 45 46 48 45 47 46 47 47 45 43 43 43 43 43 44 42 41 40 41 41 39 38 39 39 39 40 39 40 41 41 41 41 41 40 40 40 40 40 39 39 39

GFSWCAN_sfc_temp_021.txt.gz
Temp
54 55 55 55 55 55 55 55 55 56 56 56 57 57 57 57 55 52 49 49 46 40 42 46 47 42 44 41 34 42 41 41 38 35 35 36 34 42 40 46 44 42 39 38 42 39 37 65 66 59 63 66 67 68
54 54 54 54 54 55 55 55 55 55 56 56 56 56 56 56 56 54 45 48 48 43 42 52 52 53 51 50 43 40 41 41 42 36 37 35 37 41 39 35 49 40 47 44 48 49 59 63 61 66 66 64 66 66
54 54 54 54 54 54 55 55 55 55 55 56 56 56 56 56 56 54 47 47 45 41 43 47 47 54 56 54 56 39 43 48 45 48 40 39 34 40 33 39 42 49 52 46 48 55 57 61 65 68 66 65 67 67
54 54 54 54 54 54 54 54 55 55 55 55 56 56 56 56 56 56 48 48 46 42 36 42 55 51 58 56 53 53 51 52 48 44 38 36 34 43 37 43 40 46 47 46 48 52 56 60 64 66 65 67 66 64
53 54 54 54 54 54 54 54 54 54 55 55 55 56 56 56 55 54 51 49 49 42 36 40 49 54 55 54 51 52 50 47 43 39 37 36 40 39 41 41 38 48 45 43 46 55 52 54 61 65 65 65 64 62
53 53 53 54 54 54 54 54 54 54 54 55 55 55 55 55 54 50 44 49 51 48 40 35 51 49 53 51 50 47 48 45 43 40 39 41 48 41 36 35 48 51 53 54 50 56 55 58 59 63 65 65 64 63
53 53 53 53 54 54 54 54 54 54 54 54 55 55 55 54 52 46 43 47 50 48 40 36 39 51 52 51 46 45 47 44 41 38 38 41 45 42 37 34 47 52 53 53 56 52 50 56 56 65 62 65 60 63
53 53 53 53 53 53 53 54 54 54 54 54 54 54 54 53 52 48 51 50 49 45 41 35 37 41 50 46 43 46 42 42 40 40 42 42 44 40 35 42 48 48 47 46 48 52 52 57 59 56 58 62 59 63
53 53 53 53 53 53 53 53 54 54 54 54 54 54 56 53 47 48 54 52 49 44 35 35 34 35 46 43 45 44 41 36 43 37 40 41 39 35 40 42 44 46 45 48 52 55 55 53 57 55 56 58 59 61
52 52 53 53 53 53 52 53 53 53 53 53 54 53 49 51 56 53 47 43 42 42 40 33 36 34 39 41 41 41 43 38 35 38 40 37 35 41 43 44 45 46 47 49 46 47 52 52 56 55 56 58 60 62
52 53 53 52 52 52 53 53 53 53 53 54 48 49 53 54 50 46 41 39 38 34 36 36 36 35 43 37 39 43 36 35 33 36 34 33 33 40 47 52 52 53 53 56 56 56 52 52 55 55 56 58 62 62
53 52 52 52 52 52 53 54 53 53 51 50 48 50 50 51 47 44 40 41 38 37 42 39 42 40 42 44 42 42 35 35 33 42 36 32 36 44 48 48 49 51 52 54 56 55 54 54 57 57 57 56 57 60
52 52 52 52 52 53 54 53 53 53 52 53 50 49 48 47 36 36 33 36 39 46 50 47 45 48 48 49 45 43 40 38 45 36 32 34 42 44 46 48 48 49 49 50 50 52 53 54 55 54 53 54 57 59
52 52 52 52 52 54 53 53 53 53 56 52 46 37 43 39 40 39 39 41 48 49 48 47 48 45 47 46 46 40 43 43 38 32 32 39 41 43 46 47 47 47 48 48 48 50 51 51 50 50 50 53 55 54
52 52 52 54 54 53 53 53 53 58 57 51 48 37 44 48 49 50 49 47 53 56 52 49 50 50 46 45 43 41 41 35 33 33 38 42 44 44 44 46 47 46 46 47 48 49 49 49 48 47 48 51 53 54
52 53 57 53 53 53 52 56 60 60 56 55 52 47 50 50 50 50 49 49 56 54 57 56 49 47 43 43 39 37 34 34 38 42 43 45 44 44 45 47 48 49 50 50 49 50 51 52 51 49 51 52 52 51
52 57 54 53 53 53 53 63 63 56 54 53 50 52 48 48 47 51 53 53 56 56 49 50 40 39 45 39 37 41 37 39 42 43 45 46 45 45 48 48 48 48 49 51 52 52 53 54 54 52 49 50 51 51
54 56 53 53 53 55 62 61 61 57 51 51 51 52 53 52 50 52 54 56 55 52 52 45 50 38 36 34 36 40 44 46 47 46 46 47 47 47 49 48 49 49 50 51 52 52 53 53 53 53 52 53 53 53
53 54 52 52 54 57 59 59 59 52 54 55 54 54 54 53 55 57 57 57 56 54 53 49 45 40 40 43 44 46 48 49 47 48 50 49 48 48 49 51 51 51 50 50 52 53 52 50 52 55 55 55 52 54
52 53 53 54 55 59 57 56 59 57 54 53 52 56 55 54 56 57 57 56 55 54 49 46 45 47 47 50 49 49 49 50 52 52 51 51 52 51 49 50 50 52 53 53 53 49 54 53 53 52 52 52 51 51
55 58 55 58 60 59 58 56 56 55 55 54 53 55 53 56 55 53 53 57 53 48 47 47 50 52 51 52 52 53 52 52 50 51 49 52 53 53 53 53 54 53 52 52 51 51 49 49 51 52 52 51 52 52
57 54 59 60 59 58 57 56 57 56 56 54 53 54 51 51 52 52 53 52 49 48 49 50 52 52 53 50 50 50 50 50 51 52 48 49 52 52 51 52 52 51 51 50 50 50 49 51 53 53 52 51 51 51
54 56 58 59 57 50 49 55 54 54 51 50 52 51 50 51 51 55 50 52 51 54 54 53 51 51 50 50 51 50 50 50 52 51 51 52 51 52 52 51 52 50 50 50 51 51 50 46 50 53 53 53 52 52
54 56 54 53 52 46 55 53 54 52 52 50 49 47 49 50 52 51 46 51 55 55 55 51 52 53 54 52 52 50 50 52 53 52 51 52 52 50 51 51 52 52 51 52 52 52 52 52 48 53 52 52 51 50
48 48 50 40 52 53 53 52 51 52 48 49 47 48 49 50 47 46 46 51 54 55 55 54 54 53 52 53 53 52 50 51 51 50 49 50 51 53 53 54 52 52 53 53 51 51 51 52 52 51 50 50 48 47
43 52 47 53 52 52 51 50 50 50 51 49 50 50 50 47 45 44 49 53 54 56 56 55 54 54 53 52 52 52 51 52 52 51 49 49 49 49 49 48 49 51 53 53 52 52 51 52 50 48 49 47 41 48
47 53 54 53 53 53 52 54 54 52 50 50 51 49 49 44 45 51 55 55 55 58 57 56 56 55 55 52 51 52 52 52 49 49 50 50 49 49 48 47 47 49 51 52 53 52 52 51 50 49 48 49 49 48
56 54 55 54 53 56 53 53 52 51 53 54 53 48 47 48 51 57 57 57 56 54 53 53 54 56 54 52 53 54 53 53 52 51 51 52 51 50 50 51 51 41 50 51 53 54 53 52 50 49 48 48 48 49
55 57 57 54 55 54 55 56 57 58 58 56 53 52 53 56 58 57 56 56 54 55 54 52 50 52 52 51 52 52 53 51 48 45 42 43 45 47 49 50 51 51 52 53 40 44 49 50 50 50 48 49 49 50
58 58 57 56 55 56 61 61 58 57 58 59 57 55 55 55 56 58 54 53 54 54 56 54 54 53 53 52 52 50 52 52 51 48 44 43 45 48 49 49 49 50 51 52 53 50 41 49 47 51 48 49 48 48
59 58 57 58 58 61 60 59 57 56 54 55 55 54 52 52 54 52 50 52 56 55 54 54 54 54 53 53 51 50 50 52 51 50 51 52 51 50 49 49 50 51 51 51 51 51 50 48 47 46 45 44 44 44
57 57 58 56 59 58 58 58 59 57 55 53 53 53 52 51 50 52 49 51 52 52 50 54 55 55 55 55 54 53 42 54 52 53 49 52 51 50 51 51 51 51 50 50 50 50 47 46 46 45 45 44 44 44
59 59 58 58 57 55 58 56 55 54 54 54 54 54 54 55 51 53 52 54 56 59 57 56 56 55 54 54 53 53 45 53 48 40 39 39 38 42 48 51 51 51 49 49 48 47 45 44 45 44 44 44 44 44

GFSWCAN_sfc_temp_024.txt.gz
Temp
54 55 55 55 55 55 55 55 55 56 56 56 56 57 57 57 57 52 49 49 45 40 46 53 54 48 46 44 39 47 46 47 47 39 43 49 45 50 48 53 51 50 48 49 51 48 46 72 70 62 66 72 74 76
54 54 55 55 55 55 55 55 55 55 55 56 56 56 56 56 56 55 48 49 49 43 45 56 57 57 55 53 46 43 47 48 54 44 44 44 44 48 46 43 58 47 54 53 56 56 65 71 69 72 73 71 72 73
54 54 54 54 54 55 55 55 55 55 55 56 56 56 56 56 56 55 49 47 46 42 43 47 55 63 65 63 62 42 46 51 51 56 47 45 39 50 41 45 49 55 60 53 54 59 62 65 70 72 73 71 74 76
54 54 54 54 54 54 54 55 55 55 55 55 56 56 56 56 56 56 51 48 47 44 38 50 63 59 65 65 62 60 57 56 54 51 43 38 36 51 46 51 50 56 56 53 53 58 62 65 67 69 71 73 74 76
53 54 54 54 54 54 55 55 55 55 55 55 55 55 56 56 55 57 55 51 51 44 38 44 55 62 64 63 60 59 55 52 46 40 38 36 41 42 50 48 46 55 52 51 51 61 60 61 68 67 66 67 70 73
53 53 54 54 54 54 54 54 54 55 54 55 55 55 55 55 55 60 51 55 51 49 41 37 57 56 59 58 56 54 53 51 48 41 42 45 50 42 38 38 55 60 62 61 58 64 64 65 66 67 66 68 72 74
54 53 53 53 54 54 54 54 54 54 54 54 55 55 55 55 57 54 48 50 51 50 40 37 42 56 55 54 52 49 50 46 44 39 38 41 47 42 38 37 51 58 59 58 59 58 55 62 61 66 68 70 71 73
53 53 53 53 54 54 54 54 54 54 54 55 55 55 54 53 53 49 51 51 51 46 42 36 38 42 48 43 42 45 40 40 40 38 39 38 41 39 35 45 49 51 53 53 52 53 55 60 62 60 62 68 64 60
53 53 53 53 53 53 53 53 54 54 54 54 54 55 60 58 51 49 55 52 51 45 36 35 34 35 46 43 45 41 41 35 41 36 38 40 37 33 38 40 41 44 46 46 50 50 53 56 60 59 62 62 55 58
53 53 53 53 53 53 53 53 54 54 53 54 58 62 58 58 55 53 47 44 43 43 40 34 37 34 40 40 41 41 42 37 35 37 38 34 33 38 41 46 50 46 47 49 46 46 49 55 60 61 57 55 57 58
53 53 53 53 53 53 53 53 54 53 53 65 64 61 63 55 50 51 47 40 40 37 38 39 38 37 44 38 39 42 38 36 34 37 35 33 33 39 45 47 49 52 51 51 53 52 55 59 57 55 56 57 59 59
53 53 52 52 52 52 53 53 53 62 62 57 57 54 61 60 56 49 42 44 43 42 49 43 46 42 44 45 42 42 38 39 36 46 38 32 35 43 44 46 47 49 53 53 53 52 55 55 53 54 53 53 55 55
53 52 52 52 52 53 53 53 53 54 55 64 58 54 57 52 38 36 33 38 41 51 54 53 48 51 55 50 51 52 45 42 52 40 33 34 41 44 44 45 47 49 49 50 50 51 49 49 49 50 50 51 53 53
52 52 52 52 53 53 53 53 54 56 64 62 55 38 48 46 43 41 42 47 54 56 60 60 54 52 56 50 49 45 50 52 42 33 33 39 44 46 46 47 47 46 47 48 48 49 48 48 48 50 51 54 55 53
52 52 52 56 54 53 53 53 55 73 68 58 58 41 48 54 59 60 60 59 62 64 63 63 64 64 56 51 51 47 43 35 35 34 41 46 48 48 49 49 50 49 49 48 48 49 49 49 48 47 48 49 51 54
52 53 63 54 53 53 53 63 73 73 66 62 58 55 58 57 58 61 60 60 65 66 68 66 56 51 51 49 39 37 36 33 36 43 48 51 49 51 52 53 54 54 55 55 55 54 55 56 54 51 52 50 49 52
51 69 54 53 53 53 56 73 73 64 62 58 58 63 61 59 58 60 62 61 67 64 58 58 45 39 48 41 37 39 36 39 42 47 50 50 51 54 56 55 56 58 58 56 57 58 56 58 59 58 56 56 57 56
66 67 56 53 55 64 75 73 69 64 56 63 58 59 62 62 60 62 63 64 62 60 59 53 58 46 40 37 41 47 47 49 51 49 50 52 52 53 56 56 57 56 56 58 59 60 61 60 60 60 58 58 59 58
60 58 54 53 56 66 69 67 69 60 62 66 66 66 65 63 64 65 65 65 66 66 64 59 50 45 48 54 53 55 57 57 56 56 54 53 55 56 56 58 58 58 58 58 58 60 61 59 60 62 63 62 59 60
52 53 53 54 57 70 64 65 69 65 62 63 66 65 64 62 64 64 64 64 63 60 56 52 52 54 55 57 59 58 59 60 60 57 58 60 61 59 57 58 59 59 60 59 61 53 61 60 61 60 60 59 58 57
58 64 58 63 72 71 69 68 66 65 67 64 66 65 64 67 62 60 60 64 59 56 53 57 58 60 60 60 61 61 59 59 58 57 56 57 60 61 60 60 60 61 59 58 58 57 55 57 59 60 59 58 59 59
68 55 69 69 69 67 67 68 66 67 65 65 65 65 62 61 60 60 64 59 56 57 59 58 59 59 61 56 57 58 57 57 58 59 53 55 57 57 57 58 58 57 58 57 58 57 57 59 60 60 60 59 57 57
58 62 69 68 63 56 54 68 61 63 57 60 63 59 59 61 61 64 59 61 60 62 62 61 59 58 57 59 59 58 58 57 58 58 57 58 61 59 59 58 58 56 55 56 59 58 57 50 56 59 60 59 59 58
53 64 61 62 62 53 65 62 65 63 62 60 57 53 57 59 63 61 55 60 62 65 63 59 61 61 62 58 60 58 58 60 59 59 58 57 57 58 58 58 59 59 58 59 59 58 58 58 51 58 57 57 56 55
52 52 57 41 62 60 58 59 59 60 55 57 54 56 58 60 56 55 54 60 63 63 63 63 62 61 58 60 62 60 58 59 57 56 57 57 56 58 59 61 61 59 60 58 57 57 57 58 57 56 55 55 53 53
44 59 50 61 61 59 60 55 56 57 58 56 57 62 62 57 51 50 59 63 64 65 64 62 60 60 60 60 58 58 58 60 58 56 56 57 56 55 54 54 54 56 59 58 57 56 56 56 55 53 54 51 43 51
51 59 65 67 66 64 62 64 64 61 56 56 61 57 58 50 51 59 64 65 65 65 65 65 64 62 60 60 61 61 61 60 56 55 57 57 58 57 55 52 51 54 57 58 58 57 55 55 55 54 54 56 55 53
65 64 60 64 63 67 60 62 59 57 62 67 64 55 54 55 57 65 68 67 70 66 65 64 64 65 64 62 63 63 62 62 61 60 60 58 60 59 56 57 58 42 55 56 56 58 56 56 54 54 53 53 54 55
64 69 67 62 64 65 63 63 65 71 72 67 62 62 63 68 69 68 65 65 65 63 60 59 61 64 63 62 62 63 61 59 54 50 48 51 52 53 56 57 57 58 58 58 37 45 51 53 53 53 53 53 53 53
67 71 65 64 61 63 70 73 70 73 73 71 70 67 67 69 68 68 64 58 51 56 56 61 61 60 61 60 60 59 62 61 58 54 50 49 51 55 56 55 56 57 58 58 56 54 42 49 48 51 50 50 50 50
73 69 65 67 66 71 72 74 72 69 68 68 69 64 65 66 65 65 63 58 60 62 59 59 60 65 63 61 58 56 58 59 57 56 56 58 58 56 55 55 56 56 55 53 52 51 51 49 49 48 47 47 47 47
69 66 66 63 68 72 69 69 70 68 69 65 67 68 67 64 58 59 61 63 63 63 54 60 64 60 62 63 61 61 39 61 59 60 55 58 57 56 56 56 56 55 53 52 51 50 48 48 47 47 47 46 47 47
69 70 67 67 67 64 70 66 65 63 65 64 64 65 65 63 56 58 62 64 65 66 65 64 63 62 60 59 58 58 48 62 50 41 43 40 38 42 51 55 56 55 51 50 50 50 47 46 46 46 46 46 46 46

GFSWCAN_sfc_temp_027.txt.gz
Temp
55 55 55 55 55 55 55 55 55 56 56 56 57 57 57 57 57 54 51 51 46 41 45 53 56 48 51 49 42 52 51 54 53 44 46 48 50 54 52 58 56 54 52 53 55 52 51 78 77 66 67 73 73 75
55 55 55 55 55 55 55 55 55 55 55 56 56 56 56 57 56 56 49 51 50 44 46 59 60 61 60 57 50 49 51 51 51 47 45 47 50 53 52 47 63 51 58 57 59 60 70 75 73 78 77 73 74 75
54 55 55 55 55 55 55 55 55 55 55 56 56 56 57 56 56 55 51 49 47 42 44 48 55 63 68 64 64 43 51 55 54 58 50 51 43 54 44 51 54 59 64 59 59 64 67 71 75 76 75 75 76 77
54 54 55 55 55 55 55 55 55 55 55 55 56 56 56 56 56 56 52 49 48 45 38 50 68 61 67 66 64 61 58 57 56 58 46 46 42 57 49 51 52 59 61 58 59 63 66 68 71 73 74 76 75 77
54 54 54 54 54 54 55 55 54 55 55 55 55 56 56 56 56 59 55 54 54 45 40 44 57 64 66 65 61 60 56 53 50 44 43 43 52 50 55 54 52 61 57 54 54 64 64 64 71 73 71 72 73 73
54 54 54 54 54 54 54 54 54 55 55 55 55 55 56 56 54 59 50 54 54 50 42 39 59 55 59 61 57 56 56 53 50 43 43 46 53 45 39 43 57 61 63 63 60 66 66 69 72 74 72 73 72 73
54 54 54 54 54 54 54 54 54 55 55 55 55 55 55 56 64 55 52 57 53 51 42 38 41 51 54 53 50 48 50 45 43 40 38 39 41 41 37 38 53 56 56 59 62 59 59 65 62 71 71 72 70 73
53 53 53 53 54 54 54 54 54 54 55 55 55 55 55 54 54 56 57 53 53 47 44 36 38 42 48 43 42 45 41 41 39 37 38 37 39 38 34 43 46 47 49 53 59 61 60 64 65 65 66 67 69 69
53 53 53 54 54 53 53 54 54 54 54 54 56 55 62 56 55 51 54 53 52 47 37 36 34 35 45 43 45 42 40 36 40 36 36 37 36 33 37 36 37 41 42 45 56 55 56 59 61 61 63 65 64 63
53 53 53 53 53 53 53 53 54 54 54 55 58 58 55 61 56 54 48 46 44 44 42 36 40 35 41 41 41 42 40 38 36 39 39 34 33 38 40 46 50 52 47 48 47 46 48 49 56 58 59 66 65 66
53 53 53 53 53 53 53 54 54 54 55 64 68 65 66 57 52 53 53 51 51 45 45 45 42 39 46 39 40 43 39 39 35 41 39 34 33 38 44 46 50 54 55 54 53 53 54 53 55 57 62 66 67 60
53 53 53 52 52 53 53 54 54 64 70 61 64 64 70 61 61 56 49 54 51 49 57 53 57 48 48 46 42 48 46 46 40 54 41 33 37 44 45 46 48 49 50 49 52 51 52 54 59 57 54 55 54 53
53 52 52 52 53 53 54 54 54 54 55 69 66 59 60 59 44 40 35 41 43 55 60 59 59 63 58 51 53 55 51 47 60 45 33 37 45 47 47 49 49 50 49 49 49 49 49 50 52 52 51 52 53 52
52 52 53 53 53 54 54 54 54 57 62 69 61 41 53 50 52 49 51 55 63 64 64 62 60 67 66 59 59 46 56 54 41 33 34 43 47 51 52 53 52 51 51 50 48 48 48 48 47 49 51 51 51 49
52 52 53 56 55 54 54 54 55 68 74 64 63 46 54 62 66 66 68 67 69 72 70 63 65 68 61 55 53 52 46 37 37 35 43 51 51 54 55 56 56 56 57 55 54 50 49 48 48 48 51 51 53 54
52 53 65 55 54 54 54 65 76 80 73 68 65 61 66 64 65 67 66 65 71 71 68 66 60 56 55 54 43 39 37 34 37 48 55 57 54 55 56 57 56 58 59 60 60 59 58 54 52 52 53 54 53 53
50 75 55 55 54 54 57 76 78 69 67 64 64 70 67 65 64 66 67 67 72 68 63 63 51 48 56 50 41 42 37 39 54 56 57 55 54 56 58 59 58 58 58 59 59 61 61 62 61 59 56 57 59 59
72 74 57 54 55 67 81 78 74 70 62 68 64 66 68 68 65 67 69 70 68 65 64 58 62 51 46 42 45 52 54 51 57 61 61 58 58 58 60 59 60 59 59 59 60 61 62 62 61 62 62 62 61 61
64 60 54 52 57 65 73 73 74 66 67 72 73 72 70 69 70 70 70 70 70 71 67 63 51 47 48 53 53 58 60 60 59 59 61 60 61 61 60 61 62 61 61 61 60 62 62 61 63 64 65 64 62 63
52 52 53 55 58 74 68 71 75 70 66 68 73 69 68 68 70 70 69 69 68 66 60 57 57 59 60 61 62 62 62 62 62 60 61 63 65 63 61 62 62 63 64 63 64 55 64 64 64 63 63 61 61 59
56 66 60 65 78 77 74 73 72 70 72 66 71 70 68 72 68 66 66 69 64 61 59 62 63 64 63 63 64 63 62 61 60 60 58 59 62 64 63 63 63 64 63 63 62 61 59 62 63 64 63 63 63 63
74 57 73 72 74 73 73 76 71 72 70 70 70 70 67 64 65 64 68 66 62 63 63 63 62 63 63 60 61 61 60 60 62 62 55 58 61 61 61 62 62 61 61 61 62 61 61 62 62 64 63 63 62 62
59 65 74 74 68 59 59 76 66 68 62 64 68 64 65 65 67 69 65 67 66 69 68 65 62 63 61 63 62 63 61 60 62 63 62 62 63 65 63 63 63 60 60 61 63 62 61 52 59 61 63 63 62 61
53 69 67 67 68 57 72 67 72 69 69 65 64 58 62 64 68 65 61 66 67 70 67 62 66 64 65 61 64 64 62 63 63 63 64 61 60 61 63 64 64 63 62 64 63 62 62 61 54 61 61 60 60 59
54 56 59 42 68 64 63 64 64 66 60 63 60 62 65 68 61 61 59 66 69 68 68 69 67 66 64 64 64 65 63 64 61 59 62 61 61 61 62 64 65 63 64 61 61 61 60 61 61 59 59 57 55 57
43 64 53 66 68 64 66 60 62 62 64 61 63 68 68 63 56 55 64 66 68 66 66 66 64 63 64 65 63 62 62 64 62 59 60 61 60 58 57 57 58 57 62 62 61 59 59 59 59 57 58 55 44 55
51 64 72 76 72 71 68 72 73 68 61 61 65 63 61 53 55 62 69 70 68 66 63 65 63 62 63 65 66 65 65 65 60 59 63 62 62 61 59 56 55 57 60 61 61 60 57 57 57 57 57 58 58 56
70 71 65 70 70 72 65 66 64 62 65 72 68 58 56 57 57 69 70 70 69 63 57 65 60 66 63 63 66 65 65 66 67 64 66 64 64 63 61 62 61 44 58 60 59 59 58 57 56 55 55 55 55 55
69 72 74 67 69 68 68 66 68 69 75 72 64 63 65 72 73 74 71 72 70 66 65 63 64 69 65 67 66 68 66 64 59 54 52 56 56 58 62 62 61 62 62 59 41 49 54 55 55 55 55 55 54 57
68 79 70 67 66 66 68 76 74 78 78 76 75 73 73 72 73 75 71 68 67 68 69 64 69 66 64 65 64 65 68 66 63 58 55 54 56 60 59 59 59 59 59 59 57 56 44 52 51 55 54 55 53 54
79 76 71 70 68 73 77 79 80 81 78 74 76 72 70 71 69 69 70 70 71 72 69 68 70 70 66 64 61 60 61 64 61 59 59 61 60 58 58 58 59 58 56 55 56 54 54 52 52 50 50 49 49 49
72 70 70 67 71 78 79 76 75 73 75 72 71 73 72 69 59 65 68 71 71 69 53 62 67 65 66 66 65 64 43 63 65 63 58 60 58 58 59 59 59 58 56 55 55 54 52 51 52 49 48 48 49 48
74 74 73 72 71 70 76 73 70 68 70 70 68 68 70 66 59 64 70 71 69 69 68 68 68 66 63 63 62 63 50 63 51 42 43 41 39 44 53 58 58 56 54 54 53 51 50 49 49 48 48 49 49 49

GFSWCAN_sfc_temp_030.txt.gz
Temp
55 55 56 56 56 56 56 56 56 56 56 56 57 57 57 57 57 54 51 51 46 41 44 50 53 48 49 51 43 52 51 50 46 39 41 40 42 51 53 55 52 54 50 51 55 52 49 72 74 64 66 71 73 74
55 55 55 55 55 55 56 56 56 55 56 56 56 57 57 57 57 56 49 52 50 44 46 55 54 57 57 57 50 52 49 51 53 44 44 47 46 50 48 45 60 52 58 55 58 59 68 72 71 75 76 72 73 73
54 55 55 55 55 55 55 55 55 55 56 56 56 57 57 56 56 55 52 50 48 43 44 46 51 60 62 62 66 47 53 55 54 56 51 50 44 54 44 50 48 53 62 57 58 63 65 70 74 76 76 74 73 76
54 54 55 55 55 55 55 55 55 55 55 56 56 56 56 56 56 56 52 50 48 45 38 47 64 58 65 66 63 63 58 58 58 57 49 46 42 56 49 52 52 58 59 56 56 63 66 68 71 72 73 74 73 75
54 54 54 54 54 54 55 55 55 55 55 55 56 56 56 56 56 59 55 53 53 45 40 44 56 61 60 61 61 63 60 56 53 47 46 42 50 49 54 54 51 60 56 53 52 62 61 63 69 74 72 72 73 72
54 54 54 54 54 54 55 55 55 55 55 55 55 56 56 56 56 59 49 55 55 50 42 38 54 52 55 56 58 54 49 48 47 42 41 44 52 42 39 43 56 61 61 58 52 57 59 64 68 71 70 72 75 75
54 54 54 54 54 54 54 54 55 55 55 55 55 56 56 57 61 58 53 57 54 52 42 38 39 50 50 51 48 47 48 45 42 39 37 39 40 41 36 35 48 52 54 55 57 57 55 60 61 68 69 71 70 72
54 54 53 53 54 54 54 54 54 55 55 55 55 56 56 52 53 57 59 55 56 48 45 37 39 43 48 43 42 45 41 41 40 37 38 37 39 38 33 40 42 43 44 45 48 54 56 60 62 65 68 69 67 67
53 53 53 53 54 54 53 54 54 55 55 55 57 56 62 57 55 56 55 54 57 51 41 39 36 38 48 44 45 43 41 37 41 36 35 35 34 32 34 34 44 47 46 46 48 49 54 54 59 63 65 65 65 65
53 53 54 54 53 53 53 53 54 54 54 56 59 62 56 63 56 56 51 47 47 49 47 41 44 43 44 44 42 42 40 39 36 41 38 33 32 42 45 47 47 48 52 50 46 48 50 55 58 61 63 65 65 65
53 53 53 53 53 53 53 54 54 54 55 63 64 66 63 57 59 53 56 55 59 53 54 54 49 48 51 43 43 46 42 41 37 46 42 34 34 41 47 47 49 49 50 52 56 56 57 57 56 57 59 61 63 63
53 53 53 53 53 53 54 54 54 59 72 62 67 68 65 62 62 58 52 58 55 50 62 58 53 55 57 52 43 48 47 47 42 55 42 33 39 47 48 49 49 49 49 49 49 50 52 52 53 53 56 53 53 53
52 52 52 52 53 54 54 54 54 56 54 71 66 65 63 62 45 48 36 45 52 59 65 66 56 53 60 57 54 56 53 50 58 44 33 37 46 50 50 51 51 51 50 49 48 48 49 49 50 50 50 52 52 51
52 52 52 52 53 54 55 55 56 58 62 69 63 40 57 55 59 60 60 57 64 66 65 63 61 61 67 61 59 50 56 54 43 33 35 43 49 51 54 54 53 52 52 49 48 48 48 47 47 47 49 51 50 48
52 52 52 56 55 55 55 55 56 66 72 66 66 46 59 68 70 70 70 68 70 72 69 58 65 65 62 57 58 53 48 39 41 38 44 49 52 54 54 55 56 55 55 53 53 50 49 48 48 47 48 47 49 50
52 53 66 54 55 55 54 63 68 79 75 71 68 63 67 65 66 68 67 66 72 72 73 69 60 55 53 56 48 41 39 35 44 47 54 56 54 54 55 56 57 58 57 58 58 56 56 53 50 49 49 49 48 48
51 74 55 55 54 54 58 73 80 70 70 68 67 72 69 67 65 67 68 68 73 69 63 65 52 51 56 49 44 49 41 47 53 53 59 57 53 56 58 59 60 59 58 58 59 58 59 59 58 56 53 55 57 56
67 75 58 54 55 66 82 80 76 73 65 70 67 68 70 70 67 68 70 71 69 66 65 59 61 51 46 44 48 54 57 61 61 61 61 60 58 60 61 59 61 61 60 59 59 61 60 59 58 58 58 58 58 57
62 60 54 52 56 63 74 75 75 68 71 72 72 74 72 71 72 72 72 72 72 72 68 63 56 53 52 57 56 58 60 59 59 61 61 62 61 62 61 61 62 62 62 61 60 62 62 60 60 61 62 61 58 58
52 52 53 54 57 72 71 73 77 71 69 69 71 70 70 71 73 72 71 71 69 67 61 59 58 60 59 61 62 61 61 61 60 59 60 62 64 63 62 62 62 63 64 63 62 57 63 63 63 62 62 60 59 58
62 68 61 67 76 76 74 73 71 72 72 67 71 70 69 73 70 68 68 72 66 61 59 62 62 64 64 63 65 63 61 60 58 60 59 59 62 64 64 64 64 64 63 62 62 61 59 60 62 64 63 62 61 61
75 59 74 75 74 75 73 77 72 74 69 68 69 71 66 64 65 66 69 66 64 64 64 63 62 63 63 60 61 62 61 60 61 63 54 59 61 62 62 63 63 61 62 61 62 61 61 61 61 63 63 62 61 61
63 67 74 76 69 60 58 77 67 70 63 65 68 64 64 66 68 72 64 68 67 69 68 66 64 64 63 64 65 63 63 61 62 63 63 63 63 64 64 64 64 61 60 61 63 63 61 54 59 62 62 62 61 61
55 70 69 69 68 56 73 68 73 69 69 66 64 60 62 63 69 62 61 66 68 70 67 64 67 66 66 62 65 65 64 65 64 64 64 62 60 61 63 64 65 64 63 63 63 62 62 61 55 61 60 59 59 59
55 56 58 41 68 67 66 66 67 67 62 65 62 61 63 68 59 60 60 65 67 66 64 63 61 62 60 63 66 65 65 65 61 59 62 62 61 61 62 63 62 63 64 61 60 61 61 61 61 60 59 57 56 57
43 65 51 68 68 66 67 63 65 65 66 64 65 63 66 62 57 53 59 65 66 64 61 60 62 59 59 64 63 63 63 65 62 59 60 62 61 59 57 57 58 57 62 62 61 59 59 59 59 58 58 55 46 56
49 66 72 77 73 72 68 71 71 60 51 58 65 65 59 45 54 62 69 72 68 65 66 68 67 63 61 65 65 67 67 67 63 62 64 64 64 63 60 57 55 56 60 61 61 59 58 58 58 57 57 57 56 56
71 72 66 70 69 74 65 57 55 60 58 65 69 60 56 56 57 65 70 71 69 69 70 70 68 66 68 66 67 67 66 67 67 67 66 65 65 64 62 63 62 45 59 59 58 59 58 57 56 56 56 54 55 56
61 58 65 63 67 70 67 62 65 70 74 70 66 65 67 62 55 67 69 72 73 70 63 63 68 69 70 69 68 68 68 66 60 56 55 56 57 58 62 61 61 61 60 58 42 49 53 55 55 54 55 55 56 57
66 65 66 71 68 67 68 76 70 79 79 77 76 74 68 69 69 73 71 71 70 62 65 69 69 69 67 66 65 65 68 67 64 59 56 54 56 60 60 59 58 59 59 58 56 55 45 52 50 55 54 54 54 53
78 76 72 72 71 73 76 81 82 81 76 73 77 70 67 63 60 70 71 71 70 71 69 68 68 68 65 65 63 60 60 64 62 61 61 61 60 60 59 59 59 59 58 57 55 55 54 53 53 52 51 50 50 50
76 72 72 69 72 79 81 78 77 75 75 73 73 75 70 65 59 67 69 71 70 69 58 65 67 64 66 66 65 64 44 63 62 61 59 59 58 58 59 59 59 57 56 56 54 53 53 52 51 50 50 50 50 50
75 76 76 74 72 72 77 75 72 71 70 65 57 65 70 67 60 66 72 72 69 69 68 68 68 67 65 65 63 64 51 58 48 41 42 42 40 44 54 58 57 56 55 53 52 51 51 50 50 50 50 50 50 50

GFSWCAN_sfc_temp_033.txt.gz
Temp
54 55 55 55 55 55 56 56 56 56 56 56 57 57 57 57 57 54 51 51 46 40 43 47 48 43 43 43 39 45 43 45 42 36 35 34 35 42 42 46 38 45 43 43 47 45 39 63 65 54 59 64 65 65
54 55 55 55 55 55 55 55 55 55 55 56 56 57 57 57 56 56 49 52 51 44 44 50 50 52 50 49 44 46 42 43 46 40 39 41 40 43 43 34 48 39 43 40 47 46 58 59 60 67 68 65 64 62
54 54 55 55 55 55 55 55 55 55 55 56 56 57 57 56 56 55 51 50 48 43 43 45 48 53 53 52 57 44 48 52 48 50 45 42 39 45 38 41 44 51 53 45 48 55 57 61 66 67 67 66 66 66
54 54 55 55 55 55 55 55 55 55 55 55 56 56 57 57 56 56 52 50 48 44 38 45 58 52 60 62 59 57 55 55 53 50 43 42 39 46 39 43 43 48 50 49 48 54 55 58 58 61 64 67 69 67
54 54 54 54 54 54 55 55 55 55 55 55 56 56 56 56 56 57 52 51 52 45 39 42 51 54 57 57 55 56 54 52 49 43 41 38 43 41 44 44 42 50 46 42 39 49 47 50 56 59 59 62 64 65
54 54 54 54 54 54 55 55 55 55 55 55 55 56 56 56 56 55 47 52 54 51 43 37 49 50 54 54 52 49 48 46 45 41 40 42 47 41 36 34 46 49 48 47 43 50 50 52 56 59 60 62 65 63
54 54 54 54 54 54 54 54 54 55 55 55 55 56 57 57 57 54 50 53 55 54 43 39 42 50 52 52 48 46 47 43 42 39 36 37 38 40 35 32 41 43 45 45 46 46 44 50 50 58 59 60 64 64
54 54 54 54 54 54 54 54 54 55 55 55 55 57 54 54 52 55 55 55 56 50 47 41 42 46 50 45 42 45 41 41 39 38 38 36 38 36 32 38 42 46 47 48 49 49 47 49 52 54 57 59 60 60
53 53 53 53 53 54 54 54 54 55 55 55 57 57 57 57 55 55 56 55 56 50 43 42 39 40 48 45 45 42 42 37 41 36 36 35 33 32 36 39 42 44 45 46 48 50 50 47 49 52 55 56 57 57
53 53 53 53 53 53 53 54 54 54 55 56 57 57 55 57 56 56 51 47 47 49 49 42 47 43 47 44 43 42 41 40 36 40 38 34 32 43 45 44 45 45 47 48 47 44 46 47 48 52 54 57 57 57
53 53 52 53 53 53 53 54 54 54 55 58 59 60 58 57 56 52 51 51 55 47 49 48 45 47 51 44 44 46 42 41 35 40 39 34 33 42 48 47 47 47 47 48 49 50 50 50 50 52 54 56 55 55
53 52 52 52 52 52 53 54 54 56 65 59 56 65 60 55 55 55 49 53 53 48 57 50 49 49 50 51 44 46 43 42 38 48 37 32 39 46 48 48 48 48 47 46 48 48 48 47 50 53 53 53 52 51
53 52 52 52 52 53 54 54 55 55 55 66 61 61 56 55 46 46 34 42 50 59 61 54 53 53 52 53 48 49 48 45 53 40 33 37 44 48 49 50 49 50 49 47 46 47 48 47 48 48 48 50 50 48
53 52 52 52 52 53 55 55 56 57 61 59 59 42 52 52 56 56 56 56 62 62 63 61 57 58 58 54 55 48 51 49 39 33 34 41 46 49 51 52 51 50 50 48 47 47 46 46 46 47 46 48 48 47
52 52 52 55 55 55 55 55 57 60 61 63 63 42 56 63 65 65 65 63 64 67 64 59 60 60 56 53 53 48 44 37 38 36 42 45 48 49 50 52 52 52 52 50 49 48 47 46 46 45 46 46 46 46
53 53 63 56 54 55 54 59 59 66 70 67 66 61 63 61 61 63 63 61 66 66 66 63 56 53 51 50 46 40 37 34 41 45 49 50 49 50 50 51 52 53 53 54 52 51 50 48 47 46 47 47 46 46
52 67 55 55 54 54 57 69 73 70 68 66 63 68 65 63 61 63 64 64 67 63 56 58 50 47 54 47 44 47 42 45 49 52 51 51 51 51 52 52 53 54 53 53 54 53 52 54 53 52 50 50 49 49
60 70 59 55 54 61 74 72 73 70 65 68 63 66 65 65 63 64 65 66 63 61 59 55 58 50 46 43 45 50 52 53 54 53 53 54 54 54 55 53 54 53 54 54 53 55 53 53 52 51 51 52 53 52
58 56 54 53 54 57 68 73 72 63 66 69 68 66 67 65 66 67 67 65 65 65 62 58 54 49 49 52 51 53 53 52 52 54 55 56 55 54 55 55 54 53 54 53 53 53 53 53 53 54 54 53 51 52
52 53 54 54 55 66 68 70 74 67 64 66 69 66 67 64 66 68 67 66 63 61 57 54 53 55 54 54 55 54 54 54 53 52 53 54 55 55 57 54 54 54 55 56 55 53 55 55 56 54 54 53 51 50
62 67 61 60 69 65 71 69 65 69 68 65 67 67 66 69 62 63 64 66 61 57 55 57 57 58 58 58 58 57 54 54 52 53 53 53 55 57 56 56 56 56 54 55 56 54 53 52 53 55 54 53 53 53
70 62 71 72 70 73 69 73 68 69 67 66 65 68 63 61 63 63 65 62 59 60 59 58 57 58 57 57 57 58 56 56 55 56 53 55 55 55 56 57 56 54 54 54 54 54 52 53 53 56 54 53 53 53
63 64 70 72 68 54 53 72 66 68 61 64 66 63 63 61 63 67 60 62 61 63 62 61 59 59 58 59 60 58 58 56 56 56 56 57 57 56 57 57 58 55 53 54 56 56 53 52 54 55 54 54 54 53
56 67 65 65 64 52 70 65 68 67 66 62 59 59 62 60 64 59 57 56 62 63 61 59 61 59 59 59 58 57 57 58 58 57 57 56 55 54 56 58 58 57 56 56 56 56 56 54 52 54 53 52 53 52
52 52 55 39 64 64 64 65 65 49 46 49 52 60 60 60 44 48 55 59 62 61 60 61 61 59 58 58 60 58 58 59 56 54 55 56 55 56 56 57 55 56 58 55 55 55 54 55 54 54 54 52 51 52
41 61 51 65 67 65 65 60 57 50 52 51 58 65 61 49 45 48 54 58 59 61 61 61 60 59 59 60 58 58 58 60 57 55 55 57 56 54 52 51 51 51 56 55 55 54 54 55 55 54 53 52 47 52
46 61 67 72 71 69 53 54 60 58 57 53 59 62 59 52 46 44 50 57 58 63 64 64 62 61 60 61 61 61 62 61 57 57 59 58 59 57 55 52 50 51 55 56 55 54 53 53 53 53 52 52 52 51
67 62 61 64 63 68 57 56 55 52 56 63 64 60 58 55 48 51 54 64 65 67 64 64 65 65 65 64 64 63 62 63 62 61 61 60 60 59 57 57 55 48 51 51 52 53 53 53 52 52 52 50 50 52
66 66 64 61 64 66 58 61 61 64 68 68 63 62 60 60 59 60 63 67 70 66 64 64 65 67 67 66 64 65 64 63 57 53 52 52 53 54 57 57 57 56 55 54 45 48 50 50 50 50 52 52 51 51
67 69 64 66 63 61 67 73 70 75 74 75 68 60 59 58 61 61 63 68 64 65 66 66 66 65 63 62 61 61 62 62 59 55 52 50 52 56 56 55 55 55 54 54 53 53 47 48 49 51 51 50 49 49
75 71 67 68 65 72 77 79 75 78 68 57 57 53 54 55 60 65 68 68 69 68 67 65 63 63 62 60 57 56 55 59 58 57 57 57 57 55 55 55 56 55 54 54 53 52 51 50 50 49 49 48 49 48
75 72 70 67 70 77 79 75 75 73 70 63 56 57 59 53 56 61 67 68 66 65 58 62 61 59 62 63 62 60 50 55 54 54 53 53 52 52 54 55 56 55 54 52 52 50 50 49 49 48 48 48 49 48
73 74 74 72 68 70 74 74 72 70 67 63 59 57 56 62 57 63 69 69 66 66 64 64 64 63 61 61 56 54 52 51 45 41 41 40 40 44 52 52 52 53 52 51 50 50 49 50 48 48 48 48 48 48

GFSWCAN_sfc_temp_036.txt.gz
Temp
54 55 55 55 55 55 55 55 55 55 56 56 57 57 57 57 57 53 50 50 45 40 43 46 47 42 43 41 37 42 41 38 36 34 34 33 33 36 36 37 36 35 35 36 41 37 35 55 55 47 54 61 62 62
54 54 54 55 55 55 55 55 55 55 56 56 56 56 57 56 56 55 48 51 51 44 43 49 50 50 48 47 43 43 38 36 41 34 36 36 33 37 37 32 45 34 38 36 38 39 49 52 49 57 58 59 61 61
54 54 54 55 55 55 55 55 55 55 55 56 56 57 57 56 56 55 50 50 48 43 44 43 46 53 52 50 51 41 43 47 40 41 38 39 36 39 33 37 41 45 50 41 42 46 48 50 52 55 58 57 64 64
54 54 55 55 55 54 55 55 55 55 55 55 56 57 57 56 56 56 50 50 48 44 38 43 56 51 58 57 52 51 47 50 48 41 36 35 32 38 35 38 37 43 45 40 41 43 49 53 54 53 55 59 62 64
54 54 54 54 54 55 55 55 55 55 55 55 56 56 56 56 56 54 51 49 49 45 39 41 46 51 55 55 52 52 46 44 40 37 39 36 40 38 35 35 37 45 39 36 35 42 39 44 52 54 53 55 60 59
54 54 54 54 54 54 55 54 54 55 55 55 55 56 56 56 56 52 46 50 50 46 40 37 45 46 47 47 46 44 44 42 44 40 38 40 44 37 33 29 40 45 45 45 41 47 47 46 48 51 52 56 60 59
54 54 54 54 54 54 54 54 55 55 55 55 55 56 56 57 49 46 44 48 52 48 40 37 39 45 46 44 43 42 44 42 41 38 36 37 37 39 35 32 39 43 46 48 49 47 45 47 45 52 54 59 59 59
54 54 53 53 54 54 54 54 55 55 55 55 55 56 54 54 51 47 47 53 50 43 42 37 39 41 47 42 40 43 39 40 39 38 38 36 38 35 32 39 42 44 46 48 48 48 47 49 51 51 51 53 55 55
53 53 53 53 53 53 53 54 55 55 54 55 56 56 52 48 47 46 56 55 48 45 40 40 37 38 44 40 39 40 40 37 40 37 36 36 33 32 38 39 41 43 42 44 48 50 49 49 50 49 48 51 50 52
53 53 53 52 52 52 52 53 54 54 54 56 51 49 48 49 57 55 48 45 45 44 41 40 45 39 43 43 42 41 41 39 35 38 38 34 33 42 45 46 45 45 45 45 43 43 45 46 48 47 49 50 51 51
53 53 53 53 52 52 51 53 54 54 54 48 48 48 48 57 48 49 44 41 42 38 41 41 42 41 46 42 42 43 39 40 34 33 34 33 33 41 46 46 47 46 46 46 46 46 46 47 49 47 49 50 49 49
53 53 52 53 52 52 52 53 53 49 51 51 50 53 49 46 46 44 40 44 42 41 46 46 45 45 44 44 41 43 41 38 31 39 36 32 38 44 45 46 48 48 47 47 47 46 46 46 47 48 48 47 47 48
53 53 52 52 52 53 53 53 54 54 52 51 51 48 48 48 41 41 33 37 40 47 54 50 46 46 44 43 41 43 40 36 42 33 32 36 41 42 44 46 48 49 49 47 46 47 47 46 46 46 45 47 48 47
53 53 53 53 52 53 54 55 55 54 50 50 49 41 44 43 47 46 44 44 49 49 51 52 48 46 46 44 43 40 42 40 34 32 33 39 40 41 43 46 46 48 47 47 46 46 45 45 45 45 46 46 46 45
52 53 53 52 55 55 54 54 55 51 52 50 51 40 46 50 50 51 51 50 52 53 51 48 48 49 44 44 41 40 38 30 30 32 36 40 42 42 44 45 45 46 48 46 46 46 46 46 44 44 45 45 45 45
52 52 56 56 54 54 54 53 52 53 55 54 53 49 50 49 48 50 50 49 52 51 50 49 44 43 45 41 38 34 33 30 37 40 41 44 45 44 43 45 46 47 49 48 46 47 47 46 45 44 46 45 45 44
52 53 55 54 53 54 55 58 58 58 57 58 55 54 51 50 49 49 50 51 52 50 44 45 41 39 43 39 36 38 34 37 40 44 42 44 44 44 45 46 47 47 46 46 47 46 48 49 48 47 45 46 47 47
50 56 57 54 52 53 59 59 60 60 59 55 52 53 52 52 50 51 52 52 51 48 47 45 46 41 37 36 36 39 40 41 41 42 43 44 46 46 48 45 47 46 47 47 49 48 48 48 47 46 47 49 49 49
51 52 52 52 52 50 56 61 61 57 59 57 55 53 53 55 55 54 53 53 52 51 49 46 43 39 38 40 40 41 41 40 41 43 45 48 46 46 48 48 48 46 46 47 47 48 46 46 46 47 47 48 47 48
51 52 53 53 53 54 58 57 60 57 54 54 54 54 57 54 53 53 52 52 50 48 46 43 42 43 42 43 44 43 43 43 42 42 42 45 46 47 47 47 45 45 45 46 47 48 49 47 47 47 48 48 47 46
55 60 57 54 54 54 56 55 55 56 55 53 56 55 53 57 53 49 50 51 48 45 43 45 45 46 47 47 47 46 45 45 44 43 42 42 45 45 46 47 46 45 44 43 44 44 44 43 43 46 47 46 47 47
54 60 58 58 59 61 56 58 56 57 54 54 55 55 52 50 48 48 50 48 46 47 49 47 46 47 47 47 47 48 49 50 46 45 47 45 44 44 45 46 48 46 45 43 44 43 43 43 44 45 46 45 46 46
56 57 58 62 59 50 51 57 55 57 53 52 52 49 49 48 52 54 49 50 48 50 50 49 49 50 49 50 50 48 50 47 44 44 45 44 43 44 44 46 47 47 47 46 45 45 44 45 45 45 46 49 47 45
56 57 56 55 54 48 57 55 58 52 50 50 49 48 49 49 50 47 47 47 50 52 51 51 49 48 48 49 46 47 47 48 48 45 43 44 42 43 45 46 46 47 45 46 46 47 45 45 45 44 44 45 46 45
47 48 49 39 52 54 56 57 48 46 46 47 46 46 48 49 42 42 40 46 50 51 49 49 48 48 46 46 49 47 48 47 44 43 43 44 42 42 43 42 43 43 46 46 45 46 44 45 46 44 44 43 44 44
40 52 49 55 54 54 52 50 50 48 47 47 49 50 47 44 43 40 41 46 48 49 48 49 48 46 46 50 47 45 46 46 46 43 43 45 44 43 40 40 39 41 43 43 43 45 46 47 47 46 45 46 44 44
42 52 55 57 57 54 50 50 52 49 49 47 50 53 49 46 44 43 46 48 48 50 52 51 51 48 47 46 48 48 48 48 47 46 47 46 45 45 44 41 40 40 43 46 45 45 45 46 46 45 44 44 44 44
56 56 54 54 55 57 52 51 50 48 49 52 50 45 47 48 46 47 49 53 56 54 53 51 52 52 52 51 55 52 49 50 52 53 50 50 49 48 45 43 43 43 43 44 46 46 45 44 44 45 46 42 42 43
55 56 56 53 56 54 51 54 54 52 54 50 46 45 47 50 52 52 54 54 52 51 50 51 53 54 56 55 52 54 56 53 49 46 45 43 43 45 46 45 45 43 43 44 43 45 47 45 45 45 46 45 43 43
57 58 56 57 57 55 55 58 58 55 51 50 50 49 50 49 52 54 52 53 52 55 55 57 53 53 49 52 51 48 47 48 45 43 40 39 40 44 47 47 44 43 43 44 44 45 47 46 46 46 45 43 43 41
64 58 57 58 58 59 62 62 58 55 54 51 52 50 49 50 51 53 54 54 55 55 53 50 48 48 47 45 43 43 41 44 45 46 47 46 46 46 47 45 43 44 43 46 43 43 44 43 43 43 43 42 43 42
61 58 57 58 59 63 63 60 58 55 53 50 49 52 53 50 48 53 54 54 51 49 50 49 47 46 49 47 47 45 44 43 45 46 42 40 40 41 42 42 44 45 44 44 44 43 45 43 41 41 41 44 43 42
61 61 62 60 58 60 61 61 59 52 51 50 50 51 52 51 48 50 54 54 52 50 49 48 49 50 47 47 46 44 43 41 39 39 40 40 40 40 39 39 42 43 44 42 42 42 42 42 41 43 42 42 42 41

GFSWCAN_sfc_temp_039.txt.gz
Temp
54 54 55 55 55 55 55 55 55 55 56 56 56 57 57 57 57 53 49 50 46 40 43 46 47 42 42 41 36 38 36 39 35 33 32 32 31 34 34 34 35 33 33 35 38 36 35 52 50 42 45 55 57 59
54 54 55 55 55 55 55 55 55 55 55 56 56 56 57 57 56 54 47 51 51 44 44 49 49 50 48 47 43 42 40 39 38 35 35 35 33 36 35 29 41 33 35 35 37 38 48 50 48 51 54 53 54 58
54 54 54 55 55 55 55 55 55 55 55 55 56 57 57 57 56 54 50 50 48 44 41 43 46 52 53 51 51 41 41 43 40 42 39 37 34 36 31 33 37 42 45 36 40 43 45 50 50 50 52 52 56 59
54 54 55 55 54 55 55 55 55 55 55 56 56 57 57 57 56 55 50 50 47 43 38 41 55 48 57 52 50 50 46 47 42 41 37 36 34 40 35 37 37 40 42 37 40 43 47 52 50 49 49 52 53 56
54 54 54 54 54 55 55 55 55 55 55 56 56 56 56 56 56 52 51 48 46 41 37 37 44 46 50 48 48 49 47 44 42 38 37 36 41 38 38 38 36 40 37 35 35 43 42 44 49 51 48 48 51 52
54 54 54 54 54 54 55 55 55 55 56 55 56 56 57 56 55 52 47 47 47 45 38 35 41 41 43 47 47 45 44 42 42 39 38 40 42 38 34 33 40 43 45 45 41 47 47 49 50 52 49 48 51 53
54 53 53 53 53 54 54 54 55 55 55 55 56 55 55 55 48 46 43 47 50 47 41 37 39 42 44 42 41 41 41 39 41 39 36 37 38 38 35 33 40 43 45 47 49 48 46 49 46 51 52 53 51 52
53 53 53 53 53 53 54 54 55 55 55 55 56 55 55 54 51 47 47 51 48 42 43 41 41 41 42 37 36 39 37 38 39 38 39 36 38 35 32 40 42 44 45 45 46 49 47 49 48 48 51 52 51 51
53 53 53 53 53 53 53 53 54 55 55 55 56 56 51 49 46 46 55 54 46 44 35 39 39 37 43 38 37 38 37 37 39 37 37 37 34 33 38 41 42 43 42 42 46 47 47 47 49 50 50 50 48 50
53 53 53 53 53 53 52 52 53 54 54 55 50 48 46 48 57 54 48 44 45 45 39 38 42 40 43 43 42 43 42 39 35 37 40 34 33 41 41 44 45 45 46 46 42 41 42 44 49 47 49 47 48 49
53 53 53 53 53 53 52 52 53 53 53 47 46 46 47 56 47 49 44 41 42 37 39 39 42 41 45 42 42 43 40 40 31 35 36 33 28 37 43 42 46 47 47 46 47 46 45 44 45 46 47 48 49 49
53 53 53 53 53 52 52 52 53 48 48 49 48 49 47 48 46 41 39 42 40 39 43 43 44 44 43 46 40 43 40 38 30 37 30 29 34 40 41 42 44 45 46 44 45 44 45 45 45 45 45 45 46 47
53 53 52 52 53 53 53 53 53 53 52 49 49 46 45 45 38 39 32 36 39 45 47 46 46 45 45 44 42 41 37 33 38 34 32 33 42 41 40 41 43 45 46 44 44 45 46 45 46 44 44 45 46 45
53 53 52 52 52 53 53 54 54 53 49 49 48 39 42 41 43 43 42 41 46 45 47 44 45 46 45 43 39 37 40 38 32 30 32 35 39 41 41 42 42 42 44 44 43 44 43 43 43 45 45 44 44 42
53 52 52 52 54 55 54 54 54 50 51 49 48 39 44 48 47 47 47 46 49 47 45 45 44 44 41 40 38 37 35 29 33 29 39 40 42 41 41 42 42 42 43 42 43 43 43 44 43 41 43 44 44 44
53 52 54 55 54 53 53 53 52 52 52 50 48 47 47 50 46 47 47 46 48 46 45 45 41 41 39 38 36 33 29 25 32 36 39 44 41 42 42 42 43 43 43 43 43 43 43 43 42 43 44 43 43 44
52 50 55 53 53 52 52 54 55 55 54 53 53 53 48 47 47 47 46 48 47 47 42 42 40 36 40 36 34 35 32 35 40 43 39 40 41 42 44 43 44 43 44 42 44 43 43 45 44 43 43 46 45 45
48 53 54 53 51 51 55 55 57 57 57 52 53 52 49 49 48 48 49 48 49 45 44 43 43 39 35 35 34 37 41 44 41 39 39 41 42 43 45 43 44 44 43 44 44 43 43 43 43 42 43 45 46 44
50 51 52 52 51 48 54 58 57 53 56 52 51 50 51 50 49 50 50 49 48 46 46 42 41 37 37 38 39 39 39 37 38 40 41 42 42 42 43 44 44 43 44 43 43 42 41 42 42 42 43 43 43 44
52 52 53 53 52 52 55 54 55 53 51 52 50 50 51 49 49 48 48 49 46 45 44 42 42 42 42 42 41 41 41 41 40 40 41 42 42 42 43 43 42 41 42 42 42 43 41 42 42 42 42 44 43 43
52 55 54 52 51 52 53 52 52 52 52 51 51 50 50 49 47 46 46 45 45 43 42 44 45 46 45 46 44 43 43 43 43 41 41 40 42 40 42 43 42 40 41 40 41 40 41 39 39 41 42 42 42 43
51 56 55 54 56 55 52 54 53 52 51 51 51 49 47 47 47 47 47 46 47 47 48 47 45 45 45 45 45 44 50 47 43 42 44 43 40 40 40 40 41 39 40 40 41 41 41 40 40 41 41 41 42 42
54 55 55 58 55 48 50 53 53 52 50 50 50 48 46 46 47 50 45 47 48 49 49 49 49 51 48 46 46 45 49 46 43 41 41 39 39 39 39 41 41 42 42 41 39 40 41 41 41 42 42 41 41 41
55 55 53 52 51 48 54 52 51 49 48 48 47 46 44 45 47 44 43 44 48 50 50 49 48 51 44 44 45 44 44 43 42 40 39 41 40 39 38 40 41 42 42 42 43 41 41 41 41 41 42 42 41 40
45 48 48 40 49 51 55 53 49 46 45 46 46 46 45 46 43 42 41 43 46 48 48 46 45 44 43 42 45 44 43 43 42 41 40 41 39 38 39 39 39 38 39 42 42 42 41 41 41 42 42 41 41 41
40 49 47 52 51 51 51 50 48 47 45 47 48 47 48 46 44 41 41 43 45 47 46 45 45 43 42 43 43 42 44 42 41 41 40 39 41 40 38 38 38 40 39 39 41 43 45 44 45 44 43 43 42 42
41 49 51 52 53 52 49 48 48 46 46 46 45 46 45 43 43 45 45 46 46 48 48 47 46 46 45 44 44 45 46 46 45 47 46 45 44 45 46 42 39 41 40 42 42 43 43 43 43 44 42 41 41 42
51 52 52 52 51 51 50 47 48 46 47 47 46 44 46 46 44 46 46 49 49 49 47 47 48 46 45 43 44 47 48 48 51 50 50 47 46 47 45 44 42 42 42 42 44 44 43 41 41 43 43 41 39 41
51 52 53 51 52 51 51 48 50 48 49 47 45 43 48 50 49 49 50 48 47 46 46 46 48 49 50 50 48 46 43 43 45 44 42 39 38 41 41 41 42 43 43 41 42 44 46 44 43 44 44 42 41 40
53 53 52 53 52 52 53 51 51 49 49 51 49 48 49 48 50 50 48 47 46 44 44 47 46 48 46 44 41 41 42 41 40 39 36 37 39 42 45 46 44 42 42 45 42 42 44 44 43 44 43 41 40 39
55 53 54 54 54 54 52 54 52 50 51 49 50 47 47 50 50 50 48 48 46 46 46 43 42 41 41 39 39 37 36 38 40 42 41 38 39 39 39 39 40 40 41 42 42 40 41 40 40 40 40 40 40 39
55 55 54 53 53 52 57 53 51 49 49 48 47 50 49 48 46 47 48 46 45 44 44 43 41 38 39 40 40 39 39 38 38 38 39 37 37 37 37 38 39 41 42 42 41 39 41 39 38 38 39 39 39 38
57 55 55 55 53 56 55 55 51 48 48 47 48 50 49 48 46 47 49 47 46 45 43 41 41 41 42 43 41 39 39 37 38 39 39 39 39 38 37 37 40 41 40 39 39 39 39 39 38 39 38 38 38 38

GFSWCAN_sfc_temp_042.txt.gz
Temp
54 54 55 55 55 55 55 55 55 55 56 56 57 57 57 57 57 52 47 50 46 41 43 45 47 43 43 41 35 40 36 38 37 33 32 31 31 33 33 34 33 33 32 34 36 37 35 49 49 41 45 53 53 53
54 54 55 55 55 55 55 55 55 55 56 56 57 57 57 57 56 52 47 51 50 44 44 48 50 50 48 48 43 42 37 40 40 35 35 35 33 34 33 30 39 32 35 32 34 36 43 48 45 49 52 50 51 52
54 54 55 55 55 55 55 55 55 55 56 56 57 57 57 57 56 53 50 50 48 43 39 39 42 49 53 50 51 41 40 45 43 43 38 36 33 35 31 33 35 38 41 36 37 41 43 48 50 51 51 50 53 54
54 54 55 54 54 55 55 55 55 55 55 56 57 57 57 56 56 54 49 50 47 41 34 39 50 44 51 49 50 49 45 45 46 41 36 37 35 39 35 36 36 38 39 35 37 43 45 50 49 50 51 52 53 54
54 54 54 54 54 54 55 55 55 55 56 56 56 56 57 56 56 51 47 46 45 42 36 37 42 44 45 49 48 48 44 41 39 39 35 35 39 37 38 38 35 41 38 35 35 43 42 43 48 51 49 49 51 51
53 54 54 54 54 54 54 55 55 55 56 55 56 57 57 56 55 51 47 46 48 46 38 35 40 42 44 46 46 43 43 41 41 37 37 38 43 38 34 33 40 42 44 44 41 46 46 48 49 51 49 50 52 51
54 54 53 54 53 54 53 54 55 56 55 55 55 56 56 55 50 46 44 47 49 45 41 41 38 41 42 40 40 39 40 37 40 39 37 37 38 38 34 32 40 43 44 45 47 46 45 48 45 49 50 52 53 52
53 53 53 53 53 53 53 53 54 55 55 55 55 55 55 54 52 46 47 51 48 41 40 40 42 42 43 38 36 37 36 36 38 37 39 37 39 36 33 40 43 44 45 45 45 46 45 48 48 47 49 50 49 50
53 53 53 53 53 53 53 53 53 54 54 54 55 55 50 47 44 45 55 52 45 42 34 38 36 39 43 40 37 37 36 36 38 38 36 37 34 32 37 40 42 43 42 42 46 45 46 46 46 49 50 50 49 49
53 53 53 53 53 53 53 52 53 53 54 54 49 47 44 48 56 54 48 46 45 45 37 38 42 39 43 44 43 41 43 39 35 37 40 32 32 39 42 42 45 45 45 44 42 40 42 43 44 45 45 48 49 49
53 53 53 53 53 53 52 52 52 53 53 46 45 45 47 54 47 48 45 42 42 37 39 40 41 40 44 42 42 44 40 40 32 36 36 30 29 35 41 42 43 47 46 43 44 45 45 44 44 44 44 45 45 46
53 53 53 53 53 53 53 52 53 48 47 48 47 48 46 48 46 39 37 40 38 39 41 40 42 44 42 46 42 43 41 34 28 37 29 30 37 40 40 42 43 44 46 44 44 42 44 45 45 44 43 43 43 44
53 53 53 52 52 52 53 53 53 52 51 48 47 44 44 43 38 37 31 35 39 43 44 43 44 43 45 46 43 41 35 32 37 34 30 34 40 41 40 41 42 44 45 44 43 43 43 43 45 45 43 44 44 44
53 53 53 52 52 52 53 54 54 52 47 47 46 38 41 40 42 41 41 41 44 43 44 40 42 41 41 40 37 36 35 36 31 20 24 35 38 40 41 42 42 42 44 44 43 43 43 42 41 42 43 43 44 43
53 53 52 52 53 54 53 53 54 49 49 48 46 38 43 48 45 46 44 43 45 43 41 41 41 41 38 38 36 36 34 28 33 27 33 38 40 41 41 42 41 41 43 43 43 43 43 43 42 41 43 42 43 44
53 52 52 53 53 52 53 53 51 50 50 48 46 46 47 49 45 45 45 45 45 43 42 42 39 39 37 36 36 34 30 25 32 35 38 39 40 41 41 42 42 42 42 43 43 44 44 43 43 42 43 43 44 43
52 50 53 52 52 52 53 52 52 52 52 50 48 52 50 46 47 46 44 46 44 45 41 41 39 37 38 35 35 34 33 35 37 39 38 39 40 41 42 42 43 43 43 43 43 44 44 45 45 44 43 44 43 44
47 51 53 52 52 50 51 51 54 53 52 52 51 54 47 48 46 47 47 46 47 44 43 43 42 38 37 36 35 37 38 40 39 38 38 39 41 41 43 41 44 44 43 44 44 44 44 43 43 43 41 43 43 44
50 51 52 52 51 47 52 55 54 51 52 49 49 47 47 48 45 45 47 48 48 45 46 43 41 38 39 40 41 40 38 38 39 39 39 41 41 41 42 43 44 43 43 43 43 43 41 42 43 43 43 43 43 43
52 53 53 53 52 51 53 52 53 50 49 50 47 47 47 46 45 46 48 49 48 48 48 44 44 46 44 44 42 42 41 40 39 40 41 42 42 41 41 42 43 42 42 42 42 42 42 43 43 42 44 44 44 43
52 53 53 51 50 50 51 50 50 49 49 48 48 47 46 46 47 45 45 44 46 46 47 47 47 48 47 46 42 41 41 41 41 42 41 40 42 40 41 41 42 42 43 43 43 42 42 42 42 43 44 43 43 44
51 55 52 53 53 53 50 51 51 49 48 49 49 47 45 44 44 44 45 45 45 46 46 47 48 49 48 44 45 46 45 45 41 41 42 41 41 40 39 39 41 41 43 43 43 43 43 43 43 43 44 44 44 44
53 53 54 56 52 47 49 50 51 50 48 48 47 46 44 44 45 48 45 45 45 47 47 50 50 48 45 46 46 47 46 42 41 41 40 39 39 39 40 41 41 44 45 45 42 43 43 42 43 44 44 44 44 44
53 53 51 51 49 46 52 50 49 48 47 46 45 44 44 45 47 45 42 42 45 45 49 49 44 45 44 43 42 44 43 42 41 40 40 41 40 39 39 40 41 42 41 42 42 43 44 45 42 44 44 44 43 43
44 47 46 38 47 49 50 50 48 46 44 44 44 43 44 45 42 41 40 41 43 45 45 44 44 43 43 42 42 43 42 42 44 42 41 42 39 40 40 41 41 40 41 43 42 42 42 44 44 44 45 44 43 43
38 47 45 50 48 49 49 48 47 46 45 45 45 45 44 43 42 41 41 42 44 45 45 46 45 44 43 42 43 43 46 47 46 45 42 44 42 42 40 42 41 42 43 42 44 45 45 45 46 47 46 46 42 45
40 48 49 49 50 50 46 46 47 47 45 45 45 44 44 41 41 44 44 45 45 46 47 46 45 44 43 43 44 44 48 46 45 46 45 44 47 46 46 44 42 42 44 45 44 46 45 45 45 45 44 45 45 45
49 49 50 50 48 50 49 46 46 45 46 48 47 46 46 46 44 45 46 48 47 46 44 44 44 44 44 42 43 42 42 43 45 46 47 44 42 41 42 44 43 41 43 44 45 45 45 45 45 46 45 43 43 44
49 50 50 50 50 48 48 48 48 47 48 46 46 45 46 47 48 48 48 47 45 45 43 45 43 46 44 43 42 40 41 42 44 43 43 41 40 44 46 44 44 46 44 44 41 43 46 46 46 46 46 45 44 44
50 50 50 51 50 49 51 50 49 48 48 48 49 48 47 48 49 47 46 45 45 44 44 44 43 42 40 41 39 41 40 39 41 41 39 40 43 43 44 47 45 45 43 44 44 45 43 45 44 46 44 43 43 43
52 51 52 51 51 52 51 50 49 50 49 48 49 47 46 48 48 46 46 43 43 44 44 42 40 40 40 40 39 39 38 39 40 40 40 39 40 41 43 43 43 43 43 43 44 44 44 43 43 43 43 42 42 42
52 52 52 51 50 50 52 51 49 48 48 47 47 48 48 48 46 46 46 45 44 43 43 42 41 40 40 39 39 40 38 39 39 40 40 40 40 41 41 42 43 43 44 43 44 44 43 42 42 42 42 42 42 42
52 53 52 51 48 50 51 51 50 47 47 47 47 48 48 48 47 46 45 45 46 44 42 40 40 41 41 41 41 40 39 40 39 38 38 38 38 39 41 42 43 43 43 42 43 43 43 43 42 41 41 41 41 41

GFSWCAN_sfc_temp_045.txt.gz
Temp
55 55 55 55 55 55 55 56 55 56 56 56 57 57 57 57 56 55 52 52 47 42 49 49 47 43 44 42 36 41 43 41 38 34 34 33 32 34 33 33 33 32 31 30 32 29 27 46 52 47 50 52 53 53
55 55 55 55 55 55 55 55 55 55 56 57 57 57 57 57 56 54 51 52 52 45 48 53 54 53 49 49 44 43 42 40 40 35 36 35 33 35 35 31 38 33 33 33 34 33 39 47 49 54 54 51 51 51
54 54 55 55 55 54 55 55 55 56 56 57 57 57 57 56 56 55 52 52 50 47 49 50 52 56 57 55 54 42 46 46 45 45 39 37 33 36 32 34 35 38 40 35 36 39 42 47 51 55 53 51 53 54
54 55 55 54 54 54 55 55 55 56 56 56 56 56 57 56 56 55 52 54 51 48 45 53 57 54 58 57 54 54 51 51 50 47 42 38 35 40 35 35 35 38 39 36 37 41 44 47 49 50 51 53 53 53
54 54 54 54 54 54 55 55 55 56 56 56 56 56 57 57 56 56 53 55 53 48 47 53 55 55 56 56 53 53 52 48 48 46 42 37 40 37 40 39 35 40 38 35 35 41 42 44 49 52 50 50 52 52
54 54 54 54 54 54 54 54 55 55 56 55 56 57 57 56 55 55 49 53 56 52 46 47 55 52 55 54 52 49 47 47 46 42 40 44 45 38 35 34 40 43 44 43 40 44 46 48 50 51 49 51 52 52
54 54 54 54 54 54 54 54 54 55 55 55 55 56 56 55 57 55 53 54 53 55 47 46 47 48 49 47 50 49 48 45 45 43 42 40 41 39 36 33 42 46 47 46 46 45 44 47 47 50 51 53 53 54
54 54 54 53 54 54 53 53 54 55 55 55 55 55 55 54 54 54 56 53 54 53 49 45 47 48 51 43 42 45 47 47 45 43 45 40 42 40 35 42 46 48 48 47 46 46 45 49 52 49 51 53 51 51
53 54 53 53 54 54 53 53 53 54 55 54 55 55 57 55 53 54 55 54 54 51 46 42 41 43 48 44 42 47 48 40 45 42 42 42 37 33 40 43 46 45 45 44 48 46 46 45 45 46 46 48 49 50
53 53 53 53 53 54 53 53 53 53 53 54 56 54 53 53 56 56 51 47 47 47 47 41 45 44 49 46 43 44 46 41 37 42 45 35 37 46 47 47 49 48 48 48 44 40 42 42 42 43 43 44 45 46
53 53 53 53 53 53 53 53 53 53 53 56 54 54 53 55 51 51 48 46 50 46 45 45 44 44 51 47 45 47 41 42 34 39 40 34 37 45 49 49 50 51 50 49 50 48 46 45 44 44 44 44 44 45
53 53 53 53 53 53 53 53 52 53 56 55 55 54 54 50 52 49 48 51 49 50 52 51 51 47 49 50 46 47 42 41 34 47 40 34 43 49 49 50 50 51 51 50 50 49 49 49 49 48 46 45 45 46
53 53 53 53 53 52 51 52 53 53 53 55 55 53 54 52 43 47 37 47 51 57 56 54 50 50 48 50 46 45 43 42 48 42 34 40 49 51 51 51 51 51 51 50 49 50 50 50 50 49 48 49 49 46
53 53 53 53 52 52 53 54 54 53 54 56 53 40 51 50 53 54 55 55 59 55 56 54 50 48 49 48 50 45 46 47 40 33 36 48 50 52 53 53 50 51 51 51 50 50 50 50 49 50 50 50 49 46
53 53 53 54 54 53 53 53 53 55 57 56 55 44 52 58 58 59 57 54 58 56 54 52 53 53 52 49 49 47 42 36 39 40 48 52 51 52 53 53 53 52 52 51 52 51 51 51 51 51 52 51 51 50
53 53 55 53 52 52 53 53 55 57 58 56 54 55 58 56 61 59 58 58 60 57 55 55 51 49 46 48 46 42 40 37 44 47 54 52 51 53 53 53 53 53 53 54 54 54 54 53 53 53 53 53 52 51
52 57 53 52 52 52 53 58 59 57 59 57 59 58 59 58 59 61 60 61 57 58 55 53 49 46 49 46 44 44 42 46 51 54 54 50 51 52 53 53 54 55 54 55 55 56 55 55 55 55 53 53 54 53
53 58 53 52 52 53 58 57 60 60 57 61 59 63 59 61 60 60 58 58 58 55 51 51 53 49 45 42 44 48 50 53 54 53 54 53 52 52 52 52 54 54 55 56 55 55 55 55 56 56 54 54 56 55
55 54 53 53 52 54 59 60 60 59 62 62 61 60 60 59 54 52 53 56 55 55 55 54 48 47 42 42 44 53 54 55 54 54 55 53 52 52 52 53 54 54 55 55 56 57 56 54 55 57 58 58 56 56
52 53 54 53 54 58 59 60 61 59 59 62 60 60 59 55 53 54 55 55 54 53 54 46 46 50 46 47 54 55 56 55 55 55 56 57 56 53 53 53 56 54 55 54 56 50 57 57 58 57 57 55 56 55
55 57 53 56 57 59 61 61 60 60 60 59 59 59 57 55 54 53 54 52 57 53 52 49 51 54 57 57 57 55 54 54 55 56 55 56 56 55 56 56 55 56 56 57 57 55 54 56 56 57 57 56 57 57
60 55 60 58 60 59 59 62 60 60 59 59 60 58 55 54 53 52 52 55 55 53 51 56 56 58 58 56 56 54 56 53 53 54 47 50 56 55 54 54 56 55 56 57 58 58 57 56 56 58 57 56 55 56
55 56 61 61 58 52 52 61 59 59 56 57 58 55 54 53 53 55 51 53 56 58 56 55 56 55 55 55 54 54 55 54 54 56 54 54 53 54 55 55 56 56 55 55 56 57 55 46 50 56 56 57 56 56
54 58 57 58 57 51 60 58 59 56 57 56 54 52 53 52 54 53 50 52 58 58 55 54 56 58 58 55 58 57 56 55 54 53 55 52 53 51 52 52 54 54 54 57 57 56 56 55 49 55 55 55 55 54
47 51 51 39 55 55 56 57 56 55 52 52 52 53 52 53 51 50 49 53 55 58 55 55 58 58 56 57 58 56 53 57 56 50 53 55 52 53 53 53 53 53 53 56 55 54 53 54 53 50 53 53 53 52
38 53 47 57 56 56 58 55 54 54 53 52 54 54 53 51 48 48 51 54 57 56 56 58 58 59 58 57 56 57 57 56 54 56 54 55 55 52 50 48 51 52 55 55 56 55 54 54 53 52 50 50 44 52
43 55 58 59 60 59 55 55 55 54 53 53 54 52 52 47 48 53 55 57 56 58 58 58 58 58 55 55 57 57 56 56 55 56 55 55 55 56 55 52 50 52 55 55 55 56 54 53 53 53 53 54 53 54
57 57 56 58 57 60 56 54 53 53 55 56 55 52 51 52 51 57 59 59 58 54 55 55 56 56 55 53 54 55 54 55 55 54 54 54 54 54 54 53 53 41 53 53 54 55 55 55 54 54 52 52 52 53
56 59 59 56 57 57 56 56 58 57 58 56 55 54 54 57 59 60 60 58 55 57 57 56 54 55 55 54 54 53 55 56 54 50 49 49 49 51 55 56 55 55 55 55 41 47 53 54 55 54 53 53 53 54
59 61 59 58 58 57 61 58 58 56 57 60 57 54 55 55 57 56 57 56 57 57 57 57 56 58 55 54 52 51 52 54 54 53 51 50 51 54 56 55 54 55 55 55 55 53 44 52 49 54 53 53 53 53
62 60 60 60 60 62 61 58 58 59 59 57 56 55 54 54 55 56 56 55 56 57 56 54 54 55 54 53 52 51 49 51 51 51 52 53 54 54 55 55 54 54 53 55 55 55 54 53 53 51 51 50 50 50
60 60 60 58 59 57 59 57 59 58 56 56 54 55 55 53 53 53 54 56 56 56 49 54 54 51 52 52 52 51 45 51 51 52 52 53 52 53 54 54 55 55 54 53 54 53 52 51 51 51 50 49 49 49
60 61 61 59 56 55 57 56 57 54 55 55 55 55 56 57 53 53 53 55 58 58 56 55 53 53 52 52 51 50 48 50 43 37 38 38 37 44 54 55 54 54 53 53 53 53 51 50 50 49 49 49 48 48

GFSWCAN_sfc_temp_048.txt.gz
Temp
55 55 56 56 56 56 55 55 56 56 57 57 58 58 58 58 56 59 58 57 52 50 56 57 55 50 45 45 39 44 49 46 39 35 35 35 34 35 33 35 36 35 32 32 34 30 28 46 40 38 50 55 52 54
55 55 55 55 55 55 55 55 56 56 57 57 58 58 57 57 57 57 55 57 56 47 59 62 62 63 57 54 45 50 48 46 42 37 38 36 34 37 35 32 36 32 36 34 34 36 43 41 40 48 52 49 50 54
55 55 55 55 55 55 55 55 56 56 57 57 58 58 58 57 57 57 62 60 56 57 62 64 62 63 66 64 61 45 53 55 47 48 41 38 34 37 34 35 35 37 38 35 34 39 38 44 47 49 50 49 52 56
54 55 55 55 55 55 55 55 55 56 57 57 57 57 57 57 57 57 60 65 61 60 57 61 67 62 66 67 62 60 56 56 55 52 44 40 36 41 36 37 35 36 39 36 35 37 41 46 46 48 50 51 52 55
54 55 54 54 55 55 55 55 55 56 56 56 57 57 57 57 56 61 67 68 68 58 57 63 64 65 65 65 62 62 61 58 58 53 49 39 40 38 40 41 36 41 37 35 34 39 40 41 46 50 50 49 51 52
54 54 54 54 54 55 54 54 55 56 56 56 56 57 57 57 54 62 54 64 67 65 57 52 64 60 61 59 62 61 61 59 61 57 52 54 50 41 37 35 43 46 45 43 39 44 45 47 48 50 51 50 52 53
54 54 54 54 54 54 54 54 54 55 55 55 56 57 57 56 62 59 60 61 58 65 58 54 55 57 55 52 58 63 63 62 60 60 55 53 50 49 42 35 47 50 49 47 46 45 43 45 43 47 52 53 53 53
54 54 54 54 54 54 54 54 54 55 56 55 55 56 56 55 55 60 64 54 60 62 61 49 56 55 59 52 48 55 60 63 59 58 58 53 56 49 37 50 52 54 53 50 47 47 46 47 46 46 48 50 50 50
54 54 54 54 54 54 54 54 54 54 54 55 55 56 62 60 56 59 56 55 60 56 52 48 46 48 58 57 53 55 61 52 61 52 51 51 42 35 45 49 50 53 51 50 50 49 50 46 45 45 46 45 45 46
54 54 54 54 54 53 54 54 53 54 54 54 59 62 58 59 56 57 55 55 53 56 55 46 52 50 58 55 56 53 55 49 42 54 57 40 38 52 55 56 55 54 55 54 48 46 47 46 46 45 45 45 46 46
54 54 54 54 54 53 53 54 53 53 53 64 64 66 62 56 55 54 56 56 61 55 59 58 52 56 62 48 50 53 48 49 37 48 48 39 38 50 57 57 57 58 57 56 56 55 53 51 49 49 50 48 47 48
54 54 53 53 53 53 53 53 53 60 70 61 63 64 64 55 58 56 59 62 58 56 65 60 62 59 54 59 49 52 46 47 41 60 50 36 48 56 57 57 57 57 57 56 57 55 55 55 54 53 54 53 48 48
53 53 53 53 53 53 52 52 53 54 55 66 63 60 62 62 47 53 40 52 58 65 67 64 59 57 52 55 48 48 47 50 59 50 35 44 56 59 58 59 59 60 58 57 56 57 57 57 57 56 54 56 56 50
53 53 53 53 53 53 53 53 54 54 61 64 61 42 58 58 62 63 62 63 67 66 66 65 63 50 53 53 59 48 56 56 49 39 36 52 55 59 59 60 59 59 59 58 57 57 57 57 57 58 58 58 57 55
53 53 53 54 53 53 52 54 53 60 67 63 64 47 61 70 70 71 71 68 71 71 67 63 62 61 57 55 59 55 48 44 45 44 52 58 57 57 60 60 60 61 61 60 59 59 57 58 59 59 60 60 58 57
53 52 61 53 53 53 53 54 58 67 67 65 63 63 70 66 68 71 70 68 74 72 68 65 55 55 52 58 51 47 41 39 46 53 60 61 56 59 58 59 61 61 61 62 62 61 61 60 59 60 62 61 60 58
52 69 53 53 52 54 54 65 67 63 66 63 67 73 70 69 68 70 70 70 70 66 55 51 49 49 54 46 39 41 41 47 56 61 63 58 58 58 59 60 62 63 61 62 61 61 61 62 63 61 58 59 61 60
64 66 54 53 54 57 66 65 68 67 62 69 66 70 72 71 68 67 66 68 64 64 62 51 51 42 37 36 38 50 53 61 62 61 63 61 60 59 61 60 61 61 63 63 61 62 62 61 61 62 61 61 62 62
62 59 54 53 54 64 67 67 68 64 68 73 73 74 71 71 66 67 67 69 67 67 63 56 45 41 41 48 52 55 55 61 60 63 64 61 61 60 59 61 61 61 62 62 62 62 63 61 62 63 64 63 62 62
52 53 53 53 55 67 64 69 71 67 66 70 72 71 70 68 68 70 69 68 67 67 59 51 47 50 53 58 59 58 64 65 60 57 61 64 65 61 62 61 64 63 63 62 63 48 63 63 64 63 63 61 62 61
55 61 54 61 66 67 69 71 69 71 70 68 71 69 69 71 68 67 66 68 67 62 57 62 60 61 65 65 64 61 62 65 57 61 60 61 63 64 63 66 64 66 64 61 62 59 55 60 62 65 64 62 64 64
69 55 70 64 68 68 67 74 69 71 68 70 69 69 67 64 64 64 66 67 62 62 65 64 64 64 65 61 62 62 63 61 60 61 49 56 61 59 60 64 64 63 64 64 63 61 61 63 62 64 63 61 59 62
57 61 69 68 64 58 58 72 65 68 63 66 68 64 65 65 64 67 64 65 64 67 68 65 62 63 62 64 63 62 62 61 62 63 62 60 57 59 63 62 62 60 58 61 66 66 60 53 57 61 62 61 59 59
53 65 63 65 64 56 69 65 69 66 67 65 64 59 61 63 66 64 60 61 65 69 65 61 62 65 67 64 64 63 65 66 63 61 61 59 59 59 62 61 61 60 59 61 63 62 59 59 53 59 60 58 57 57
51 53 56 41 65 61 62 63 63 64 60 62 59 61 62 65 60 59 57 62 65 66 64 65 63 67 64 64 63 64 62 66 60 58 60 65 61 58 55 57 61 61 64 57 60 58 59 57 57 59 57 55 55 56
41 60 50 64 65 62 66 60 61 61 62 60 62 64 65 61 54 53 60 64 65 64 62 62 62 59 63 63 62 63 64 67 61 57 60 62 57 51 51 51 55 57 63 63 59 55 53 55 53 54 55 53 46 55
47 61 66 71 69 70 66 66 66 64 60 59 64 60 61 53 54 59 66 67 66 65 66 67 65 64 63 63 64 63 64 64 62 62 63 62 62 61 58 55 54 58 62 62 62 57 57 55 55 56 56 57 56 56
64 66 62 66 66 70 63 63 61 60 64 68 66 58 58 58 57 64 66 67 67 67 66 66 66 65 64 63 64 64 62 62 62 62 62 60 60 61 60 61 60 44 59 59 60 59 59 57 57 57 55 55 54 57
63 69 68 64 66 67 65 65 67 72 72 69 65 63 62 65 67 66 66 68 68 68 65 64 63 66 64 64 63 64 65 64 61 53 52 49 51 55 59 58 57 61 62 60 40 48 56 57 57 55 56 55 55 56
66 71 67 65 64 65 71 74 72 71 73 73 69 64 65 64 67 68 67 66 65 65 66 66 67 64 62 61 59 58 61 62 61 59 58 55 57 59 58 59 59 61 62 61 59 58 44 55 51 57 55 56 55 55
74 70 67 69 68 74 74 73 73 71 70 67 66 67 64 63 63 63 66 67 66 66 65 64 63 64 62 60 59 58 55 59 58 58 61 62 62 61 60 60 61 62 62 60 58 57 56 57 55 54 53 53 53 52
70 67 68 65 70 69 70 68 69 68 68 65 63 65 62 61 57 55 62 65 64 64 54 62 61 59 61 60 59 58 49 59 59 60 59 60 60 60 61 62 63 62 61 61 60 57 56 55 54 53 52 52 52 52
70 71 69 69 66 61 65 64 62 58 58 61 62 63 64 62 57 58 62 66 68 66 64 63 62 61 59 59 58 56 53 56 45 37 39 38 38 46 61 62 62 61 60 61 59 57 55 54 53 52 52 52 52 52

GFSWCAN_sfc_temp_051.txt.gz
Temp
55 55 56 56 56 56 56 56 56 57 57 58 59 58 58 58 57 59 67 69 60 63 66 65 61 53 55 51 44 55 51 50 42 37 37 36 35 37 33 36 37 39 36 35 37 34 31 52 51 40 52 47 46 55
55 55 56 56 56 56 56 56 56 57 57 58 58 58 58 58 58 57 60 68 66 53 65 70 70 69 63 60 55 55 50 46 43 38 38 37 35 38 35 32 39 35 40 36 39 40 48 49 45 49 46 44 46 56
55 55 55 55 55 56 56 56 56 57 57 57 58 58 58 58 58 58 66 65 61 62 63 67 68 70 74 72 72 52 56 55 48 57 42 39 35 38 34 35 36 39 41 35 35 42 44 45 44 46 47 46 50 53
55 55 55 55 55 55 55 55 56 56 57 57 57 58 58 58 57 58 61 71 68 68 60 63 74 69 73 74 70 69 64 64 61 54 48 40 37 41 37 38 35 38 38 36 35 39 39 43 46 46 49 51 51 53
55 55 55 55 55 55 55 55 55 56 57 57 57 58 58 58 57 62 65 69 74 64 59 64 74 75 74 71 69 70 68 61 54 47 48 44 44 39 40 39 35 41 37 34 34 38 40 41 45 48 49 48 51 52
54 55 55 55 55 55 55 55 55 55 56 57 57 58 58 58 55 63 57 69 75 70 60 54 73 69 70 68 63 67 67 66 62 59 57 58 57 46 41 35 43 47 47 44 38 43 42 44 45 48 49 49 51 52
55 55 55 55 55 55 55 55 55 55 56 56 57 57 58 57 65 59 58 63 60 68 59 55 57 70 69 65 68 63 65 65 66 66 61 60 58 53 48 37 49 55 53 48 48 46 42 43 42 46 47 48 51 51
54 55 55 55 55 55 55 55 55 55 55 56 56 57 57 56 57 62 67 57 59 61 66 53 57 62 68 63 56 63 62 57 62 64 64 59 60 55 40 50 51 57 57 53 51 49 46 46 46 46 47 47 46 47
54 54 55 55 55 54 55 55 55 55 55 56 56 57 64 62 61 63 58 57 68 61 53 51 52 51 70 62 66 63 61 50 67 53 56 56 47 36 47 50 51 54 56 56 55 55 53 50 47 47 46 46 44 45
54 54 54 54 54 54 54 55 54 54 55 55 60 66 63 64 57 59 58 55 54 58 62 53 65 54 65 60 60 60 66 57 48 58 60 45 38 51 57 59 56 55 58 59 55 52 53 49 51 50 46 46 46 46
54 54 54 54 54 54 54 54 55 54 54 66 70 69 67 57 64 60 61 62 65 60 67 66 66 60 71 56 52 61 57 53 40 53 53 44 40 51 59 60 60 59 59 60 60 59 58 56 53 52 53 51 49 48
54 54 54 54 54 54 54 54 54 60 75 64 66 69 71 61 62 61 63 67 63 58 69 68 68 67 65 66 56 57 51 53 44 66 51 37 47 58 58 60 62 60 60 59 60 58 58 56 57 57 56 54 52 50
54 54 54 53 54 54 54 53 53 54 56 72 68 65 66 66 48 57 44 56 59 70 71 70 64 65 60 60 51 51 46 47 65 54 38 46 55 61 61 61 63 65 62 59 59 59 59 58 57 57 56 59 56 54
54 53 53 53 54 53 52 52 53 56 63 68 66 44 62 59 62 64 65 65 72 71 71 70 64 53 58 54 52 49 54 61 49 40 38 54 55 60 62 63 63 62 63 58 60 59 57 57 58 59 59 58 56 54
53 53 53 54 54 54 53 54 53 64 71 67 69 49 63 69 73 72 71 69 64 68 69 66 65 63 50 52 53 54 48 45 47 41 51 56 59 61 59 59 62 64 64 60 60 58 59 61 59 59 62 60 57 56
53 52 61 54 54 54 54 55 59 71 73 69 68 67 70 68 70 70 69 67 75 70 68 62 59 50 43 43 39 36 41 39 46 53 59 58 60 60 60 62 61 64 64 64 64 64 62 63 62 62 64 63 59 57
51 73 54 54 54 54 54 65 73 68 70 68 69 74 70 69 68 72 73 72 75 68 63 62 47 39 52 43 39 45 45 51 57 62 65 61 60 60 62 63 63 64 63 63 64 63 63 64 65 64 60 62 65 63
68 69 55 54 57 59 70 68 73 71 66 72 68 71 72 73 69 73 73 74 71 69 67 56 56 49 47 44 48 55 56 61 64 64 61 64 63 62 64 63 63 64 64 63 64 64 65 63 63 64 64 65 66 65
65 63 55 53 57 66 72 72 74 67 72 77 78 75 74 69 72 77 76 74 73 75 68 61 54 54 56 58 55 57 58 61 62 62 62 64 64 63 62 64 64 64 63 62 64 65 65 64 65 66 67 66 64 65
52 53 54 54 55 70 69 74 78 71 69 72 76 72 74 72 74 78 71 74 73 67 57 56 53 57 58 59 61 64 66 66 65 60 60 62 67 65 65 64 66 64 65 63 64 51 64 63 68 66 65 64 64 64
53 63 55 63 66 71 73 75 73 76 75 73 78 75 72 73 71 70 70 76 64 66 62 63 63 67 67 67 69 68 66 66 63 64 56 63 66 67 65 64 66 66 64 62 63 60 57 63 66 65 63 64 66 64
72 55 73 67 71 74 72 78 74 76 73 74 75 75 71 67 68 70 73 66 65 67 68 65 65 67 65 64 66 66 65 64 64 62 51 56 62 63 63 66 64 60 62 63 64 58 63 64 64 63 67 63 61 64
57 64 73 73 68 63 60 79 69 73 67 69 73 67 68 70 71 73 65 63 64 71 71 67 66 66 65 66 64 65 67 64 60 60 64 63 62 64 64 64 66 61 62 57 59 64 61 52 59 64 64 65 62 64
54 70 67 69 67 58 74 69 74 72 73 70 69 64 66 67 72 67 60 66 69 70 68 66 69 67 67 64 66 64 66 67 68 66 64 57 58 60 66 64 62 64 64 64 63 57 59 63 56 65 61 63 62 61
55 55 58 42 70 66 66 67 68 69 64 67 64 65 68 71 64 61 59 66 69 68 69 70 68 70 65 64 68 66 68 69 66 61 64 61 59 60 60 58 59 65 67 60 58 59 50 59 62 60 61 61 59 59
44 63 51 68 69 66 67 63 64 66 68 65 68 71 72 67 58 55 58 66 66 65 68 68 67 68 67 67 65 65 66 69 68 60 61 64 60 60 58 56 55 59 65 64 62 52 55 56 57 53 55 56 48 55
49 65 71 76 75 75 71 74 74 70 65 64 70 67 66 57 56 64 69 69 68 69 71 72 70 68 66 66 67 67 68 68 65 64 64 64 63 62 60 57 57 60 64 63 63 60 59 59 58 57 56 59 60 59
68 71 66 71 71 75 68 69 67 66 68 75 72 62 62 62 62 68 69 72 71 72 71 71 71 69 67 67 69 67 66 67 67 66 64 65 65 64 63 64 63 47 61 60 60 59 62 59 55 59 58 58 58 59
68 74 74 68 71 72 71 70 69 70 76 76 67 64 66 70 72 69 68 72 73 73 71 70 70 72 70 68 69 69 69 69 64 56 54 54 57 59 63 63 65 64 63 62 42 51 57 59 60 60 59 60 60 61
70 78 71 71 69 68 72 74 73 79 79 78 76 71 69 69 68 71 69 69 69 71 71 71 71 70 68 67 64 63 66 67 67 64 60 59 60 63 63 62 63 63 63 62 61 60 46 57 54 62 60 58 59 57
81 77 72 73 71 74 76 80 81 81 80 75 73 71 61 61 66 71 68 73 72 71 71 70 69 69 67 66 65 63 60 64 63 64 66 67 66 64 63 65 66 66 62 61 63 61 60 61 60 58 57 56 55 53
76 72 72 68 64 67 78 76 77 76 73 68 62 63 60 61 60 64 68 71 69 69 57 68 67 64 66 65 65 64 53 65 64 65 64 66 65 65 67 66 65 65 64 64 62 61 59 57 57 55 55 55 54 55
76 77 75 73 71 69 74 72 68 66 67 64 59 61 64 60 58 63 70 72 72 71 69 68 68 66 64 64 63 61 57 60 48 39 41 40 38 46 61 67 66 66 63 62 62 60 58 57 56 55 54 54 55 55

GFSWCAN_sfc_temp_054.txt.gz
Temp
56 56 56 56 56 56 56 56 57 57 58 58 59 59 59 59 59 61 69 69 64 62 68 69 66 61 61 58 47 57 54 53 51 40 36 35 34 37 34 36 37 36 36 36 38 35 32 54 55 47 53 56 56 56
55 55 56 56 56 56 56 56 56 57 58 58 59 59 59 59 59 58 65 71 69 63 67 74 73 73 68 66 62 60 53 52 52 43 42 39 36 38 36 32 42 34 36 33 35 37 48 52 49 52 52 51 53 52
55 55 55 56 56 55 56 56 56 57 58 58 58 59 60 59 59 58 68 70 69 64 65 65 66 73 77 75 75 58 58 58 51 55 48 41 36 39 35 37 36 43 40 35 35 45 45 46 47 47 49 48 49 50
55 55 56 56 56 55 56 56 56 56 57 58 58 59 59 59 58 58 65 70 67 64 57 59 78 71 78 77 73 72 66 67 61 53 47 44 38 44 38 39 35 39 40 36 35 39 40 44 44 45 46 48 48 51
55 55 55 56 55 55 55 56 56 56 57 57 58 58 59 59 58 61 67 69 69 59 55 61 68 75 77 74 69 70 64 66 56 50 47 44 52 44 44 41 35 40 38 34 33 39 37 39 43 44 43 47 49 50
54 55 55 55 55 55 55 56 56 56 57 57 58 58 59 59 57 64 58 69 68 68 55 57 70 70 72 72 67 67 63 66 61 60 56 58 60 53 44 39 44 46 47 45 40 44 43 43 44 45 45 47 50 50
55 55 55 55 56 55 55 56 56 55 56 57 57 57 58 58 63 61 59 64 60 68 56 56 60 68 73 70 64 66 68 65 64 60 59 57 56 55 50 38 50 49 50 49 49 45 41 43 40 44 44 45 49 49
55 55 55 55 55 55 55 56 55 55 56 57 57 57 57 57 57 62 70 57 62 63 63 56 60 59 72 60 56 68 59 64 62 61 62 59 59 55 42 51 53 55 53 51 50 49 45 46 46 45 46 45 44 45
54 55 55 55 55 55 55 55 55 55 55 56 57 57 62 61 64 67 60 60 68 62 55 56 53 52 70 63 64 61 63 53 61 57 56 56 47 36 47 52 53 53 54 54 56 55 52 48 46 45 45 44 43 44
55 55 55 55 55 55 55 55 56 55 55 56 59 63 61 68 58 60 62 57 57 61 62 57 64 56 66 63 61 61 60 53 48 57 62 47 39 50 56 58 58 56 57 58 53 50 52 51 51 48 46 45 44 44
55 55 55 55 55 55 55 55 55 55 53 63 65 64 69 58 67 64 60 60 63 59 65 66 60 56 72 58 56 65 54 56 41 51 51 43 41 51 59 58 60 60 59 57 57 57 55 53 53 52 50 51 47 45
55 55 55 54 54 54 55 54 55 58 73 62 62 69 75 67 64 60 59 67 64 59 68 66 68 69 66 66 50 54 52 51 44 59 52 38 48 55 59 60 59 61 62 60 58 57 56 56 57 55 54 53 52 50
54 54 54 54 54 54 55 54 53 54 57 72 67 66 63 66 47 56 46 51 51 53 57 60 58 61 61 61 51 51 48 44 59 46 39 46 53 57 60 61 62 64 61 62 58 57 57 59 59 57 56 55 55 52
54 54 54 54 55 56 53 53 54 56 60 67 61 43 61 59 58 54 55 54 67 62 57 57 56 61 57 46 46 43 48 53 44 40 37 48 54 59 60 62 62 61 59 60 59 59 59 60 60 58 59 59 57 54
54 54 54 55 56 55 55 54 53 62 67 67 67 48 64 69 70 70 68 65 70 73 67 65 66 60 52 49 50 49 45 43 46 43 49 53 57 60 61 61 62 63 63 60 60 60 61 60 62 61 59 60 59 58
54 54 60 55 55 55 54 54 58 69 72 70 69 66 68 60 65 68 71 71 74 71 70 66 60 54 49 50 45 44 44 42 48 53 57 59 59 60 60 62 63 64 63 63 63 62 63 63 62 62 64 59 60 60
52 70 54 55 55 55 54 63 71 68 69 69 69 70 62 70 71 71 72 72 76 70 64 64 53 48 57 48 45 51 48 51 59 61 61 61 60 60 62 63 64 64 63 63 63 64 62 64 64 63 61 63 62 60
68 62 55 55 58 61 69 65 71 72 67 72 70 68 75 76 68 61 73 74 71 69 65 59 62 52 49 47 48 53 58 63 58 62 63 63 63 62 63 62 63 63 64 63 64 64 63 63 63 63 63 64 64 59
64 62 55 54 57 62 71 71 74 67 71 72 73 75 77 68 62 75 73 68 71 71 63 62 56 52 52 57 56 57 57 61 60 57 63 62 62 63 63 64 64 64 63 64 63 64 64 63 64 65 66 65 61 64
53 53 53 53 54 67 69 73 79 71 67 71 75 75 75 68 67 60 70 74 71 68 57 59 56 57 55 60 65 65 58 65 62 54 59 57 64 63 58 62 65 64 65 54 58 51 65 65 64 65 65 63 61 62
57 64 56 60 63 70 72 75 72 75 76 73 76 74 72 67 72 72 67 74 69 66 62 65 63 67 67 67 68 67 65 65 64 63 59 61 64 66 64 64 65 64 58 54 57 56 56 63 63 66 65 64 64 63
72 57 73 66 70 74 73 77 74 66 74 73 56 70 53 66 70 70 71 63 66 66 66 67 67 67 62 62 58 64 62 61 64 60 49 54 57 60 61 61 63 60 49 49 56 47 54 63 63 66 64 63 62 63
57 66 73 75 69 62 59 79 70 73 65 70 71 67 65 70 72 72 52 65 68 71 71 69 68 67 65 65 65 66 63 62 65 62 63 64 62 62 62 61 65 62 60 61 62 56 50 55 60 64 64 61 62 59
55 70 69 69 68 57 73 70 73 71 72 69 67 66 67 69 73 61 56 63 67 72 68 68 69 67 64 63 65 63 67 69 66 64 63 61 60 57 56 55 62 64 64 63 59 55 51 52 50 59 63 61 60 61
55 55 58 42 68 64 65 64 67 62 61 64 65 65 67 71 62 59 58 63 68 68 69 70 70 70 67 67 68 68 68 69 65 58 62 61 57 62 59 61 62 63 64 61 58 55 51 49 48 59 58 58 59 59
44 64 50 68 69 67 67 65 65 58 57 66 69 61 69 67 59 55 60 60 61 67 67 67 67 67 67 67 65 65 66 69 65 61 61 64 62 60 55 54 54 57 65 55 53 55 58 59 59 59 59 56 50 57
49 64 71 76 74 75 72 74 64 64 66 64 59 64 67 59 56 59 59 58 60 68 70 71 70 68 67 67 67 67 68 68 64 64 66 66 65 64 61 57 55 59 64 59 59 54 50 52 58 59 59 57 59 59
68 71 67 73 72 75 69 68 59 61 53 53 55 59 54 56 59 64 64 65 69 71 70 71 70 70 69 69 70 69 68 68 67 67 67 66 66 65 64 64 63 49 60 60 59 59 61 61 58 59 59 58 58 59
67 74 74 69 72 73 71 69 63 53 53 51 54 59 54 68 70 68 66 65 73 73 72 70 70 72 71 70 70 70 70 70 64 58 56 58 59 61 65 65 64 65 64 61 43 52 57 59 60 59 60 59 60 61
70 77 73 72 70 69 73 63 60 57 55 75 75 68 65 65 69 71 68 71 71 71 72 72 72 72 70 69 65 65 68 69 69 66 61 59 61 65 65 64 64 64 64 64 62 61 48 56 53 59 59 58 59 56
79 78 74 74 72 60 60 59 62 74 79 73 72 64 61 59 59 68 70 73 72 73 72 71 70 70 69 68 67 64 62 66 66 66 67 67 66 65 65 65 65 65 64 64 62 62 61 59 58 57 56 56 56 55
77 74 73 70 71 65 66 67 68 74 72 65 65 67 63 62 60 66 69 73 71 70 59 68 68 66 68 68 67 66 57 66 64 62 64 67 66 66 66 67 67 66 64 63 62 61 60 59 58 57 57 56 56 56
75 75 64 57 59 57 55 54 65 66 65 62 63 68 67 64 59 64 72 74 70 71 70 69 69 69 66 67 65 63 58 58 48 40 42 41 40 49 64 66 66 66 64 64 63 62 60 58 57 56 57 57 57 57

GFSWCAN_sfc_temp_057.txt.gz
Temp
56 56 56 56 56 56 56 56 56 57 57 58 59 60 60 60 59 58 63 64 59 56 61 67 66 57 56 53 45 52 50 49 45 38 36 34 33 35 33 35 34 34 32 33 33 32 28 47 46 37 42 45 46 47
56 56 56 56 56 56 56 56 56 57 57 58 59 59 60 59 59 58 60 66 64 57 60 68 70 71 66 63 55 55 49 48 46 42 41 39 34 37 35 30 39 31 36 32 33 34 45 47 43 46 45 43 43 45
56 55 56 56 56 56 56 56 56 56 57 58 58 59 59 59 59 57 59 63 65 60 62 63 62 70 72 70 69 52 54 55 49 51 45 41 34 38 32 35 36 41 41 35 34 42 42 42 44 46 45 44 45 45
55 55 55 56 56 56 56 56 56 56 57 57 58 58 59 59 59 58 58 65 63 58 52 59 74 67 74 73 70 68 61 61 55 50 45 43 37 42 36 38 36 39 39 37 36 40 41 43 42 43 44 44 45 47
55 55 55 56 56 56 56 56 56 56 56 57 57 58 58 59 58 58 61 65 66 56 50 55 66 70 74 70 67 66 62 57 49 47 45 42 46 42 41 40 37 39 38 34 33 41 39 39 43 44 41 42 45 44
55 55 55 56 56 56 56 55 56 56 56 57 57 57 58 58 58 59 55 65 67 63 53 50 67 63 63 67 66 62 61 58 56 52 47 51 56 46 38 36 43 43 45 45 40 45 44 45 45 45 43 43 45 45
55 55 55 56 56 56 56 55 56 56 56 56 56 57 57 57 58 57 56 60 57 62 54 51 56 56 60 59 61 60 60 58 57 52 50 47 50 49 42 34 45 46 47 47 47 46 43 45 43 45 45 45 45 45
55 55 55 55 56 56 56 56 56 55 55 56 56 56 56 56 55 55 64 59 59 59 57 49 54 55 63 55 52 60 56 56 55 54 53 50 50 47 37 46 48 49 49 49 48 48 45 47 47 46 46 45 43 43
55 55 55 55 56 56 56 56 56 56 56 55 56 56 57 55 58 61 61 60 63 58 49 52 47 48 65 58 56 56 57 48 55 48 48 49 41 33 40 47 49 50 48 48 51 50 50 47 46 46 46 44 42 42
55 55 55 55 55 56 56 56 55 56 55 56 56 57 57 64 59 61 59 53 52 55 55 49 57 48 57 50 51 51 53 48 43 47 52 41 36 45 52 52 52 52 53 52 47 46 48 47 48 47 45 45 44 43
55 55 55 55 55 55 55 55 55 55 53 57 59 59 64 59 62 60 55 52 52 50 51 50 50 49 53 46 48 50 45 46 39 44 44 38 37 46 51 53 54 55 55 54 52 50 52 51 49 49 49 47 46 45
55 55 55 55 55 55 55 54 54 54 63 57 56 61 66 61 59 55 52 52 50 47 51 51 56 55 52 55 46 45 45 46 39 50 42 35 43 50 52 54 54 55 57 56 53 52 54 54 52 51 50 49 48 47
55 55 54 54 54 55 55 54 54 54 55 64 59 60 61 58 46 51 41 45 46 55 57 59 55 55 55 54 46 46 42 39 46 38 34 41 48 51 53 55 54 55 58 53 52 54 53 52 54 52 51 52 50 49
54 54 54 54 55 56 55 53 53 54 54 59 60 40 55 54 54 56 51 52 56 57 59 56 55 52 54 49 49 43 45 45 41 37 36 45 49 52 55 57 56 54 56 55 55 55 54 52 52 53 54 54 52 50
54 54 54 55 55 56 56 54 53 56 59 61 63 44 59 63 62 62 62 58 58 63 59 52 55 57 52 50 49 49 46 42 42 40 45 48 52 54 54 55 57 52 54 54 53 52 55 55 55 53 53 54 53 52
54 54 58 55 56 56 55 54 54 61 65 64 64 62 63 59 54 52 56 59 67 67 60 61 57 52 48 49 46 45 42 38 43 46 50 51 51 54 54 55 57 56 54 54 55 56 55 54 53 53 55 53 54 52
53 61 55 56 56 55 55 59 63 61 64 65 65 69 66 64 52 56 55 56 68 65 58 58 51 48 54 47 45 49 44 46 50 52 53 51 52 53 55 56 57 57 55 53 55 55 55 57 55 55 51 53 54 52
61 57 56 55 56 59 64 58 64 67 63 66 63 65 68 61 61 61 57 66 66 63 60 55 59 51 46 44 45 49 51 54 52 52 48 50 54 57 58 56 57 57 56 56 56 54 57 55 54 53 52 53 52 52
59 59 55 54 54 55 64 65 67 62 67 68 69 71 65 59 58 63 67 68 66 66 61 58 54 49 48 52 52 55 53 53 50 52 50 52 54 55 54 55 55 57 55 49 50 48 47 54 55 54 56 54 49 50
53 53 53 54 53 60 63 67 72 67 65 68 71 69 62 61 61 66 67 67 66 63 58 56 55 54 53 55 58 57 58 58 57 55 51 50 49 50 53 54 55 53 53 52 50 47 48 50 54 56 56 54 53 51
61 59 54 56 57 62 65 67 68 67 65 67 62 56 54 60 62 62 60 69 62 61 58 60 61 59 60 60 60 59 59 58 55 54 52 52 53 53 53 57 54 50 48 47 47 47 48 46 47 57 57 55 56 54
65 56 66 59 64 68 65 70 68 68 66 67 58 60 57 57 60 62 67 64 62 61 62 60 60 60 59 59 60 61 59 59 56 54 52 54 55 55 54 55 55 51 49 47 49 45 45 46 52 51 56 55 54 53
58 62 68 69 62 57 53 73 66 63 59 64 63 56 62 60 63 65 56 62 64 65 64 63 61 61 59 60 63 60 61 58 55 57 56 56 55 55 54 52 52 53 48 47 52 51 49 47 51 50 54 55 55 51
57 66 64 65 61 53 70 66 70 68 68 55 57 59 57 63 62 60 57 61 63 64 63 62 61 61 60 60 58 60 59 61 58 57 58 57 55 52 53 52 53 57 53 54 54 51 50 52 50 54 54 54 53 51
54 50 54 39 64 64 63 64 65 64 54 53 57 55 50 53 55 56 57 58 58 59 60 62 62 62 60 60 61 60 60 60 57 55 56 56 55 55 55 56 55 54 56 54 52 51 50 50 49 53 54 54 53 53
42 58 47 63 65 63 64 62 61 57 54 54 57 52 54 52 50 53 56 57 56 62 61 61 61 62 59 60 59 59 60 62 59 57 57 59 57 55 53 52 51 48 55 52 51 52 52 52 51 54 54 53 48 54
46 59 67 71 69 69 62 63 64 61 55 51 50 52 52 43 45 54 59 61 62 62 62 63 63 64 61 60 61 62 63 61 59 58 59 60 60 59 57 53 51 52 56 57 55 53 52 52 56 55 54 55 54 55
64 66 63 67 65 70 66 66 61 53 51 52 52 51 53 52 52 62 64 64 66 64 66 66 65 66 64 63 65 64 64 64 63 63 62 61 61 60 58 58 56 48 55 54 57 57 56 56 56 55 55 53 53 54
63 69 69 64 68 69 67 63 52 53 54 53 51 52 56 63 66 65 63 63 67 67 65 64 65 66 65 66 65 66 66 65 60 56 55 54 55 57 60 60 55 58 57 55 44 49 53 54 55 56 56 55 54 54
65 73 68 68 67 65 65 70 58 55 56 55 54 56 62 63 63 63 63 65 66 66 68 69 68 66 66 64 62 62 65 66 64 61 57 55 57 61 60 60 59 60 59 58 57 56 49 54 52 56 54 53 53 53
75 73 70 71 67 62 62 66 65 58 58 56 56 57 58 62 61 66 68 69 70 70 69 66 65 66 66 64 61 60 58 63 63 62 64 63 63 61 61 60 61 60 59 59 58 57 56 55 55 54 54 53 53 52
73 71 71 61 58 62 60 57 59 59 55 54 58 61 61 61 58 63 69 70 69 66 58 65 64 63 65 65 63 60 53 58 56 56 61 62 61 61 62 62 63 61 60 60 59 58 57 56 54 54 54 54 54 54
71 69 70 64 59 57 55 55 57 55 54 55 58 63 64 63 57 64 71 72 69 69 66 66 66 65 63 62 59 55 53 52 44 41 42 42 43 49 58 61 62 62 61 60 59 59 57 56 55 55 55 54 54 54

GFSWCAN_sfc_temp_060.txt.gz
Temp
57 56 56 56 56 56 56 56 56 56 57 58 58 59 59 59 58 51 51 55 50 44 48 57 59 50 47 44 38 44 41 41 36 30 34 33 32 34 31 35 35 32 28 30 30 29 26 45 45 36 38 41 44 43
56 56 56 56 56 56 56 56 56 56 56 57 58 58 58 58 58 56 48 56 55 47 50 58 62 64 60 56 47 44 42 41 39 35 35 31 33 35 33 28 40 30 32 29 33 30 40 40 39 42 43 41 43 43
56 56 55 56 56 56 56 56 56 56 56 57 58 58 58 58 58 56 48 50 51 47 48 50 54 62 60 61 58 45 43 46 43 43 37 36 32 34 30 33 36 38 37 33 34 38 38 43 45 45 45 43 44 44
56 55 55 56 56 56 56 56 56 56 56 56 57 58 58 58 58 58 48 50 50 47 43 47 65 56 66 60 61 58 53 49 46 43 37 37 34 36 28 34 36 36 37 37 36 38 40 42 43 45 44 45 44 46
55 55 55 55 56 56 56 56 56 56 56 56 56 57 57 58 57 53 50 51 54 52 43 44 52 58 61 61 61 59 50 46 43 42 39 38 41 36 36 38 36 39 36 34 31 38 38 40 43 47 44 43 44 43
55 55 55 55 56 56 56 55 56 56 56 56 56 56 57 57 57 49 48 57 59 59 49 40 52 55 60 60 58 55 52 47 45 42 40 47 48 41 32 34 38 39 40 41 38 42 42 44 44 47 44 45 45 44
55 55 55 55 56 56 56 55 55 56 56 56 56 56 56 56 49 47 48 52 54 56 50 45 44 53 56 55 52 52 54 49 48 45 42 41 42 42 34 28 40 41 43 43 44 43 41 43 41 46 46 46 46 46
54 55 55 55 56 56 56 56 55 55 56 56 56 56 55 55 52 47 52 55 54 51 53 44 45 49 54 48 47 50 48 48 48 47 44 41 40 39 30 39 42 44 44 43 44 44 45 45 45 44 45 46 43 43
54 55 55 55 55 55 56 56 55 55 55 55 55 55 51 48 46 50 59 60 59 54 45 46 41 41 53 50 49 49 49 43 49 44 42 43 34 30 38 40 42 45 43 43 45 45 45 43 44 44 44 45 42 43
54 55 55 55 55 55 55 55 55 55 55 55 50 48 47 53 61 60 50 46 46 47 46 41 46 42 47 47 44 47 47 44 40 44 47 37 34 39 42 46 48 47 48 48 45 41 43 43 45 44 44 45 43 44
55 55 55 55 55 55 54 54 54 54 53 47 48 49 54 59 51 49 46 46 47 44 44 45 45 43 49 41 41 45 43 42 36 41 41 36 34 41 48 48 48 48 50 50 51 50 47 46 45 46 46 45 45 45
55 55 55 55 55 54 54 54 54 49 49 49 48 50 51 50 50 46 47 49 46 44 48 46 47 47 47 50 44 42 41 43 34 43 37 32 38 47 48 49 50 51 51 52 50 48 49 49 48 48 48 47 46 46
55 55 54 54 54 55 54 54 53 53 51 50 49 49 51 51 42 46 39 42 42 47 49 48 47 47 46 44 40 41 41 38 41 36 32 35 44 48 46 47 49 50 51 50 49 49 49 49 50 48 48 49 49 47
54 54 54 54 54 55 55 53 53 51 46 48 50 38 46 44 50 50 49 49 52 52 49 47 46 44 45 41 41 37 40 41 36 32 34 40 43 44 46 49 49 49 50 51 50 50 49 49 49 49 49 50 50 48
54 54 54 53 55 55 55 54 53 50 48 49 51 40 48 56 52 52 52 50 53 51 49 47 46 45 42 42 40 40 38 35 34 32 38 41 45 46 46 49 46 48 48 47 49 49 49 49 49 49 48 49 50 49
54 54 54 55 55 55 54 53 50 50 52 51 51 50 53 52 49 50 51 50 53 52 50 49 45 43 40 40 38 37 36 31 36 39 42 43 45 46 46 49 49 48 47 47 48 48 48 47 48 48 47 47 47 46
53 55 54 55 55 54 54 50 51 51 53 55 52 56 55 52 50 51 49 50 52 52 47 46 43 40 44 39 36 41 37 39 41 43 45 45 45 48 48 50 50 49 47 46 45 46 48 47 46 45 45 45 45 45
53 53 55 55 54 53 52 49 53 57 53 54 51 54 55 52 50 50 52 52 52 50 48 47 47 42 39 38 37 41 42 44 44 44 43 44 45 47 50 48 51 48 47 45 45 46 50 46 44 43 43 44 44 43
54 53 55 54 53 49 52 54 53 50 54 55 55 57 55 54 54 53 54 56 55 53 51 47 46 40 41 42 43 44 44 44 44 43 43 45 45 45 47 49 48 47 46 45 43 42 42 45 46 45 44 44 43 42
53 53 54 54 52 48 52 54 58 54 53 57 54 52 52 51 54 56 54 54 53 51 48 46 45 45 45 46 47 47 46 46 45 42 41 43 43 44 44 45 45 46 45 46 44 43 42 43 45 47 45 44 43 42
54 52 53 52 48 49 52 53 57 58 56 53 52 51 51 52 51 51 51 54 55 49 47 48 49 49 50 50 50 49 47 47 44 44 44 41 44 44 45 43 43 42 42 42 42 40 42 42 45 46 44 44 43 44
53 55 53 52 53 56 51 55 54 55 54 53 50 52 50 48 51 51 54 53 52 52 52 51 51 50 50 50 50 51 50 48 46 47 48 47 43 47 46 43 43 41 43 41 40 40 42 45 46 47 44 44 44 44
55 56 56 58 52 49 49 58 55 56 52 52 51 51 51 51 52 54 50 51 52 54 55 56 57 54 51 52 52 52 50 48 45 46 51 49 48 43 42 45 46 45 43 43 44 42 43 45 46 47 48 43 43 43
57 56 54 56 51 45 57 55 58 56 54 53 53 52 50 50 53 50 49 50 52 56 53 53 54 50 50 49 46 46 47 50 46 47 47 44 42 41 43 43 44 45 45 42 41 41 41 44 46 48 48 45 45 44
48 46 46 38 51 53 55 55 55 54 49 51 52 49 48 50 48 49 49 49 50 53 54 53 53 52 48 46 46 47 47 47 44 43 42 45 44 44 42 42 41 41 43 43 42 43 43 43 45 46 47 45 45 45
38 49 45 54 54 54 55 55 53 51 50 50 50 50 50 47 47 45 47 50 51 51 52 50 49 47 45 50 46 45 46 47 47 44 43 45 45 43 41 40 40 41 44 43 43 45 46 46 45 47 47 47 45 46
40 49 53 56 56 58 56 56 56 54 51 50 50 50 48 43 42 47 50 54 55 54 52 51 50 50 48 46 47 48 49 50 49 47 46 47 46 45 44 42 40 43 45 48 47 47 45 47 47 46 45 45 45 46
53 54 52 54 54 58 56 57 55 50 50 51 50 49 50 50 49 52 55 58 58 54 53 51 51 51 50 49 50 49 49 49 49 48 47 46 46 47 46 45 44 45 45 46 48 48 47 48 48 48 47 45 45 46
51 55 55 52 55 56 56 54 51 51 52 52 50 49 49 54 57 56 55 54 54 52 51 51 50 50 50 49 49 49 50 50 49 45 43 41 41 43 44 45 45 45 45 46 44 46 50 48 48 47 48 46 45 47
53 57 54 57 56 53 53 55 54 53 54 54 53 53 54 56 58 55 53 53 54 53 54 54 53 50 49 49 47 48 50 49 49 51 43 42 45 46 47 46 46 46 45 46 46 46 47 48 47 47 47 45 43 43
59 57 56 57 54 55 57 56 56 56 55 53 53 52 53 55 54 55 56 57 58 55 54 51 51 51 50 47 46 46 43 45 48 51 51 48 48 49 49 49 48 47 47 47 47 46 47 47 45 45 46 45 45 44
58 58 58 54 54 55 56 53 54 53 53 52 51 52 51 51 49 52 59 57 54 56 52 52 52 48 49 47 48 47 45 43 44 48 49 48 47 48 49 49 50 50 50 49 48 47 48 46 45 45 46 46 46 46
61 61 60 56 53 53 52 52 53 50 52 51 50 52 51 50 49 53 57 56 56 55 52 51 51 52 48 48 46 44 43 41 41 41 42 43 43 45 47 47 49 51 51 49 48 49 49 48 46 45 46 46 46 46

GFSWCAN_sfc_temp_063.txt.gz
Temp
57 57 56 56 56 56 56 56 56 56 56 57 58 58 58 58 58 51 50 51 49 43 45 54 56 48 45 41 37 42 40 39 34 29 25 32 31 34 29 35 28 29 26 19 29 26 21 42 42 33 36 39 44 44
56 56 56 56 56 56 56 56 56 55 56 56 57 58 57 57 57 54 48 52 51 46 49 53 59 62 57 54 45 41 40 38 37 31 31 34 33 36 32 18 39 30 29 25 29 28 37 39 38 45 45 43 43 43
56 56 56 56 56 56 56 56 55 56 56 56 57 57 57 57 57 54 46 47 48 45 45 47 52 58 57 57 56 44 41 43 40 40 34 32 24 32 30 32 36 39 36 28 30 35 37 39 41 42 46 45 45 45
56 56 55 55 56 56 56 56 55 56 55 56 56 57 57 57 57 56 47 47 48 45 40 45 58 53 59 57 57 55 51 45 43 41 36 32 28 34 27 30 27 33 38 37 35 36 38 41 41 43 44 47 45 47
56 55 55 55 55 56 56 55 55 55 55 56 56 56 56 57 56 52 48 48 50 48 41 42 49 54 56 56 57 53 52 45 41 39 39 36 41 34 33 36 35 38 35 32 30 36 36 37 42 45 43 45 46 44
55 55 55 55 55 56 56 55 55 56 55 55 56 56 56 56 56 49 48 51 52 56 45 40 48 50 54 55 53 51 52 49 48 42 39 44 49 43 34 32 37 38 38 38 37 39 40 42 44 45 43 45 46 45
55 54 54 55 55 56 56 55 55 55 55 55 55 56 55 55 48 47 48 51 52 51 50 41 41 50 53 51 51 51 53 49 48 44 41 43 44 45 38 27 39 39 43 41 41 39 40 42 40 44 45 45 47 44
54 54 54 55 55 56 56 56 55 55 55 55 55 55 55 54 52 48 50 54 52 49 50 41 41 45 51 45 46 47 45 47 47 45 45 42 42 42 35 39 40 43 42 41 42 42 43 43 42 43 44 44 43 41
54 54 54 55 55 55 55 55 55 55 55 55 55 55 49 47 45 49 59 57 58 53 41 40 37 38 49 46 45 45 49 43 48 43 43 43 37 34 39 41 41 43 42 43 44 43 42 41 42 42 43 43 42 41
54 54 54 55 55 55 55 55 55 54 54 54 50 47 46 49 59 59 52 46 45 44 44 40 42 40 45 43 42 44 46 43 39 42 45 38 35 41 42 43 45 45 45 44 41 41 41 41 42 42 43 43 43 42
54 54 55 55 55 55 54 54 54 54 53 47 47 47 50 57 50 47 44 46 46 43 42 44 43 42 47 41 42 45 42 43 34 36 39 34 33 42 48 47 46 47 46 47 50 49 45 44 44 43 44 45 44 43
54 54 55 55 55 54 54 54 54 49 48 49 49 48 48 47 47 46 45 45 44 42 45 43 45 44 45 48 45 43 41 42 36 40 36 26 34 43 46 48 48 48 48 49 49 48 48 47 46 45 44 45 44 45
55 55 54 54 54 54 54 53 53 52 50 48 47 47 47 47 40 42 40 40 43 45 47 46 44 45 45 43 41 40 41 37 39 34 28 31 39 44 45 46 47 49 49 49 48 48 48 47 48 46 45 46 46 48
54 54 54 54 54 54 54 53 53 52 46 47 47 39 44 42 45 48 47 47 50 48 46 45 44 43 42 40 40 36 39 39 34 31 28 37 41 43 44 46 46 47 48 48 48 48 48 47 47 48 47 46 46 46
54 54 54 54 54 54 54 52 53 50 48 47 47 39 45 50 49 50 50 48 49 49 47 44 47 43 40 40 39 38 35 33 32 31 36 40 42 42 44 45 45 46 46 46 47 47 48 48 47 46 46 46 45 45
54 54 54 54 54 54 53 52 50 48 49 47 47 45 49 48 49 49 48 47 49 47 46 46 42 43 39 39 37 36 34 30 35 38 40 41 42 42 43 45 46 48 46 46 45 47 46 45 45 43 44 44 44 45
54 54 54 55 54 54 52 49 48 48 49 50 48 49 50 50 50 49 48 48 49 48 45 44 42 40 41 37 36 38 35 38 40 42 42 42 42 42 47 49 49 49 47 44 45 44 43 44 43 43 42 42 43 43
52 53 55 54 53 52 50 49 50 54 49 50 47 50 54 52 51 50 50 50 50 49 47 48 47 42 38 37 36 40 40 42 44 42 42 42 43 43 45 44 44 44 45 46 46 47 45 43 41 41 41 41 41 41
53 53 54 54 53 48 48 51 49 47 50 50 50 50 51 52 53 52 52 51 50 50 51 48 46 41 39 40 43 43 43 47 41 41 41 42 42 43 43 44 45 44 45 45 45 43 43 42 40 40 40 41 40 40
53 53 53 53 53 46 48 49 53 49 49 53 52 50 50 48 50 51 51 50 50 49 48 48 47 47 43 44 46 49 45 43 42 41 39 41 41 42 41 41 41 41 42 42 43 43 43 43 44 43 43 41 40 41
53 52 53 50 47 49 48 48 50 53 52 50 49 49 49 50 50 50 49 48 49 48 47 51 52 51 49 49 48 46 44 43 42 42 41 39 40 43 45 42 42 40 38 38 38 38 40 39 43 45 46 42 40 41
50 54 50 50 50 51 47 50 49 50 50 50 48 49 48 48 49 50 51 49 49 49 51 50 50 50 50 48 48 47 46 44 42 42 45 43 45 40 39 44 45 41 45 41 40 39 41 45 46 45 44 43 42 42
52 53 52 53 50 46 46 53 51 52 50 49 49 48 49 48 51 53 48 50 52 54 53 55 54 51 50 48 47 45 45 44 41 42 42 40 39 39 39 41 42 42 40 40 40 40 39 44 45 46 46 42 42 40
52 52 50 50 48 44 53 51 52 52 52 48 47 47 48 48 50 49 47 48 51 50 51 52 53 50 47 44 42 43 43 43 42 41 40 41 39 38 38 39 39 40 40 38 39 39 40 43 44 46 47 44 41 41
45 45 45 37 48 49 50 53 53 49 47 48 47 47 47 47 45 47 47 49 50 50 48 50 48 47 45 40 41 42 42 43 42 41 39 39 38 38 39 38 38 38 39 40 40 41 41 42 42 44 45 43 42 42
38 47 43 49 50 49 51 51 54 48 47 48 49 47 47 44 44 43 46 48 48 50 50 47 46 42 41 43 42 41 43 42 43 41 40 40 41 40 38 38 38 39 41 40 41 43 43 43 43 44 44 43 42 43
38 45 49 51 51 52 53 52 52 49 50 50 49 46 46 42 43 45 50 53 50 50 48 46 49 47 45 42 41 43 43 44 46 45 43 42 42 42 41 40 39 41 42 45 45 45 44 43 43 43 43 42 43 44
48 49 48 50 50 52 54 54 51 50 50 49 49 48 47 48 48 52 53 56 56 48 47 45 45 49 46 45 45 44 42 43 43 42 43 42 40 40 41 42 42 42 43 44 46 45 45 45 44 44 44 43 42 43
46 49 50 48 50 51 54 51 49 49 50 49 49 46 48 50 55 51 50 51 50 48 47 46 45 45 44 44 43 43 47 49 45 42 40 38 39 42 41 42 42 42 43 44 43 45 47 46 45 45 45 43 42 42
47 50 49 51 51 51 51 51 51 51 53 52 52 51 50 52 52 51 50 50 49 50 49 48 46 46 44 45 43 41 42 45 49 47 42 39 41 43 43 43 43 42 42 44 44 44 45 45 44 44 43 42 41 41
51 51 52 52 50 50 51 52 53 53 52 50 50 50 49 50 51 51 52 52 52 49 47 47 45 45 46 43 43 43 43 42 44 48 46 45 43 44 45 44 44 43 43 44 44 44 44 43 42 43 43 42 41 41
52 53 52 49 48 51 54 51 50 50 49 50 48 49 49 48 48 50 52 51 49 48 47 47 46 44 45 43 43 43 43 43 46 46 47 45 45 45 45 44 44 45 45 45 45 45 45 43 42 42 42 43 43 42
54 54 54 51 49 49 49 50 49 47 48 47 48 48 49 49 47 50 51 49 52 53 48 45 44 43 43 44 43 41 41 42 42 42 43 43 44 44 44 45 46 47 48 46 45 45 45 44 43 43 43 43 42 42

GFSWCAN_sfc_temp_066.txt.gz
Temp
56 57 57 56 56 56 56 56 56 56 56 57 57 58 58 58 57 51 49 49 48 42 45 51 53 46 43 40 37 41 39 38 33 27 24 30 30 34 29 28 27 24 20 18 30 26 20 42 42 36 37 38 41 42
56 56 56 56 56 56 56 56 55 55 55 56 57 57 57 57 57 54 48 50 49 46 47 49 54 57 56 52 43 38 39 37 36 30 29 32 33 35 30 18 32 27 28 23 27 26 37 40 39 42 42 41 44 44
55 56 56 56 55 56 56 56 55 55 55 56 56 57 57 57 57 53 45 46 47 44 45 46 49 54 53 55 54 43 39 41 37 38 32 30 23 33 26 25 29 37 34 27 29 34 36 39 41 43 43 42 45 48
55 55 56 55 55 55 56 56 55 55 55 55 56 56 57 57 57 55 46 46 47 43 40 45 55 50 55 55 54 52 46 43 41 39 34 31 28 33 28 29 28 32 36 37 36 36 37 39 41 43 43 44 44 48
55 55 55 55 55 56 56 56 55 55 55 55 55 55 56 56 56 50 47 47 48 47 40 41 47 50 50 54 55 50 48 47 44 41 37 34 35 33 32 33 29 35 34 31 29 36 37 38 43 45 43 43 45 45
54 55 55 55 55 55 56 55 55 55 55 55 55 56 55 55 54 48 46 48 49 49 44 39 46 47 51 51 50 48 50 48 48 44 42 42 43 38 32 33 37 38 38 38 38 39 40 43 44 45 44 45 46 46
54 54 55 54 55 55 55 55 55 55 55 55 55 55 55 54 47 46 46 50 51 48 49 39 39 47 50 48 45 47 52 48 48 45 42 43 42 41 38 30 39 40 42 40 41 41 39 42 41 45 44 46 47 46
54 54 54 54 55 55 55 55 55 55 55 55 55 55 54 54 51 47 50 53 53 49 50 40 39 43 49 43 42 46 46 47 46 45 44 42 41 41 35 41 41 44 42 41 41 42 43 43 43 43 44 44 43 43
53 54 54 54 55 55 55 55 55 55 54 55 54 54 49 46 45 48 58 56 57 53 41 40 36 37 47 43 43 44 48 43 47 43 43 43 38 34 40 42 42 42 42 44 44 42 42 41 42 42 43 43 41 42
53 53 53 54 55 55 55 55 54 54 54 54 50 46 46 47 57 58 53 49 45 43 45 43 40 39 44 41 43 45 45 41 39 42 41 36 34 43 44 44 45 45 45 45 42 41 41 41 41 42 43 43 43 43
53 53 54 55 55 55 54 54 54 53 53 45 46 46 49 55 49 47 45 44 45 43 41 43 41 41 45 41 43 42 38 39 35 35 39 35 33 41 46 47 48 47 47 46 47 46 47 46 44 43 44 45 45 44
53 54 54 55 55 55 54 53 54 49 47 48 48 48 48 46 46 46 45 46 45 42 45 43 43 44 43 45 42 41 42 41 35 39 37 29 34 40 44 46 48 47 47 47 47 47 47 46 46 45 45 45 45 45
54 54 54 54 54 54 54 53 53 52 50 47 46 45 45 44 40 43 36 41 43 47 46 46 43 44 45 42 43 42 41 38 39 35 31 31 38 41 43 44 46 48 48 48 48 48 48 48 48 46 46 46 46 45
54 54 54 54 54 54 54 53 53 52 45 45 46 41 46 40 43 43 45 45 48 46 46 45 43 43 42 43 39 36 38 39 38 32 27 36 41 42 43 45 46 46 48 48 48 49 49 48 47 48 47 46 46 44
54 54 54 54 54 54 54 53 52 50 46 45 45 38 43 48 47 48 51 49 48 48 46 44 43 43 42 43 39 38 35 34 33 31 35 39 42 41 43 44 44 45 46 46 47 47 48 48 46 46 47 46 46 45
54 53 53 54 54 53 52 52 49 49 47 45 44 43 46 45 46 49 48 47 48 46 46 45 41 41 41 40 37 37 35 32 36 37 40 41 42 42 42 44 46 47 47 47 47 47 47 46 45 46 46 45 45 45
53 53 54 55 54 54 52 51 47 47 47 47 45 46 46 46 47 48 50 50 50 49 45 43 42 42 42 38 37 38 36 38 40 41 42 41 41 42 43 44 45 45 43 43 43 44 45 46 45 44 43 44 45 45
51 52 55 55 52 51 49 49 51 52 49 47 44 47 47 48 48 48 49 49 50 47 45 48 47 43 41 39 38 40 40 41 42 42 41 41 42 42 44 43 45 45 44 44 45 46 46 45 44 45 45 44 44 44
52 53 54 54 52 47 47 51 48 44 47 47 48 47 49 50 50 50 50 49 48 48 48 48 46 41 41 43 42 42 43 42 42 41 40 41 41 42 43 43 43 41 42 42 42 43 45 44 43 43 43 45 45 43
53 53 53 53 53 45 46 46 50 46 45 49 47 48 49 48 48 49 49 48 47 47 48 46 45 46 44 47 44 44 44 43 42 40 40 40 41 42 42 41 41 40 40 41 41 43 43 45 45 45 45 46 45 44
53 52 53 49 45 47 49 46 47 49 49 47 48 47 47 48 48 50 49 48 48 48 46 48 48 53 51 46 45 44 43 42 42 42 41 40 43 45 41 42 42 40 39 39 39 40 43 43 44 46 45 45 44 44
49 54 51 51 49 48 46 47 46 47 46 47 46 46 46 46 46 47 49 48 49 49 50 49 50 50 47 48 45 45 43 42 41 42 43 43 41 40 41 41 41 40 40 40 40 40 43 45 45 45 45 43 43 45
51 51 53 53 50 46 45 49 48 50 49 48 47 46 47 45 47 50 48 50 51 50 52 49 49 50 46 45 45 44 44 42 40 41 41 40 39 39 40 40 41 41 40 40 41 41 42 44 45 45 45 44 45 44
51 49 48 50 49 43 50 48 49 51 50 47 46 49 46 46 48 45 44 46 50 52 51 50 51 48 44 43 41 41 42 42 40 39 39 40 40 39 39 39 40 41 40 41 41 41 43 44 44 46 46 44 43 43
44 44 44 37 45 46 47 52 52 50 49 49 47 45 44 46 44 46 46 47 49 49 48 47 45 45 43 40 40 41 41 42 41 41 40 40 39 40 41 41 41 41 42 44 43 43 42 43 44 45 46 46 44 44
37 44 41 46 47 46 48 48 50 47 46 47 47 46 45 44 43 44 47 49 48 49 48 47 44 42 41 42 41 41 43 42 42 42 41 41 42 42 40 40 41 43 43 43 44 45 44 45 45 45 45 45 42 46
37 42 46 47 48 49 48 49 50 48 50 48 45 45 47 44 44 46 50 52 51 52 48 45 45 45 44 42 41 42 42 43 45 44 42 42 42 43 44 43 44 44 45 47 47 47 45 46 46 46 45 45 46 47
46 46 45 47 46 48 49 52 50 48 48 48 48 48 48 48 48 49 52 55 54 47 45 43 43 45 44 44 44 43 41 41 42 42 43 43 41 42 43 44 44 42 45 47 48 48 48 47 47 47 47 46 46 47
44 46 47 46 48 47 48 49 48 47 50 48 49 48 50 50 52 50 50 50 46 47 45 45 43 43 43 42 42 42 44 46 46 43 43 41 42 45 44 45 45 45 46 47 42 45 48 48 48 47 47 46 46 46
45 46 46 48 47 47 49 50 49 50 50 51 52 50 49 50 50 50 49 48 47 48 49 48 46 46 45 45 43 42 43 44 48 48 43 42 44 46 45 46 46 46 46 47 48 48 44 47 46 48 47 47 46 46
48 46 48 49 49 49 50 51 52 52 51 50 50 49 48 49 51 50 50 49 48 48 47 46 44 45 46 44 45 44 43 45 45 48 48 47 46 46 46 47 47 46 47 48 48 48 48 47 47 47 48 48 48 46
47 48 49 47 47 50 51 51 52 49 49 50 47 48 48 49 48 49 50 50 48 47 47 48 47 47 46 47 47 47 46 51 46 48 49 47 47 47 47 47 47 47 48 48 49 48 49 48 47 47 47 48 48 49
49 50 50 49 47 48 49 50 48 46 47 46 47 48 48 48 47 50 49 48 50 52 50 49 47 46 47 47 47 46 43 46 45 44 43 43 44 45 47 47 48 48 49 49 49 49 50 50 49 49 48 48 49 49

GFSWCAN_sfc_temp_069.txt.gz
Temp
56 56 57 57 57 56 56 56 56 56 56 56 57 57 58 58 57 60 59 57 60 56 58 59 61 55 53 54 51 51 50 50 50 41 39 36 36 37 34 36 38 39 37 36 36 33 32 51 48 43 47 48 49 49
56 56 56 57 56 56 56 56 56 55 56 56 56 57 57 57 57 57 60 58 58 58 59 58 64 65 65 63 57 51 52 49 51 42 40 40 37 39 37 35 43 35 40 37 40 41 48 51 51 53 52 49 50 50
55 55 56 56 56 56 56 56 56 55 56 55 56 57 57 57 57 56 58 56 59 56 59 60 61 64 65 66 68 57 54 54 50 54 48 44 37 43 36 37 40 44 44 39 38 47 47 50 51 52 53 52 52 53
55 55 55 56 56 55 56 56 56 55 55 55 56 56 56 56 56 56 58 56 58 55 53 58 64 62 65 65 65 64 58 55 54 54 51 47 44 46 42 42 41 45 44 42 41 47 47 49 51 53 52 53 52 54
54 55 55 55 55 55 56 56 56 55 55 55 55 55 55 56 55 56 56 57 58 57 53 55 61 62 63 63 63 61 59 52 48 48 49 45 48 45 46 44 40 46 44 39 40 50 51 51 52 53 52 52 53 53
54 54 55 55 55 55 56 56 56 55 55 55 55 55 55 55 54 59 57 59 60 60 55 51 59 58 61 61 59 58 57 54 52 46 45 45 49 44 38 36 49 49 51 53 51 53 53 54 54 55 53 54 55 54
54 54 54 55 55 54 55 55 56 55 55 55 55 55 55 54 55 58 57 59 55 59 56 51 54 59 59 57 58 58 56 51 51 47 45 49 45 43 39 36 48 51 52 51 53 51 49 51 53 55 54 55 54 55
54 54 54 54 54 54 55 56 56 55 55 55 55 54 54 54 54 57 61 55 57 59 57 48 52 54 59 54 51 54 50 50 48 50 48 43 42 40 34 45 47 51 53 51 51 53 55 54 55 54 55 54 53 53
53 54 54 54 53 55 55 55 55 55 55 54 54 54 54 55 56 58 57 57 59 57 50 48 44 49 56 51 52 51 53 45 50 46 45 44 40 34 42 47 48 50 50 52 53 53 53 51 54 54 54 54 52 53
53 53 54 53 54 55 55 55 55 54 54 54 53 53 54 57 58 59 59 54 55 55 52 46 49 46 53 51 50 50 50 48 44 43 46 41 39 50 50 46 48 50 52 53 51 50 51 51 54 54 54 55 55 55
53 53 53 54 55 55 55 54 54 53 53 51 53 54 56 56 59 55 50 50 49 46 48 47 47 50 52 49 50 50 46 47 39 43 42 37 37 48 52 53 54 55 53 55 59 61 59 58 57 54 56 56 55 55
53 53 54 55 55 55 54 53 54 52 53 52 54 53 56 55 52 48 48 49 46 46 50 49 49 50 51 52 50 47 46 45 40 48 41 33 45 52 52 55 56 57 57 57 57 57 58 57 58 57 57 57 57 57
54 54 54 54 54 55 54 53 52 53 52 53 54 52 52 51 41 44 42 44 47 53 54 51 50 51 48 51 47 46 44 41 48 41 34 41 52 53 53 54 55 57 57 57 57 58 58 57 58 57 56 58 58 55
54 54 54 54 54 54 54 54 53 53 52 53 51 39 47 45 47 52 51 55 56 57 54 53 50 50 49 48 48 44 46 46 40 36 36 50 52 53 53 55 54 55 55 55 56 57 57 56 56 57 57 58 56 54
54 54 54 54 54 54 54 53 53 54 53 52 51 40 48 57 57 57 56 54 55 56 53 50 50 51 49 46 47 45 41 37 42 43 49 53 53 51 53 54 54 54 54 54 54 54 55 56 55 55 57 58 57 55
53 54 55 54 53 53 52 52 53 53 52 51 50 50 56 54 56 55 56 55 55 54 54 55 51 48 47 47 43 42 42 41 48 50 54 52 51 52 52 53 54 54 54 54 54 52 52 49 49 51 54 56 56 55
54 57 54 54 53 52 52 54 53 51 53 51 50 56 56 54 54 57 57 59 57 58 54 54 48 47 49 43 42 47 46 52 54 55 54 51 50 51 52 53 52 53 53 52 52 52 49 51 51 50 48 51 55 56
54 56 55 54 54 53 54 52 52 52 49 52 52 59 57 57 57 57 57 56 55 56 53 52 52 48 39 36 44 52 54 54 55 53 52 51 51 51 51 52 52 52 51 51 51 51 50 47 43 46 44 47 51 54
55 56 54 54 55 54 52 53 52 50 54 57 58 59 58 57 58 58 59 58 56 54 54 53 48 42 40 46 51 56 54 57 55 52 51 50 51 51 51 52 51 50 50 50 50 50 49 49 46 44 44 48 50 55
53 53 53 53 55 52 51 53 55 51 53 59 56 55 57 57 58 58 60 56 53 51 50 48 46 46 47 55 58 58 59 57 57 56 52 53 52 52 51 51 50 50 50 50 50 46 50 52 50 46 46 49 52 53
54 53 53 54 52 52 52 53 53 56 59 55 57 56 57 57 58 59 56 53 50 50 46 48 49 54 59 57 57 58 55 57 56 56 54 53 54 54 53 52 52 53 53 51 49 48 46 47 48 47 46 51 54 56
56 54 53 51 51 50 48 54 54 57 55 59 55 55 55 54 54 54 54 53 51 49 51 52 57 58 55 55 55 56 53 53 53 52 50 51 53 53 52 53 54 52 51 50 52 48 44 45 48 49 48 48 49 55
52 53 54 53 50 47 48 57 53 58 54 57 55 53 53 53 55 57 54 55 53 53 55 55 54 55 55 54 53 53 54 54 55 54 54 53 53 53 54 54 54 51 50 49 52 50 43 43 46 50 53 53 55 54
52 52 51 52 50 46 55 54 57 57 57 53 52 53 52 52 55 53 53 55 56 57 56 51 50 54 54 54 54 54 54 56 54 53 54 55 53 52 54 54 55 53 52 55 54 52 52 50 46 52 54 55 55 55
45 45 46 38 50 49 51 54 56 54 54 54 53 52 52 53 50 49 49 54 54 55 50 53 56 58 55 53 54 54 53 57 55 54 54 56 54 55 54 55 55 55 58 57 55 54 52 54 54 54 54 54 54 54
37 48 43 51 54 51 55 53 54 56 54 53 53 52 53 50 48 45 50 50 51 51 49 55 57 55 55 57 55 56 56 57 57 56 54 57 56 55 54 53 54 54 57 57 57 55 55 56 55 55 55 53 44 55
39 49 54 57 56 56 56 58 58 54 54 53 52 50 50 47 45 50 54 56 54 57 59 60 60 61 58 56 57 57 57 58 57 57 57 57 57 57 58 55 54 55 59 59 59 58 55 55 56 55 55 56 56 56
52 53 50 55 55 57 55 57 56 55 54 53 52 48 46 48 51 58 60 59 61 59 60 59 60 63 62 60 60 57 56 56 55 55 55 56 57 58 57 58 57 41 57 59 59 59 59 58 57 56 56 55 55 56
52 56 55 52 55 56 56 56 57 56 55 55 54 51 52 56 60 61 59 60 60 60 59 58 57 58 58 57 57 59 58 58 56 53 52 53 54 55 59 59 59 59 60 58 41 50 56 57 57 57 56 57 57 57
53 57 54 55 54 55 60 59 57 57 56 58 58 57 59 59 61 60 59 59 59 61 64 64 61 60 59 58 56 55 58 60 62 59 55 54 56 59 59 59 59 59 60 60 59 57 45 55 52 59 57 58 57 56
58 55 55 56 56 59 59 59 58 58 58 58 58 57 59 60 61 62 62 62 63 62 61 61 58 60 59 59 58 57 56 58 58 59 62 63 62 60 60 59 60 60 60 60 60 60 60 59 58 57 56 55 55 54
55 55 56 55 56 57 58 57 59 57 57 56 56 58 58 58 57 61 62 61 61 61 57 61 61 61 60 63 63 63 49 64 59 60 59 61 62 61 61 61 60 60 60 60 60 60 59 57 58 57 56 54 54 55
57 57 57 58 54 53 55 55 55 54 55 55 55 58 59 60 56 61 59 60 63 65 64 61 62 64 60 60 60 60 52 61 56 48 47 48 49 53 61 62 61 60 59 60 60 60 58 56 57 56 56 55 55 55

GFSWCAN_sfc_temp_072.txt.gz
Temp
55 56 56 57 57 57 57 57 57 56 56 56 57 58 58 58 58 64 70 69 69 70 70 68 69 64 65 67 63 60 60 60 61 52 51 45 45 44 41 45 47 48 44 44 49 43 37 61 56 51 56 59 59 58
55 55 56 56 57 57 57 57 56 56 56 56 57 57 57 57 57 58 73 71 70 69 69 71 74 74 71 71 70 64 62 59 65 58 55 52 45 50 46 43 53 42 50 46 49 50 56 61 59 60 61 59 58 59
55 55 55 56 56 56 56 56 57 56 56 56 56 57 57 57 57 58 72 70 70 70 69 69 68 74 77 76 80 67 68 64 62 65 64 62 45 55 45 46 49 54 55 45 47 57 57 59 61 61 61 61 61 61
54 55 55 56 56 56 56 56 56 56 56 56 55 56 56 56 56 56 70 71 70 69 65 66 74 70 75 76 75 75 70 69 68 67 64 61 54 58 55 53 49 58 55 51 50 56 57 59 61 61 60 61 60 61
54 54 55 55 55 56 56 56 56 56 55 55 55 56 56 56 56 62 71 73 72 65 65 68 71 72 75 73 71 72 70 63 58 58 56 51 60 57 59 57 50 58 54 46 46 59 57 59 61 62 59 59 60 59
53 54 54 55 55 55 55 56 56 56 55 55 55 55 56 55 55 68 65 71 74 71 65 63 70 67 69 70 70 68 68 67 67 55 58 50 58 51 45 41 55 62 63 63 60 63 63 62 62 63 61 61 62 61
54 54 54 54 55 55 53 56 56 56 55 55 55 55 55 54 63 66 64 65 61 71 65 63 64 67 67 67 69 68 67 62 64 56 52 49 48 46 41 38 56 60 62 61 63 62 57 60 59 62 62 62 60 62
53 54 54 54 55 54 53 56 56 56 56 55 55 54 54 54 55 64 69 57 61 67 67 61 63 63 67 65 61 69 63 62 59 58 53 50 45 43 38 51 57 54 57 60 61 62 64 64 63 62 63 62 60 60
53 53 54 54 54 53 55 56 56 56 55 55 54 54 61 63 67 67 58 58 68 65 61 60 58 59 67 65 66 60 63 49 58 53 51 50 43 37 49 56 53 53 54 58 61 61 62 61 61 61 61 60 59 61
53 53 54 54 53 54 55 55 55 55 54 54 58 62 62 66 57 60 63 62 62 64 65 57 64 58 65 64 60 58 59 53 48 49 52 44 42 57 60 60 56 53 59 60 58 57 59 59 60 61 61 63 63 63
53 53 53 53 54 55 55 55 54 53 53 60 63 63 65 58 65 62 54 56 54 54 61 61 59 62 65 56 53 59 53 54 45 48 45 40 41 57 61 58 58 60 63 60 58 61 65 63 63 63 63 64 64 63
53 53 54 55 55 55 55 54 53 58 64 58 62 63 66 62 58 51 51 53 50 56 61 61 63 61 60 65 55 54 50 53 43 57 46 37 52 59 60 60 61 63 63 63 64 63 64 65 66 65 65 64 65 65
55 55 55 55 55 55 55 53 53 53 55 64 62 59 60 57 43 47 47 52 55 63 64 59 56 58 54 58 56 54 48 48 58 47 39 45 59 61 61 62 62 64 64 63 63 64 64 64 65 64 63 65 66 65
55 55 54 54 54 55 55 53 53 56 59 61 57 41 51 51 54 61 62 63 67 69 66 61 56 54 56 54 56 48 53 54 42 39 40 57 58 60 61 62 61 61 62 62 61 61 61 61 61 62 63 64 64 61
54 54 54 55 54 54 54 54 53 60 61 58 59 44 56 65 68 71 70 68 69 72 63 59 61 58 54 51 56 52 46 43 47 47 59 61 61 59 59 60 60 61 61 60 61 61 60 61 60 59 60 62 62 62
54 55 59 54 53 53 52 54 57 63 62 59 58 57 65 64 67 68 67 63 69 67 64 63 57 54 52 54 47 45 46 45 56 62 61 60 58 58 59 60 59 60 60 60 59 58 59 57 55 52 51 53 60 61
54 58 55 53 53 52 53 59 62 58 60 58 61 66 66 66 65 68 70 71 69 62 56 58 50 50 55 44 41 50 48 57 61 61 61 58 58 57 59 59 59 59 58 59 58 55 57 58 58 55 53 51 53 55
55 58 55 54 55 55 60 58 59 58 55 62 60 68 69 68 67 69 70 68 64 62 60 55 61 50 44 37 41 54 62 67 61 60 62 59 58 58 60 58 58 58 58 57 57 56 56 54 51 49 46 50 55 49
55 59 55 55 58 60 60 59 58 57 62 66 67 69 69 69 70 69 69 70 69 65 59 49 45 41 40 44 51 61 67 66 61 61 60 58 59 58 58 59 59 58 57 56 56 57 58 54 50 45 44 47 49 47
53 54 53 53 55 60 56 60 63 55 59 67 68 66 67 67 70 71 71 68 63 54 48 47 46 47 49 56 64 65 67 67 66 61 57 60 62 59 58 60 59 59 62 60 61 50 59 52 53 49 46 47 49 52
54 58 54 57 60 60 60 62 61 63 66 65 71 67 67 70 62 67 64 59 57 56 48 50 53 60 63 64 68 63 63 67 64 63 62 60 63 63 62 63 62 63 61 60 58 50 52 49 51 50 50 51 54 56
65 54 58 58 56 56 57 64 62 66 63 67 66 67 64 61 62 65 60 59 59 50 51 53 58 60 61 62 60 61 62 61 61 59 53 55 60 60 61 62 61 60 59 58 50 46 47 48 53 53 56 55 55 60
54 58 60 56 51 49 52 66 59 64 59 64 66 60 61 61 64 67 59 61 59 59 60 60 58 63 62 61 61 62 62 61 61 61 61 61 62 63 63 61 63 60 58 56 55 52 54 48 54 57 60 62 62 61
52 57 53 54 53 50 61 56 63 63 65 59 59 59 59 59 63 55 52 54 62 65 56 52 53 62 62 61 62 61 63 64 62 61 63 62 61 60 62 62 62 62 63 58 58 58 57 57 51 62 62 62 62 60
47 48 50 39 54 52 53 59 61 61 58 62 59 59 57 63 53 51 51 53 58 62 57 55 64 66 64 63 63 61 63 66 62 59 62 63 62 62 61 62 62 64 67 63 62 61 58 59 61 61 62 60 58 57
39 54 46 57 60 57 61 57 59 60 61 60 59 61 63 57 51 50 55 56 55 59 58 65 65 64 64 65 63 62 63 67 65 61 62 66 66 63 61 59 59 60 67 67 62 60 60 59 59 58 57 55 46 56
43 55 61 66 64 64 62 66 67 63 59 58 59 52 48 43 50 59 63 65 60 66 69 70 69 67 65 65 65 66 66 67 65 64 64 66 66 68 66 62 59 62 67 67 65 63 60 59 59 59 58 59 59 58
59 61 56 62 62 65 59 62 61 60 63 63 61 54 52 49 55 65 67 68 70 70 70 71 72 71 69 67 68 67 66 66 65 65 65 65 67 66 65 65 65 43 64 65 64 67 65 63 61 60 60 60 60 62
58 64 63 58 61 63 63 63 65 68 64 63 59 59 59 65 70 68 68 70 72 71 68 67 68 70 69 68 68 68 68 66 61 57 56 58 58 61 66 66 65 67 66 64 41 50 59 61 61 62 61 62 63 64
60 67 61 61 59 60 68 72 69 70 68 67 69 68 68 69 71 73 71 70 69 69 71 71 70 69 67 66 64 65 68 69 69 66 62 61 61 65 65 65 65 66 67 66 64 62 45 56 53 62 62 64 63 62
69 65 61 62 63 69 71 74 71 67 67 68 70 65 69 68 70 72 71 72 73 73 72 70 70 71 70 68 67 63 63 68 68 67 69 69 67 66 65 65 66 67 67 68 68 68 66 65 66 63 61 59 58 58
64 61 62 59 65 68 68 66 67 65 62 60 64 68 67 65 63 68 71 72 70 70 64 68 70 70 73 73 73 72 50 71 69 68 66 68 67 67 67 67 67 68 67 67 67 67 64 63 65 62 62 59 59 59
64 65 65 64 64 60 62 62 63 61 62 62 63 65 66 67 62 69 70 72 73 73 71 68 70 74 72 71 72 71 59 71 64 53 51 50 52 57 67 68 68 67 65 66 67 66 63 60 63 60 59 59 59 59

GFSWCAN_sfc_temp_075.txt.gz
Temp
55 55 56 57 57 57 57 58 57 57 57 57 57 58 58 58 58 65 78 78 74 75 76 75 75 71 71 72 67 67 66 67 67 59 57 51 48 51 48 53 54 55 49 48 55 51 44 67 64 57 61 66 67 66
55 55 56 56 56 57 57 57 57 57 57 57 57 57 57 58 58 58 78 79 78 73 76 80 81 81 77 76 75 70 68 66 70 64 63 60 51 58 53 47 60 48 57 47 55 53 63 66 65 67 69 65 65 66
55 55 55 56 56 56 57 57 57 57 57 56 56 57 57 57 57 58 77 78 78 74 76 76 74 80 84 82 85 70 74 72 69 71 71 67 52 61 51 52 56 61 63 52 54 62 62 65 67 67 67 67 67 68
55 55 55 55 56 56 56 57 57 57 57 56 56 56 56 57 57 57 76 79 76 75 70 73 82 76 82 84 80 80 76 76 75 72 67 62 54 65 57 59 55 62 63 57 57 62 63 65 67 67 66 67 66 67
54 54 55 55 55 56 56 57 57 57 57 56 56 56 56 56 56 63 77 81 81 71 69 73 79 80 81 79 77 78 76 73 71 65 62 59 61 62 63 60 56 66 60 53 50 64 63 63 68 69 65 64 66 65
54 54 54 54 55 55 56 57 57 57 56 56 56 56 56 56 56 72 70 78 83 78 69 68 77 73 76 77 75 74 73 70 65 60 66 60 64 61 51 46 62 66 65 66 63 69 68 69 68 69 66 66 67 66
54 54 54 54 55 55 55 54 57 57 56 56 56 55 55 55 64 69 66 68 62 76 70 69 69 73 74 74 75 73 72 68 69 60 59 62 55 57 44 41 60 64 66 61 68 66 64 66 64 68 68 67 64 68
53 54 54 54 55 55 54 53 57 57 56 56 55 55 55 55 57 67 72 59 63 71 73 66 68 68 75 67 62 75 64 63 62 62 62 54 53 54 41 56 62 60 62 62 62 67 68 69 69 67 68 67 64 64
53 53 53 54 54 54 53 55 57 57 56 55 55 55 63 64 70 69 59 59 73 68 63 68 63 55 74 71 70 69 67 53 63 54 54 56 51 41 53 59 62 62 59 59 61 60 67 66 66 66 66 65 64 65
53 53 53 54 53 53 53 56 56 56 55 55 59 66 66 69 59 62 67 62 60 67 70 64 76 63 71 68 62 58 59 57 50 55 61 51 46 59 63 66 65 63 62 59 54 52 59 61 64 65 65 66 67 65
53 53 53 53 53 54 55 55 55 54 52 65 67 68 70 58 70 65 57 55 57 60 69 70 70 63 74 60 58 64 59 62 49 54 53 48 44 60 66 65 66 64 63 65 67 66 65 63 65 65 66 65 64 64
53 54 54 54 55 56 55 55 54 59 71 63 64 68 72 67 62 54 54 57 55 60 69 67 67 71 66 71 60 62 57 59 48 60 50 40 54 63 65 66 67 66 65 64 67 67 67 67 67 64 66 66 66 67
55 55 56 56 56 56 55 54 53 55 54 70 67 64 64 58 45 49 50 56 61 68 70 67 62 66 66 68 60 58 52 51 64 52 42 50 62 65 66 66 66 67 67 67 65 64 63 62 62 61 61 63 68 65
55 55 55 55 56 55 55 54 54 58 64 65 62 43 56 53 59 64 64 64 72 74 71 66 60 59 63 58 58 51 54 60 47 42 43 61 59 63 66 66 66 65 66 66 66 66 65 64 63 63 62 64 63 65
54 55 56 56 55 55 55 54 54 65 68 63 64 46 60 69 73 70 70 71 73 75 73 63 58 57 55 52 57 52 49 45 49 50 57 53 61 64 63 65 65 65 65 64 63 60 60 62 62 64 64 61 63 63
54 54 60 54 54 53 53 54 60 69 68 64 63 62 70 69 71 75 72 73 78 74 71 64 57 53 52 52 48 44 44 44 55 58 66 65 61 62 61 62 64 65 64 65 65 65 64 63 62 62 63 61 61 59
54 59 54 54 53 53 55 64 69 63 65 63 65 73 71 70 70 73 75 77 79 72 59 57 51 52 56 46 41 47 47 55 63 66 63 62 61 60 63 63 63 63 62 63 62 61 61 63 61 61 59 60 60 59
58 57 55 54 55 58 66 66 66 65 60 67 66 70 74 75 72 73 76 73 73 66 65 58 61 44 39 36 38 48 57 63 68 66 64 61 61 62 64 62 62 62 62 62 61 61 61 59 57 59 58 56 55 51
57 56 55 55 58 61 66 65 66 61 66 71 73 74 74 74 76 77 76 73 70 72 65 60 44 41 42 50 55 61 64 68 64 63 64 62 63 61 61 63 63 62 59 59 61 62 59 57 55 55 50 47 46 48
54 54 54 54 55 64 61 66 70 61 62 71 73 72 73 73 76 76 73 71 65 62 53 48 48 55 59 63 64 63 67 70 68 62 62 61 65 61 61 62 64 64 65 64 62 53 61 56 54 51 46 46 45 48
51 61 55 60 62 64 65 67 66 68 70 68 74 74 69 70 71 64 66 68 60 56 53 56 62 67 69 69 69 72 68 68 68 66 65 67 67 67 67 69 67 67 65 63 60 57 54 51 54 50 47 47 50 52
66 55 69 63 62 62 62 69 66 70 67 70 71 72 69 63 62 62 71 60 57 64 65 65 62 62 60 62 66 68 66 65 64 63 56 57 66 65 65 66 66 62 61 61 59 57 55 52 57 57 59 56 55 61
54 61 66 63 57 54 54 71 63 68 62 65 71 62 59 60 67 72 61 59 61 67 65 65 64 62 62 65 66 66 66 66 66 66 67 67 67 68 68 68 67 62 59 61 61 58 57 50 57 58 63 61 61 60
53 62 59 59 57 51 65 59 65 67 69 63 61 61 61 62 68 66 56 56 63 66 61 56 61 62 65 64 66 66 68 70 67 67 68 68 66 65 69 67 67 67 64 66 61 59 61 64 52 63 63 61 62 61
50 51 53 42 61 56 59 61 63 63 60 61 61 59 57 66 59 57 56 61 58 60 64 60 57 63 64 68 68 67 67 71 68 65 68 68 66 66 67 67 67 67 69 66 63 63 62 64 63 62 62 61 59 59
42 57 48 61 63 60 65 60 59 60 64 63 62 64 62 51 48 52 57 63 61 64 67 66 66 69 69 70 67 67 68 72 69 66 67 72 72 69 66 63 62 65 70 68 66 62 62 64 65 61 62 57 48 59
45 58 65 70 69 69 67 69 69 66 64 60 60 59 61 52 52 61 69 70 68 71 74 76 74 73 70 70 70 70 72 72 70 68 70 72 74 73 71 68 63 66 72 70 68 65 62 62 61 62 61 65 64 63
62 65 61 66 67 70 64 65 65 63 65 69 67 56 57 58 56 69 72 74 75 75 76 77 77 76 74 72 72 71 70 70 69 70 70 70 72 73 69 70 68 48 65 66 65 69 68 66 65 64 63 62 63 64
62 68 69 63 65 67 67 67 67 75 71 66 61 59 62 71 73 74 74 76 77 76 73 73 73 75 74 73 73 73 72 70 65 60 60 62 63 66 70 69 68 68 69 66 44 52 60 62 64 65 64 66 64 64
64 71 66 65 64 64 70 76 74 78 78 76 75 72 72 74 77 79 77 76 74 73 74 75 75 73 71 70 70 70 73 74 72 70 66 65 66 70 70 69 70 71 70 69 67 65 48 58 56 63 63 66 65 62
74 72 66 67 66 72 76 80 80 77 74 74 76 71 65 72 75 78 77 77 77 77 75 74 73 75 73 72 71 68 68 73 73 72 72 75 72 70 70 70 71 71 71 72 72 71 69 66 68 65 64 61 60 59
69 66 66 64 68 75 76 72 71 66 68 69 67 71 72 71 68 72 77 77 75 74 68 70 73 73 76 78 77 77 53 76 73 72 70 72 71 71 71 71 72 71 70 69 69 70 67 65 68 65 65 61 61 60
69 71 70 69 68 68 71 68 68 64 65 64 66 71 72 70 62 71 78 79 76 74 76 76 75 77 75 76 77 76 64 75 67 54 49 51 54 60 70 72 72 71 68 68 70 69 65 64 65 63 62 62 62 61

GFSWCAN_sfc_temp_078.txt.gz
Temp
55 56 56 56 57 57 57 58 58 58 58 58 58 58 58 59 58 62 78 79 74 73 78 79 78 73 74 73 67 68 68 69 68 60 59 52 50 55 51 56 55 54 51 50 55 50 45 69 66 58 62 68 68 68
55 55 56 56 56 57 57 58 58 58 58 58 58 58 58 58 58 58 73 81 80 73 76 83 83 83 80 78 74 72 68 68 69 65 63 61 53 59 54 47 62 50 58 49 56 52 63 67 66 69 70 66 67 67
55 55 55 56 56 56 57 57 58 58 58 58 58 58 58 57 58 59 72 78 79 74 77 78 76 83 86 85 86 70 72 73 71 72 67 66 55 63 52 54 58 63 66 56 56 62 63 65 69 70 70 69 69 70
55 55 55 55 56 56 56 57 58 58 58 58 57 57 57 57 57 57 71 80 77 75 69 73 85 79 86 86 83 82 77 77 76 73 68 64 58 66 58 59 56 62 64 59 58 62 65 67 68 68 68 70 69 70
54 55 55 55 55 56 56 57 57 58 58 57 57 57 57 57 56 62 73 80 81 71 65 73 81 83 83 82 79 79 77 73 72 65 64 61 64 61 63 60 54 65 59 53 51 64 63 64 69 70 67 66 68 67
54 54 54 55 55 55 56 56 57 58 58 57 57 57 57 56 56 68 70 79 83 79 68 65 79 76 80 79 77 75 76 73 71 67 64 63 68 61 54 51 61 66 65 63 59 63 64 69 71 72 68 68 68 68
54 54 54 54 55 55 55 56 56 57 57 57 57 56 56 56 62 67 63 66 61 75 69 68 70 76 77 76 76 74 76 72 68 65 61 64 56 61 53 46 61 65 67 66 67 67 60 66 65 70 70 70 67 69
54 54 54 54 55 55 55 54 54 56 57 56 56 56 56 55 57 67 73 58 62 71 74 65 66 68 77 70 66 75 67 68 67 63 62 56 59 58 46 57 62 65 67 65 65 67 61 63 67 68 70 69 66 65
53 53 54 54 54 54 54 53 55 57 57 56 56 56 62 63 71 69 61 62 73 68 62 68 61 58 76 70 66 63 67 56 67 57 56 57 52 41 53 58 62 65 64 63 64 65 59 56 64 66 66 67 65 65
54 53 53 54 54 53 53 54 56 56 56 56 58 65 63 69 61 64 67 63 64 68 69 64 73 57 71 65 60 63 63 56 51 57 61 52 48 59 62 65 66 66 66 65 60 58 58 58 58 63 65 64 65 66
54 54 54 53 53 53 54 54 54 54 52 64 65 68 70 59 71 67 57 58 60 58 68 70 70 65 74 63 58 64 57 59 48 52 53 47 46 60 66 66 67 68 67 65 63 64 62 55 53 59 63 65 65 67
54 54 54 54 55 55 55 55 55 58 70 61 63 70 74 68 65 55 53 58 57 58 67 68 68 71 68 73 60 63 56 58 48 61 53 41 53 62 65 65 66 67 66 65 65 62 59 59 61 64 66 67 67 68
56 56 56 57 57 56 56 55 54 55 57 71 67 65 66 61 45 50 49 55 58 65 69 68 66 65 63 66 58 58 53 49 59 52 44 47 62 63 65 67 67 67 67 65 64 65 67 64 62 64 61 64 64 58
56 56 57 57 57 56 56 55 54 57 61 65 62 40 57 55 58 63 62 65 70 72 60 64 64 59 56 50 53 49 50 51 44 44 43 57 57 54 63 67 67 65 64 65 61 64 60 59 60 62 61 59 60 53
54 54 57 57 56 56 55 55 54 62 66 64 66 46 60 68 73 73 75 67 71 71 68 61 60 60 56 54 52 48 43 39 46 48 55 55 58 58 62 64 65 65 64 60 60 60 61 61 59 59 61 60 62 63
54 53 57 55 55 54 54 55 60 67 68 66 65 63 70 70 71 75 72 74 73 68 73 68 59 55 51 48 44 40 39 39 53 56 55 54 59 61 62 64 62 62 62 62 64 61 62 60 60 60 61 61 60 62
52 64 54 54 55 54 55 60 68 65 65 64 66 72 71 71 70 73 76 76 81 72 59 60 53 52 53 42 42 46 45 57 62 53 55 61 60 61 63 62 62 63 62 62 61 59 58 59 62 60 59 60 62 61
61 59 55 54 54 61 67 63 67 67 61 67 65 70 73 74 73 75 77 79 74 63 64 58 63 54 44 39 44 55 60 64 63 55 61 62 62 61 62 61 62 62 61 60 60 62 59 58 57 55 57 57 55 55
56 57 56 56 58 60 65 67 68 61 66 71 73 75 75 75 77 78 78 73 74 66 70 64 52 47 48 53 57 63 63 63 60 64 63 63 62 61 62 64 64 64 63 62 62 62 60 56 54 55 51 49 46 48
53 54 54 54 55 63 63 66 72 64 62 68 73 72 73 74 76 72 69 57 57 63 60 58 58 56 62 65 67 64 68 70 69 63 61 65 64 63 62 64 65 64 66 63 61 57 60 54 51 54 50 47 46 47
57 63 56 59 60 64 65 67 67 68 70 68 72 73 71 67 53 53 54 61 60 59 60 64 64 67 68 69 67 64 58 68 67 66 65 62 67 68 67 68 68 66 64 62 59 55 55 49 54 55 50 47 50 55
66 56 68 62 62 62 63 70 67 70 67 68 69 72 69 56 54 58 62 59 60 57 65 64 61 63 63 63 68 69 66 67 65 64 56 60 66 66 65 67 66 63 61 58 56 56 55 54 58 60 61 60 54 60
59 61 66 67 59 55 54 70 62 66 61 65 66 61 62 56 55 60 60 63 66 68 65 65 65 65 60 65 67 67 67 67 67 67 67 68 67 68 68 67 67 63 60 60 62 63 57 51 56 57 59 61 61 60
53 62 61 59 58 52 67 63 67 65 64 61 61 59 55 53 61 61 57 63 66 67 65 62 66 64 63 64 66 67 67 70 68 68 69 68 66 66 68 68 68 67 66 65 64 64 61 62 56 60 63 58 62 57
49 50 53 41 61 57 59 61 63 60 61 62 60 55 56 60 57 57 55 59 64 65 65 67 66 67 65 68 69 68 68 71 69 66 69 69 67 67 67 68 68 68 69 63 64 63 63 64 64 63 63 62 61 58
42 58 47 61 63 61 63 58 59 58 62 59 61 61 62 58 51 54 60 63 64 66 65 68 67 69 68 72 69 68 69 73 70 67 68 71 70 69 66 65 64 65 70 69 66 64 63 64 63 62 61 59 49 59
45 57 65 70 67 65 65 70 69 63 61 59 62 60 59 55 54 60 71 72 66 68 69 75 72 72 72 71 72 72 73 72 71 70 71 72 74 73 71 67 65 66 71 70 68 66 65 64 64 64 63 63 63 63
61 65 61 67 68 71 65 66 65 62 65 70 65 56 55 58 60 69 74 76 77 77 77 78 78 77 76 74 74 72 72 72 71 71 71 71 72 73 70 70 68 50 65 65 66 68 67 67 65 64 63 62 63 64
61 68 69 64 67 69 68 67 68 73 73 72 64 54 55 65 75 75 76 77 79 77 75 74 75 77 75 74 74 74 73 71 67 62 61 63 64 67 70 69 68 69 69 67 45 54 61 63 63 64 65 64 64 64
65 72 67 67 65 64 70 76 75 78 76 74 69 62 65 72 78 81 78 77 75 74 75 76 76 74 72 71 70 71 74 75 72 69 65 65 67 71 70 70 70 71 70 68 67 64 49 59 58 63 62 63 64 63
73 72 68 68 67 72 76 80 81 81 76 73 68 63 68 65 77 80 79 78 77 77 76 73 73 75 74 73 72 69 69 74 74 73 72 74 74 71 71 71 71 71 70 71 70 68 67 65 65 64 64 63 61 59
71 68 68 65 68 76 79 76 71 63 64 64 69 68 70 65 65 74 79 79 77 75 69 73 75 74 77 78 77 77 56 77 75 73 71 72 72 71 72 72 72 72 70 69 69 69 67 65 67 65 65 61 62 61
71 72 71 70 69 70 74 73 68 62 64 63 66 69 63 66 58 58 76 81 74 75 78 78 79 78 77 77 76 76 67 77 68 52 49 51 56 63 71 72 72 71 70 69 70 70 67 66 65 65 64 63 63 62

GFSWCAN_sfc_temp_081.txt.gz
Temp
56 56 56 56 57 57 57 58 58 58 58 58 58 58 58 58 58 58 65 70 65 61 69 76 76 67 66 63 56 61 59 60 55 49 47 43 42 45 43 47 45 44 40 37 42 38 36 61 61 50 54 59 59 60
56 55 56 56 56 57 57 57 58 58 58 58 58 58 58 57 57 57 63 73 71 63 67 77 78 79 75 73 64 62 60 59 57 52 51 49 44 48 46 38 52 40 48 40 45 42 54 59 56 59 60 58 59 59
55 55 55 56 56 56 56 57 57 58 58 58 58 58 58 57 57 57 61 66 68 63 67 71 70 77 79 78 78 60 62 65 60 61 55 54 47 51 42 44 49 53 55 44 47 51 55 58 61 62 62 60 62 62
55 55 55 55 55 56 56 56 57 58 58 58 58 57 58 57 57 57 61 67 67 65 59 67 81 74 81 79 78 75 68 68 66 60 54 53 49 56 49 50 47 52 54 50 49 53 55 59 60 61 61 62 63 63
54 55 55 55 55 56 56 56 57 58 58 58 57 57 57 57 56 57 63 68 71 63 57 63 75 78 78 75 75 73 69 64 60 56 54 51 55 53 53 52 47 54 53 45 42 54 52 55 59 62 59 60 61 60
54 54 54 55 55 55 56 56 57 58 58 57 57 57 57 56 55 60 61 69 68 69 60 58 71 72 74 74 71 68 66 64 61 57 55 57 58 53 46 43 54 58 57 56 51 57 58 59 61 64 60 60 62 60
54 54 54 54 55 55 55 56 56 57 57 57 57 56 56 55 56 59 58 61 55 64 60 58 60 70 74 71 68 66 67 63 61 58 56 55 54 54 47 40 53 56 58 58 58 56 54 58 57 60 63 63 62 62
54 54 54 54 55 55 55 55 55 54 56 57 56 56 56 55 54 59 65 57 56 61 63 56 59 62 72 62 60 66 61 60 58 58 56 52 52 51 42 50 54 57 59 60 60 60 57 58 58 58 64 63 60 58
54 54 54 54 54 55 54 54 54 55 56 56 56 55 58 56 61 64 63 62 64 61 55 58 54 53 69 63 63 61 60 51 59 52 52 51 47 39 47 51 54 57 57 54 58 58 60 58 54 58 57 60 57 56
54 54 54 54 54 53 53 53 55 56 54 55 55 59 59 63 61 63 62 60 60 61 60 56 63 56 63 60 58 54 56 51 46 51 54 47 44 52 55 56 56 60 60 59 53 54 55 55 54 53 55 56 58 58
54 54 53 53 53 53 53 54 54 54 53 58 60 60 65 60 64 62 56 55 56 54 60 60 61 59 63 52 52 56 51 51 44 48 47 43 42 51 57 58 60 61 61 60 59 58 57 54 53 54 53 57 57 58
54 54 54 54 54 54 54 54 55 54 61 56 54 60 67 63 60 55 52 56 54 53 62 60 62 62 61 61 51 53 50 51 45 54 46 38 47 54 59 60 60 61 61 61 60 59 58 57 57 55 54 52 54 58
57 57 56 56 56 56 56 56 55 54 55 63 59 61 60 57 42 49 47 51 52 60 64 63 58 61 57 54 51 50 46 45 53 44 39 42 51 49 51 52 61 62 62 61 58 58 58 57 56 55 52 56 56 55
55 55 56 57 56 56 56 56 55 56 55 58 58 37 53 51 54 56 56 58 59 55 52 55 52 54 55 52 52 46 46 47 40 38 41 49 49 50 51 54 58 60 59 58 57 58 58 57 57 58 57 56 57 55
54 55 56 57 56 56 55 55 55 59 58 58 61 42 55 62 65 66 68 57 59 61 54 52 52 54 52 50 47 45 41 39 42 44 49 51 52 54 55 57 55 57 57 57 57 56 56 56 54 54 56 58 58 56
54 53 57 56 55 54 54 54 57 60 62 61 61 59 64 64 65 68 68 66 59 58 56 53 53 51 48 47 43 42 41 39 48 51 51 53 54 55 55 56 57 57 56 55 54 55 55 54 53 53 55 54 54 53
52 60 55 55 55 55 55 57 61 59 60 61 60 67 65 65 64 66 67 70 70 66 56 56 51 49 52 44 43 48 44 51 52 52 52 54 54 55 55 56 56 56 53 53 53 53 52 54 54 52 48 50 51 51
55 58 55 55 55 56 61 57 61 63 58 62 60 64 66 67 65 67 70 70 67 65 60 57 58 52 47 42 44 51 55 58 56 54 53 56 55 55 57 55 57 56 55 55 55 54 53 51 50 48 48 47 47 48
57 56 55 55 54 53 59 62 63 57 62 66 67 69 68 67 69 66 63 60 64 65 62 58 52 49 49 52 54 57 58 58 55 54 55 56 56 56 56 57 58 56 56 54 52 53 51 50 49 48 48 47 46 47
53 53 54 55 55 58 59 62 67 61 59 64 66 65 66 66 61 60 57 54 53 53 52 52 54 57 58 58 59 60 60 61 59 54 53 56 58 57 57 57 56 57 55 53 53 52 52 49 49 48 47 46 47 47
55 59 54 55 56 58 60 61 60 63 65 62 67 66 65 63 55 54 55 54 51 51 52 55 59 62 64 62 63 62 61 60 58 58 57 57 59 59 58 58 60 58 55 54 53 50 50 49 49 49 48 47 48 50
61 56 63 58 59 60 59 65 62 65 63 63 63 65 63 57 55 52 57 54 54 55 58 59 59 58 59 60 61 62 60 59 57 56 55 56 58 57 58 60 58 56 54 53 53 52 51 51 52 52 52 52 50 51
58 59 62 63 56 51 50 67 59 62 58 61 61 60 58 55 56 59 54 56 59 61 61 60 60 61 60 61 62 62 63 62 59 59 59 61 60 60 60 60 60 56 54 54 56 54 52 49 50 53 54 52 53 54
55 59 56 57 54 48 63 57 61 62 63 60 58 51 50 54 56 52 50 56 58 60 60 60 62 61 61 60 61 60 61 62 61 61 61 61 60 58 60 60 61 61 58 58 58 56 56 56 53 54 54 52 52 53
47 46 49 38 58 56 56 58 59 59 56 59 55 50 50 56 53 53 54 56 59 59 61 63 60 63 61 61 63 62 64 64 63 60 61 62 61 60 60 60 60 61 61 59 57 57 56 58 56 56 57 55 55 55
40 53 45 58 59 57 60 56 57 58 59 59 60 58 59 58 54 53 57 59 59 60 63 64 64 63 62 64 63 62 62 65 63 62 61 63 64 62 60 58 58 57 63 61 59 59 59 59 58 58 58 55 48 56
43 53 61 65 63 63 62 62 62 63 60 60 58 56 55 52 54 60 63 65 65 66 68 69 68 65 65 66 66 66 67 65 64 63 63 63 66 65 62 60 58 58 63 64 62 61 60 60 60 59 58 58 57 58
57 61 56 62 62 66 62 63 63 62 64 63 60 55 55 54 56 67 69 69 71 70 71 72 72 73 71 68 69 68 67 67 66 66 64 64 64 66 63 62 60 52 59 60 61 61 60 61 60 60 59 57 57 58
57 63 63 59 63 65 64 64 65 69 68 66 61 57 59 63 70 71 71 74 75 73 71 71 70 71 70 69 69 69 68 67 62 58 58 57 58 60 64 63 61 62 61 59 46 54 58 58 58 58 60 58 58 58
59 66 62 63 62 62 67 72 70 75 76 72 69 61 61 65 72 77 74 72 71 70 72 72 72 70 68 67 66 67 69 70 68 64 60 60 61 65 64 63 63 64 63 62 61 58 48 54 53 58 58 59 58 57
67 67 64 65 65 69 73 77 78 78 71 65 59 57 60 57 65 76 74 72 73 73 73 71 72 72 70 69 67 64 64 69 70 68 69 68 68 65 65 64 64 65 64 64 63 61 60 58 60 59 59 59 56 56
66 65 65 63 66 72 75 73 72 67 67 58 53 53 58 58 60 68 71 73 71 70 65 69 70 70 73 73 72 71 62 72 69 68 68 67 65 65 65 65 65 65 65 65 65 64 63 62 62 61 60 59 59 58
68 69 68 67 67 67 69 70 67 60 58 56 55 57 55 59 54 54 60 61 60 67 68 72 75 75 72 73 71 70 63 71 64 54 52 55 59 61 66 65 65 66 66 65 66 65 64 63 62 62 61 61 60 59

GFSWCAN_sfc_temp_084.txt.gz
Temp
55 56 56 56 56 56 57 57 57 58 58 58 58 58 58 58 57 53 56 58 58 51 55 64 68 58 57 52 48 53 52 52 47 42 39 35 34 38 36 42 40 39 33 30 36 32 33 56 57 49 50 52 54 56
55 55 56 56 56 56 57 57 57 57 57 58 58 58 57 57 57 56 53 62 61 56 58 64 68 69 69 65 56 51 52 49 49 44 42 41 37 40 38 32 44 36 43 37 40 38 49 52 54 54 58 55 53 54
55 55 55 55 56 56 56 56 56 57 57 58 58 58 57 57 57 55 51 54 57 53 56 58 61 67 69 68 66 54 52 55 52 52 46 44 42 41 36 38 42 45 47 39 43 47 51 54 56 58 58 58 58 58
54 55 55 55 55 56 56 56 56 57 57 57 57 57 57 57 56 56 50 54 55 53 49 56 68 66 70 68 69 64 61 58 56 52 46 43 43 47 41 44 41 47 48 45 43 48 51 55 56 58 59 60 60 60
54 54 55 55 55 55 56 56 56 57 57 57 57 57 57 56 55 52 49 54 58 56 48 51 61 65 67 67 67 64 60 55 51 49 45 44 45 46 44 44 40 48 46 40 39 48 47 49 53 56 57 58 58 58
54 54 54 54 55 56 56 56 56 57 57 57 56 56 56 56 55 53 53 57 57 55 52 47 58 61 62 65 64 58 58 54 52 49 46 47 49 46 39 34 47 50 51 50 49 51 53 56 60 59 56 56 58 57
54 54 54 54 55 55 55 56 56 57 56 56 56 56 56 55 49 52 53 57 54 53 53 48 51 60 64 61 57 57 57 54 52 48 46 47 47 47 39 34 48 50 50 53 55 54 50 54 53 56 58 59 59 58
54 54 54 54 54 55 55 56 56 55 56 56 56 56 55 55 52 52 56 55 52 54 54 47 50 54 59 53 52 54 51 50 50 49 47 45 45 43 37 44 47 51 52 51 55 55 54 53 53 55 56 56 55 55
54 54 54 54 54 54 55 55 54 55 56 56 56 56 52 51 50 56 62 58 55 54 48 48 45 46 58 54 53 52 49 44 50 45 45 45 41 36 43 46 48 51 51 53 56 54 54 52 52 52 53 55 56 53
54 54 54 54 54 54 54 54 55 55 54 55 54 53 51 56 60 61 56 52 51 51 49 46 51 49 55 50 47 49 47 45 42 46 47 41 40 45 48 51 54 54 56 58 48 47 48 48 50 50 49 54 54 53
53 53 53 53 53 53 54 54 54 54 55 54 52 53 57 60 55 52 48 48 47 46 48 49 51 51 57 47 47 52 47 46 37 43 43 35 40 48 54 53 53 54 55 55 54 53 53 51 50 50 50 53 53 52
54 54 53 54 54 54 54 54 55 53 53 51 51 53 53 53 50 47 46 50 50 47 52 51 53 53 50 52 48 48 45 47 41 50 44 36 44 47 51 52 55 55 56 56 56 55 53 55 54 52 52 50 53 52
55 56 55 55 55 55 55 55 54 54 52 51 50 50 53 49 40 44 41 45 45 51 52 54 50 50 51 50 45 45 44 44 50 43 37 40 45 47 48 54 54 55 57 55 54 54 54 53 56 54 53 51 52 51
54 54 54 55 56 55 55 55 55 52 49 48 50 39 45 43 46 47 47 48 51 50 51 51 50 49 49 47 46 43 45 47 40 37 38 43 43 45 50 52 53 53 53 53 53 54 52 53 53 53 53 53 53 51
54 54 54 55 55 55 54 54 54 49 48 48 51 40 46 51 51 53 55 51 52 53 50 48 48 49 47 46 45 44 41 39 40 36 41 44 45 49 47 50 49 50 49 49 49 50 50 51 52 53 54 52 51 50
54 54 54 55 56 54 53 53 50 50 51 51 51 48 52 50 51 53 58 50 54 53 52 48 46 47 45 45 42 41 41 36 39 43 45 47 50 49 47 49 49 49 48 48 48 49 48 48 47 46 46 45 45 46
53 55 55 55 55 55 54 51 51 50 51 53 49 53 53 51 51 53 55 57 56 52 47 48 46 44 44 41 39 44 39 42 45 48 48 47 47 47 47 48 49 49 47 46 45 45 45 46 44 43 41 42 42 43
52 54 55 55 54 54 55 52 53 54 51 52 49 51 53 54 53 54 53 55 53 52 50 48 48 42 40 37 39 42 44 47 49 47 49 47 47 47 50 48 49 49 48 47 46 45 44 43 41 40 40 42 42 43
52 50 54 54 53 51 53 54 54 48 51 53 53 54 54 54 53 53 51 51 52 53 52 49 46 44 42 44 45 45 46 47 47 47 47 48 48 49 50 49 48 47 46 44 44 43 42 42 41 41 42 42 41 43
53 53 54 54 54 51 53 54 56 50 49 53 53 53 54 53 52 52 51 50 49 51 49 48 48 48 48 48 49 49 49 53 51 47 45 47 53 49 47 46 46 45 44 43 43 44 41 41 41 41 41 42 42 41
53 55 54 53 51 50 51 51 54 52 55 52 54 54 54 51 50 49 51 50 49 48 47 51 52 56 54 52 52 51 50 55 52 51 51 46 48 48 47 50 46 45 44 42 41 42 42 41 42 42 42 42 45 47
55 55 51 51 49 53 48 52 50 52 51 52 53 53 51 52 49 49 52 49 49 49 50 51 51 51 51 51 51 51 51 50 48 48 50 49 46 45 49 49 46 44 44 44 43 43 43 43 43 44 44 44 45 47
53 53 52 54 51 48 44 54 50 51 48 51 54 54 49 48 51 54 50 52 52 56 53 52 53 53 52 52 53 53 52 51 48 47 49 49 48 50 51 47 49 46 44 44 45 45 44 45 46 45 46 45 45 47
54 53 52 50 49 42 52 49 55 54 56 50 51 49 49 49 52 49 47 50 53 54 52 52 52 51 51 51 55 55 51 50 49 48 49 50 48 47 50 49 48 48 49 47 46 45 45 46 46 46 47 47 46 45
45 43 42 36 47 49 50 51 51 51 50 51 51 48 49 50 48 47 49 51 53 53 51 51 51 51 49 49 49 49 51 52 50 49 49 50 50 48 47 48 48 49 50 48 46 47 47 47 47 47 48 47 46 47
39 46 41 49 49 48 52 53 52 52 51 51 52 52 52 48 47 48 48 50 50 56 57 52 51 50 50 51 50 49 51 52 51 49 49 52 52 51 48 47 46 47 49 50 49 49 50 50 49 51 50 50 47 49
39 45 49 53 52 53 53 57 56 51 51 52 50 50 49 47 48 50 51 53 52 54 58 56 55 54 58 58 52 51 53 53 55 54 52 52 51 54 54 51 47 49 51 53 52 53 52 52 51 51 50 49 50 50
49 50 47 51 51 53 52 53 53 55 54 57 54 51 50 51 49 54 55 57 57 57 57 58 60 63 61 56 56 53 51 53 54 53 54 52 51 53 53 51 50 47 51 52 52 52 52 52 51 52 51 49 48 50
49 53 53 50 52 53 53 53 54 58 60 55 54 51 50 53 57 56 57 59 59 57 55 54 56 62 57 54 54 57 53 54 52 50 49 45 46 48 49 50 50 50 50 50 47 50 54 52 52 52 53 51 50 50
50 54 51 53 52 51 55 58 58 63 60 58 56 53 53 56 55 58 59 60 57 56 60 61 61 61 57 56 52 50 54 55 54 54 50 49 49 52 51 52 51 51 50 49 49 48 47 49 48 50 51 49 48 48
55 54 53 53 53 57 62 62 62 63 58 52 53 53 53 55 58 62 62 58 59 58 61 59 58 61 60 57 55 54 51 54 57 57 57 55 56 58 54 54 54 55 52 52 51 50 49 49 50 51 51 50 50 49
54 54 53 55 57 62 60 59 58 56 55 53 51 52 53 54 53 54 59 58 59 59 57 60 60 60 63 65 64 63 56 62 59 58 58 56 57 57 57 54 54 57 57 55 54 52 52 52 50 50 52 52 51 52
55 57 57 56 55 56 58 57 55 54 53 51 51 53 53 51 50 53 56 58 58 58 59 59 60 62 65 64 65 65 56 60 59 51 50 51 51 52 54 54 55 56 58 57 56 54 54 54 54 54 53 52 52 52

GFSWCAN_sfc_temp_087.txt.gz
Temp
55 55 56 56 56 56 56 57 57 57 57 58 58 58 58 57 57 52 54 54 56 48 53 59 63 56 54 50 47 51 50 50 44 40 37 32 33 37 35 40 38 38 32 28 33 31 32 54 55 47 51 49 52 57
55 55 55 55 56 56 57 56 57 57 57 57 58 58 57 57 57 55 52 57 57 53 56 59 64 66 66 62 53 47 50 47 47 42 40 38 35 37 35 31 41 36 41 36 39 37 47 50 50 51 52 51 50 51
55 55 55 55 55 55 56 56 57 56 57 57 58 58 57 57 57 55 49 51 53 51 55 57 58 63 64 65 63 53 49 52 48 49 43 41 41 39 35 37 39 43 44 37 41 45 49 52 53 54 54 54 54 55
54 55 55 55 55 55 55 56 56 56 57 57 57 57 57 57 56 56 50 50 52 51 47 54 64 59 64 64 63 61 58 53 51 48 43 41 41 44 38 42 40 44 46 42 41 45 49 52 53 54 56 56 56 56
54 54 55 55 55 55 56 56 56 56 57 57 57 57 57 56 55 51 47 51 54 54 48 49 58 60 60 64 63 60 57 52 48 47 43 42 42 43 40 41 39 46 45 39 38 47 47 48 52 55 54 55 56 55
54 54 54 54 55 55 56 56 56 56 57 57 56 56 56 56 54 52 51 54 55 53 51 47 55 56 59 61 60 57 55 51 48 48 44 43 47 45 38 32 45 46 48 49 48 49 50 52 55 56 55 56 56 56
54 54 54 54 55 55 55 55 56 56 56 56 56 56 56 55 48 52 52 55 52 52 52 48 49 57 60 57 54 54 53 50 50 45 44 45 44 44 37 32 47 48 51 50 51 52 48 52 52 56 58 58 57 56
54 54 54 54 55 55 55 55 56 55 56 56 56 56 55 55 53 53 56 54 53 53 53 46 48 52 56 51 51 50 49 48 48 46 44 44 43 41 36 43 45 48 50 50 53 53 53 51 51 53 55 55 53 53
54 54 54 54 54 54 55 55 55 55 55 55 55 55 51 51 52 54 59 57 54 55 48 46 44 44 55 49 49 49 48 43 46 44 43 44 38 36 44 45 47 50 50 52 53 53 52 51 51 51 51 51 50 50
53 54 54 54 54 54 54 54 55 55 55 55 54 55 52 53 61 60 55 51 51 49 48 45 48 46 52 46 45 48 48 46 40 43 45 40 39 44 46 48 50 51 54 54 49 46 46 46 48 48 49 51 50 50
53 53 53 53 53 53 54 54 54 54 55 54 53 53 55 59 55 51 47 45 46 44 46 47 48 48 52 46 48 50 46 43 39 41 42 36 38 44 50 50 50 51 52 52 52 50 51 49 49 49 50 50 50 50
54 54 54 54 54 54 54 55 55 53 52 51 50 52 52 52 49 46 44 45 44 45 48 48 49 50 49 49 47 45 42 43 39 47 44 36 41 46 47 50 51 51 53 53 54 53 52 52 51 51 50 49 50 50
54 54 54 54 55 55 55 55 54 54 52 50 51 50 50 48 40 42 38 42 42 48 50 49 47 47 48 47 44 45 43 40 48 42 38 39 45 48 46 49 51 52 54 53 52 53 52 51 51 52 53 53 50 49
53 53 54 54 55 55 55 54 54 51 49 47 47 36 43 41 43 44 44 45 49 49 49 48 48 48 46 45 43 41 41 44 41 37 38 41 44 46 46 49 50 50 51 51 51 52 51 51 50 51 53 52 51 49
53 53 54 54 55 55 54 54 54 48 47 46 47 37 43 48 48 50 50 48 50 50 48 46 46 46 45 42 42 41 42 39 40 38 39 42 44 45 48 50 47 48 48 49 52 51 49 49 51 50 49 48 46 48
53 53 53 54 55 54 53 53 49 47 48 46 46 44 47 47 47 48 50 49 50 49 48 46 44 44 42 42 40 40 41 37 38 41 43 44 44 45 45 46 47 47 46 46 46 46 45 44 43 41 42 42 42 42
53 52 54 54 54 54 54 50 49 48 47 50 47 48 49 48 48 49 51 51 51 49 45 45 43 42 42 38 37 42 39 40 42 43 45 45 45 44 45 45 46 47 46 44 43 43 42 42 42 41 40 40 41 42
50 54 55 54 54 54 53 52 52 51 46 50 45 48 49 50 50 51 51 52 50 48 49 48 46 40 39 37 38 42 42 43 44 45 45 45 45 45 47 45 46 45 45 44 43 42 41 41 39 38 39 40 41 41
53 51 53 54 53 50 51 50 51 48 49 51 49 49 51 51 50 51 50 50 49 50 49 46 43 41 41 45 45 44 43 44 44 45 46 45 45 46 46 45 45 45 43 42 41 41 41 40 39 39 39 39 39 40
53 53 53 54 54 50 50 52 54 47 47 49 49 49 50 49 50 50 49 48 47 47 46 45 45 47 47 47 46 47 46 46 49 44 44 44 45 44 44 45 43 41 41 41 40 41 39 39 39 39 40 40 39 40
52 53 54 52 50 48 48 50 51 51 50 48 50 50 49 49 48 47 48 48 46 45 45 48 49 50 50 54 49 48 47 52 51 49 49 44 43 45 42 42 41 41 40 39 39 39 40 39 40 40 40 40 40 43
53 55 51 52 49 50 44 49 47 49 47 48 48 50 48 47 46 46 48 46 46 48 48 48 49 49 48 48 48 49 49 49 48 47 46 46 43 41 43 44 42 41 40 41 40 41 41 41 41 41 41 42 43 42
52 51 50 50 48 46 45 49 47 48 45 47 50 49 48 46 48 50 46 48 49 51 51 50 50 50 49 48 49 48 48 48 46 45 46 45 44 47 46 45 44 43 41 41 41 42 42 43 43 43 43 43 42 42
53 51 50 48 46 42 48 46 50 50 52 47 47 47 48 48 49 45 45 47 51 51 50 50 50 48 48 49 48 51 53 51 45 43 44 46 43 42 48 48 45 44 46 44 42 42 43 44 43 43 44 44 44 43
43 44 43 35 45 48 47 48 48 47 47 49 50 48 48 48 44 47 45 47 49 49 49 49 49 51 48 46 47 53 50 48 48 46 44 46 45 42 42 43 44 45 45 45 43 44 44 44 44 44 45 45 44 45
39 47 39 45 45 45 50 49 49 50 50 51 51 51 49 45 43 46 46 48 48 49 49 51 50 47 47 48 47 46 48 46 47 48 46 46 51 52 48 45 43 45 46 47 46 46 47 46 46 47 46 47 45 46
40 44 45 47 47 48 52 54 53 50 51 50 49 49 48 44 46 49 49 49 49 50 53 52 54 53 51 49 48 48 48 48 52 55 51 50 49 52 53 50 48 51 49 49 48 49 48 48 48 48 48 47 47 48
45 46 44 47 48 49 50 51 50 50 54 51 50 46 49 49 48 51 52 53 53 53 53 53 53 53 53 52 53 50 46 46 47 47 48 48 45 45 48 49 49 45 49 50 50 50 50 50 49 49 48 47 47 48
44 48 48 46 49 48 49 50 50 52 55 52 50 49 50 56 53 53 54 53 53 55 51 52 51 53 56 55 53 49 51 54 50 47 46 44 44 46 45 48 47 48 48 48 46 48 51 50 49 50 50 48 48 47
45 49 46 48 48 48 51 52 53 55 54 53 53 51 50 52 53 53 54 53 53 54 55 55 54 55 52 54 49 47 49 55 57 53 48 47 50 49 47 47 48 48 47 48 48 46 45 47 46 47 48 47 46 46
49 47 47 48 48 51 55 55 56 54 53 50 50 50 50 51 53 55 56 55 54 54 54 52 53 56 56 55 54 53 50 51 53 56 57 55 50 51 50 49 49 48 48 49 48 48 48 47 47 48 48 48 48 46
47 48 48 47 49 54 55 53 52 51 50 49 48 50 52 53 50 52 57 58 57 57 54 58 59 57 61 63 63 62 54 63 57 57 56 52 51 53 53 52 50 50 49 49 49 49 49 49 48 48 48 49 49 48
49 49 50 50 50 51 51 51 51 49 49 48 49 50 50 49 49 52 55 57 55 55 56 57 57 59 60 61 62 61 54 61 56 50 48 48 48 50 55 51 52 53 53 52 51 50 51 50 49 49 50 49 49 49

GFSWCAN_sfc_temp_090.txt.gz
Temp
55 56 56 56 56 56 56 56 56 56 57 58 58 58 58 58 57 51 52 52 53 48 51 57 60 54 51 48 47 49 49 49 43 39 37 31 32 35 34 38 36 38 32 27 32 32 33 53 54 47 51 51 55 57
55 55 55 55 56 56 56 56 56 56 56 57 58 58 57 57 57 55 51 54 54 52 55 56 60 62 63 60 50 45 49 46 46 40 38 36 33 36 33 30 40 35 40 35 38 37 46 48 49 52 51 52 54 54
55 55 55 55 55 55 56 56 56 56 56 57 58 58 57 57 57 54 48 49 52 50 54 55 56 60 60 61 61 53 47 49 45 46 41 39 40 38 34 35 37 41 42 40 41 45 48 51 53 54 54 53 53 55
54 55 55 55 55 55 55 55 56 56 56 57 57 57 57 57 56 55 49 48 50 49 49 53 62 57 60 60 60 59 55 49 47 46 42 40 40 42 37 41 38 43 44 41 41 45 48 53 54 54 55 55 55 55
54 54 54 55 55 55 55 55 56 56 56 57 57 57 57 57 55 50 46 48 50 53 47 48 54 56 56 61 60 58 55 50 47 46 42 42 40 42 38 40 38 44 44 39 38 48 47 49 52 55 54 54 54 54
54 54 54 54 55 55 55 55 55 56 56 57 57 56 56 56 54 51 50 52 52 52 50 48 53 55 56 58 57 55 52 48 47 46 44 42 44 44 38 32 45 46 46 48 49 49 50 52 55 56 55 55 56 54
54 54 54 54 55 55 55 55 56 56 56 56 56 56 56 55 48 51 51 53 51 51 50 48 48 55 58 55 52 52 50 47 49 43 44 43 43 42 37 32 47 48 48 49 50 51 49 52 52 56 57 58 57 56
54 54 54 54 55 55 55 55 56 56 56 56 56 56 55 55 52 52 55 53 52 51 51 45 47 51 54 49 49 47 47 47 46 44 42 43 42 40 35 43 45 48 49 50 51 51 52 53 52 53 55 54 54 53
53 54 54 54 54 54 55 55 55 55 55 55 55 55 50 50 50 53 59 57 54 54 46 45 42 43 53 46 47 48 46 43 44 42 41 43 37 36 44 46 47 49 49 51 51 51 52 52 51 52 52 53 52 51
53 53 53 54 54 54 54 54 55 55 55 55 51 50 48 51 60 60 56 52 51 50 48 44 46 45 50 45 44 47 48 44 39 42 44 39 37 43 45 48 48 50 51 51 49 48 48 48 50 50 50 52 51 51
54 54 53 53 53 53 54 54 55 55 55 53 49 50 53 58 55 52 48 46 45 45 46 46 47 47 50 45 44 48 46 44 37 40 41 36 38 43 49 49 50 50 51 51 52 52 53 51 50 50 50 51 51 51
54 54 54 54 54 54 55 54 54 54 51 51 51 52 52 52 47 45 42 44 43 44 46 46 47 48 48 48 47 47 45 44 39 45 43 35 41 46 48 49 50 50 52 53 53 53 53 53 52 51 51 50 51 52
53 54 54 54 54 55 55 55 55 54 52 52 52 51 50 47 38 40 38 41 41 46 48 48 46 46 46 46 46 46 44 42 45 42 39 38 44 47 47 48 50 51 53 53 52 53 53 53 53 52 51 52 52 51
53 53 53 53 54 55 55 55 55 52 49 50 46 36 42 39 42 43 42 44 48 48 47 47 46 45 45 45 44 42 42 43 41 38 36 42 44 46 46 48 49 49 50 50 50 51 52 52 50 49 47 47 48 48
52 53 53 53 54 55 54 54 54 47 46 46 45 38 41 47 47 48 48 47 49 49 47 46 45 46 42 43 41 40 41 40 41 39 41 42 44 44 46 47 47 47 48 48 49 49 48 48 46 44 45 45 45 45
52 53 53 54 54 54 53 52 49 47 46 44 43 42 45 45 46 47 47 46 48 47 46 46 43 43 41 40 38 38 37 35 40 41 42 43 43 44 45 46 46 47 46 46 45 45 44 44 43 42 43 43 43 44
52 51 54 54 54 54 53 51 48 47 45 45 43 44 46 46 46 46 47 48 49 48 45 44 42 41 41 38 37 40 39 41 42 42 43 44 44 44 44 45 46 46 45 44 43 43 42 42 43 42 41 42 43 43
50 53 53 53 53 53 53 51 51 49 44 46 43 45 46 48 47 50 48 49 49 47 47 46 44 40 39 37 37 43 42 43 43 44 44 45 44 44 46 45 46 46 44 43 43 42 42 42 41 41 41 42 42 42
52 51 53 53 53 50 50 51 51 45 46 48 47 46 48 49 48 49 49 49 48 48 47 45 42 40 40 42 45 44 43 44 43 44 45 45 44 44 45 45 45 44 43 42 42 42 41 42 42 42 42 42 41 42
53 53 53 54 54 50 49 50 53 45 43 46 45 45 47 48 48 48 47 47 47 47 45 44 44 45 46 48 49 50 47 46 48 44 43 42 44 44 44 44 43 42 42 41 41 41 41 42 42 42 42 42 42 42
52 53 53 52 50 49 48 47 46 48 48 45 47 46 48 48 47 46 46 46 45 44 43 45 47 50 51 49 47 46 48 51 50 48 48 43 43 44 42 42 42 42 42 41 41 41 42 43 43 43 42 42 43 42
50 54 49 51 49 49 43 46 44 46 44 46 45 47 46 45 45 46 46 45 44 46 46 47 49 49 48 48 47 48 50 48 46 45 45 46 42 42 41 42 43 42 42 42 42 42 42 42 43 44 44 45 45 46
52 52 50 49 47 45 44 47 45 46 44 45 46 46 45 45 46 48 45 46 47 49 49 49 50 51 49 48 47 47 48 49 47 46 47 46 45 44 44 44 44 44 42 42 43 44 44 43 45 45 46 46 46 47
51 49 48 47 46 42 48 44 46 47 47 44 44 46 46 46 50 48 46 47 48 49 49 49 48 47 46 47 46 46 47 49 49 44 46 47 45 43 46 47 45 46 46 46 44 44 45 46 44 46 46 47 48 47
42 41 40 35 46 46 47 46 45 44 44 46 49 48 49 50 46 46 46 47 48 48 48 48 48 50 48 46 46 52 52 53 47 44 43 48 44 43 43 44 45 45 46 46 45 46 47 47 47 47 48 48 47 48
36 45 39 43 43 42 47 48 49 48 47 49 50 50 49 47 44 43 45 47 47 48 48 50 49 46 47 49 48 47 48 46 46 48 45 47 50 49 47 45 45 46 46 48 48 48 48 48 49 49 49 50 45 49
39 44 44 45 44 50 50 52 52 50 48 49 49 49 46 43 44 48 49 48 49 50 51 53 53 53 53 49 47 48 47 48 51 53 51 50 50 53 53 50 47 52 50 51 50 51 50 50 50 50 50 50 50 50
43 44 42 44 43 48 47 49 49 48 50 51 50 48 47 48 47 51 53 52 52 51 52 51 51 53 52 51 51 48 45 46 47 47 49 48 47 49 49 51 51 45 52 53 53 52 51 51 51 51 51 50 50 51
42 44 45 43 46 46 46 50 50 52 52 51 51 49 50 52 52 52 53 51 50 52 51 50 50 51 51 49 50 49 49 51 50 49 49 48 48 51 48 49 50 49 50 51 44 49 51 52 52 52 53 52 51 51
43 46 44 46 46 46 50 52 53 57 52 52 51 50 50 50 51 51 50 51 51 53 54 55 53 53 52 52 48 46 49 53 58 55 51 49 51 52 48 48 48 49 49 51 51 50 44 49 47 50 50 50 51 51
47 46 46 46 46 50 53 54 55 54 52 50 49 49 48 49 51 54 55 54 55 55 55 54 51 51 51 50 52 50 49 53 53 55 56 55 52 51 50 49 50 49 50 52 51 51 51 50 51 51 51 51 51 49
45 45 45 44 46 51 53 51 50 49 48 48 48 49 49 50 49 52 54 55 55 54 53 56 55 54 57 57 58 58 51 60 55 54 54 52 52 51 52 50 50 51 51 52 51 51 52 52 51 50 51 51 51 52
46 45 46 47 48 51 52 50 49 47 48 47 48 50 50 48 48 51 55 56 54 55 56 57 59 58 57 57 59 58 53 59 55 48 47 47 47 49 52 52 52 53 52 52 52 52 52 52 51 51 51 51 51 52

GFSWCAN_sfc_temp_093.txt.gz
Temp
55 55 56 56 56 56 56 56 57 56 57 57 58 58 58 58 57 57 63 61 64 62 65 65 68 63 61 63 62 60 61 61 61 54 53 47 49 50 49 52 52 52 50 49 50 48 45 62 63 59 61 64 64 66
55 55 55 56 56 56 56 56 56 56 56 57 58 58 58 57 57 56 63 62 62 63 65 64 70 71 72 71 65 59 62 59 62 57 53 51 49 51 50 46 54 48 55 50 54 54 58 60 62 64 64 63 65 65
54 55 55 55 55 55 56 56 56 56 56 57 58 58 58 57 57 56 61 60 63 63 65 67 70 72 73 73 75 66 62 62 59 60 59 57 52 55 50 51 53 55 55 54 53 58 59 62 65 66 66 66 65 66
54 55 55 55 55 55 55 56 56 56 56 56 57 58 57 57 56 56 60 61 63 61 62 65 70 70 72 73 72 72 66 62 61 63 61 59 56 55 54 54 53 58 55 55 55 58 59 63 64 66 66 66 65 64
54 54 55 55 55 55 56 56 56 56 56 56 57 57 57 57 56 56 57 61 62 63 60 63 67 69 70 72 69 69 68 65 64 62 61 58 56 56 55 55 54 58 58 53 54 63 63 63 65 66 65 66 66 65
54 54 54 54 54 55 55 55 56 56 56 56 57 57 56 56 55 62 61 62 63 64 61 60 65 65 67 68 67 65 65 63 64 64 61 58 55 58 54 50 60 61 60 63 63 63 63 63 65 66 66 65 66 65
54 54 54 54 55 55 55 55 56 56 56 56 56 56 56 55 57 62 61 61 57 62 61 59 61 64 67 66 65 65 63 61 64 60 59 60 58 59 56 48 61 61 61 60 61 62 60 63 64 66 66 66 63 67
54 54 54 54 54 55 55 55 55 56 56 56 56 55 55 55 55 61 64 55 58 63 62 55 57 61 66 63 61 61 62 62 58 59 57 57 55 57 48 59 59 59 59 60 61 63 64 66 65 64 65 64 64 64
54 54 54 54 54 54 55 55 55 55 55 55 55 55 57 59 60 62 58 57 62 62 57 55 54 53 63 58 60 60 60 55 56 58 55 55 51 43 57 59 59 60 60 62 62 62 63 63 63 63 63 63 62 63
54 54 53 53 54 54 54 54 54 55 54 55 56 57 57 61 60 61 61 60 60 58 58 56 58 54 61 58 57 58 56 53 50 54 55 50 48 57 57 60 61 61 61 62 59 57 59 61 62 61 61 62 63 63
54 54 54 53 53 53 53 54 55 55 55 56 55 56 59 59 62 59 55 54 54 52 55 57 58 57 61 56 54 56 52 51 48 52 51 47 42 55 57 57 59 59 60 61 64 66 65 64 62 61 61 61 61 61
54 54 54 54 54 53 53 54 54 55 52 55 55 56 59 59 55 52 50 51 50 51 54 55 57 60 57 58 55 53 52 50 47 55 50 40 52 55 56 57 58 59 61 62 63 62 63 63 63 62 61 61 61 61
53 53 54 54 54 54 54 54 53 53 52 53 54 52 52 53 42 45 43 47 48 54 55 55 54 57 54 56 53 53 48 49 56 49 45 47 55 56 55 58 59 61 62 62 61 62 62 61 61 60 59 59 59 59
53 53 53 53 54 54 55 54 55 53 52 50 48 40 48 47 50 52 53 53 57 55 54 55 52 55 54 53 53 51 50 53 45 41 44 57 54 56 56 58 59 59 60 60 59 60 59 57 55 55 55 56 56 55
52 52 53 53 54 54 55 54 54 53 52 52 52 41 49 57 57 57 57 54 55 56 54 53 53 54 52 49 47 48 45 43 46 48 55 55 55 55 56 57 58 59 59 58 59 58 57 56 55 54 55 56 55 55
52 52 52 52 54 54 53 54 55 55 54 52 51 51 55 55 57 56 56 57 56 55 55 56 52 51 48 50 47 47 46 45 52 56 56 54 53 55 56 58 59 59 59 58 58 57 56 56 55 54 55 55 55 54
52 52 54 54 54 53 53 55 55 52 52 50 52 56 56 55 56 60 60 61 59 58 54 54 50 48 51 49 47 51 50 57 59 56 55 55 55 55 56 57 57 57 57 56 55 55 54 55 55 54 53 53 55 54
50 52 53 53 53 54 55 54 52 52 49 53 52 57 56 59 59 59 56 57 56 55 54 54 53 50 49 46 49 57 58 59 58 57 55 56 56 56 57 57 57 57 56 55 55 55 54 54 54 54 54 54 56 56
53 52 53 54 53 51 51 53 53 48 52 56 56 58 59 60 59 60 60 58 57 56 56 56 53 52 54 56 59 60 56 55 55 52 55 57 57 55 57 58 57 56 55 54 54 56 56 55 56 56 57 56 54 54
52 53 53 53 55 53 49 51 54 49 51 57 56 56 58 59 59 57 55 54 55 55 54 53 55 61 61 63 60 59 58 56 57 55 53 56 58 56 56 58 58 56 56 54 55 50 55 55 57 57 57 55 53 54
53 55 54 55 53 51 50 51 52 55 56 54 59 57 58 57 55 54 52 54 55 54 54 57 60 64 62 63 61 61 59 60 61 62 59 56 57 59 58 58 57 56 56 56 55 54 51 57 59 59 58 56 58 57
53 54 52 52 50 50 49 54 53 55 53 56 55 58 57 54 53 53 53 53 54 57 57 59 61 61 59 57 59 59 60 60 60 56 52 54 55 56 57 58 56 55 57 57 57 57 57 58 59 59 59 60 57 61
53 52 53 52 48 45 45 55 51 54 50 54 55 52 52 52 53 54 52 55 57 59 59 58 59 59 60 58 58 58 59 59 60 61 59 63 61 61 60 58 60 57 57 57 59 59 58 50 54 57 61 60 60 62
51 50 48 47 47 43 52 50 53 51 53 53 51 52 51 53 52 51 51 55 58 59 56 57 59 57 56 56 59 59 59 62 62 60 61 61 59 58 61 61 60 61 61 61 58 58 58 58 52 59 59 59 60 60
42 43 43 37 48 47 47 51 51 51 50 53 52 51 53 53 49 48 51 58 59 59 60 59 59 60 61 61 62 60 59 62 60 59 58 63 63 59 57 59 59 60 60 60 57 58 59 59 59 59 59 59 59 58
37 46 41 48 50 48 48 47 50 49 52 52 50 50 50 49 47 48 54 60 59 60 59 59 59 59 60 63 62 61 60 61 62 61 59 62 62 61 58 57 56 57 59 61 62 60 60 60 60 59 60 58 46 59
39 46 50 54 53 52 51 54 55 53 48 46 47 49 50 46 50 54 56 60 61 62 63 63 64 64 65 63 63 62 62 62 63 65 64 62 64 65 63 60 59 63 62 62 62 63 61 61 61 61 61 62 62 61
48 50 47 52 51 54 51 53 54 48 51 52 52 50 51 53 55 62 63 63 63 64 65 65 66 68 67 66 66 62 61 61 61 61 60 60 61 61 62 64 64 47 62 64 63 64 63 64 63 63 62 62 63 63
46 53 52 49 51 53 53 54 56 57 58 58 56 55 56 60 59 59 60 61 64 64 61 62 62 64 64 64 64 64 62 62 61 58 59 61 59 60 60 61 61 61 63 62 47 56 63 63 64 63 63 64 64 64
49 54 51 51 50 51 57 60 59 62 62 62 60 57 57 58 58 59 60 61 60 59 64 64 64 63 62 62 60 58 61 64 66 63 59 58 61 67 62 61 60 61 62 62 63 61 43 55 51 60 60 62 62 62
55 53 51 52 53 58 61 64 64 63 61 57 57 56 56 57 60 61 61 61 63 63 58 57 56 61 63 57 54 53 53 54 54 58 63 65 64 61 60 61 61 61 61 62 63 63 63 62 62 61 61 61 61 58
52 51 51 49 53 59 61 60 61 58 58 56 55 57 58 58 56 57 60 62 61 59 50 54 55 58 61 60 64 63 50 65 60 59 59 60 60 59 60 61 61 62 62 63 63 64 63 63 63 61 61 60 61 61
53 54 54 54 55 56 59 58 57 54 55 55 54 56 55 54 53 56 60 59 56 54 52 53 54 59 59 62 66 66 56 65 59 49 48 48 50 54 62 63 62 63 63 63 64 64 63 62 61 61 60 60 60 60

GFSWCAN_sfc_temp_096.txt.gz
Temp
54 55 56 56 56 56 56 56 57 57 57 57 58 58 59 58 57 63 75 74 71 74 77 75 76 73 74 75 70 70 70 70 71 63 64 58 57 61 58 62 60 59 58 58 61 56 51 70 70 63 67 73 74 74
55 55 55 56 56 56 56 56 56 57 57 57 57 58 58 58 57 58 72 75 74 71 75 77 80 80 79 80 79 73 71 70 74 70 67 67 60 63 60 54 64 55 64 60 62 62 67 70 70 72 74 72 73 74
54 55 55 55 55 56 56 56 56 56 57 57 57 58 58 57 57 58 72 75 74 74 76 77 76 80 85 84 88 74 77 74 72 73 74 72 59 69 58 60 62 64 65 63 61 67 68 70 72 74 74 74 75 76
54 55 55 55 55 55 56 56 56 56 56 57 57 58 58 57 57 56 71 75 73 75 70 74 82 78 82 86 83 83 78 77 76 76 73 71 65 68 67 64 62 69 65 64 64 67 68 70 72 73 73 74 74 75
54 54 55 55 55 55 56 56 56 56 56 56 57 58 58 57 56 61 71 75 75 70 70 74 78 79 82 82 80 81 79 76 75 71 70 68 71 67 70 67 64 69 66 61 62 69 68 69 74 74 72 72 74 73
54 54 54 55 55 55 56 56 56 56 56 56 57 57 57 56 56 68 68 73 76 75 71 67 77 74 76 79 78 77 78 78 78 74 74 73 67 67 63 60 68 73 73 73 69 73 73 72 73 74 73 73 74 74
54 54 54 55 55 55 55 55 56 56 56 56 56 57 56 56 65 68 66 67 62 74 71 68 68 73 76 76 77 76 75 77 76 74 70 72 68 66 66 55 68 71 72 70 71 71 67 71 70 73 73 73 68 74
54 54 54 54 54 55 55 55 56 56 56 56 56 56 56 55 57 67 73 58 64 72 73 66 65 67 76 72 69 77 72 73 71 73 70 67 66 67 56 66 69 69 69 69 70 72 72 74 73 72 73 72 71 71
54 54 54 54 54 55 55 55 56 56 55 55 56 56 62 64 68 70 57 58 71 69 66 66 62 61 72 72 73 70 73 66 71 66 67 65 63 50 63 66 67 68 67 69 71 71 72 70 70 70 70 70 69 70
54 54 54 53 53 53 54 54 55 55 54 55 59 62 63 69 59 61 66 66 67 69 69 64 71 62 70 69 67 67 70 67 59 65 65 59 56 66 68 68 70 70 70 71 66 64 67 67 68 68 69 70 71 70
54 54 54 54 53 53 53 54 54 54 54 59 59 62 68 59 69 68 62 61 64 59 62 65 68 65 72 64 65 69 64 64 54 61 59 54 49 64 65 65 68 70 70 70 71 72 72 71 70 68 68 68 69 69
53 54 54 54 54 54 53 53 54 55 57 57 60 64 68 63 63 58 58 61 59 57 62 62 65 71 68 73 64 63 58 60 54 65 59 48 60 64 65 66 67 68 69 69 71 71 71 71 71 69 69 69 69 69
53 53 54 54 54 54 53 53 53 53 53 57 58 57 57 61 45 51 49 52 56 62 62 62 61 67 65 68 64 60 56 58 66 56 51 54 65 65 65 66 65 68 70 69 69 70 70 68 68 68 66 66 67 67
53 53 53 53 54 54 54 54 52 52 52 53 50 39 48 50 56 60 61 64 66 66 65 66 63 65 67 59 61 57 62 63 52 49 51 68 63 64 65 67 67 66 68 68 67 67 66 64 63 64 64 65 65 63
53 52 53 53 55 55 55 55 53 51 52 49 50 43 52 63 68 69 69 66 67 69 64 63 64 66 63 58 61 58 53 50 54 56 66 68 64 64 64 66 67 67 67 66 66 63 62 63 63 62 63 64 63 62
53 52 56 53 54 54 54 55 58 57 57 57 57 56 64 62 65 66 66 65 65 60 63 64 58 56 57 58 54 53 53 51 62 67 71 65 63 63 64 66 67 68 67 66 66 65 65 64 63 62 62 63 62 60
52 51 53 54 54 54 54 62 62 58 59 57 60 66 65 65 67 64 66 66 69 62 57 61 55 55 62 55 54 62 58 68 72 70 70 66 63 63 65 66 66 66 65 65 64 64 63 64 63 62 59 60 62 61
51 53 53 53 54 54 58 56 56 57 54 61 59 66 66 68 68 67 67 67 67 65 65 60 66 57 56 53 57 65 69 73 73 70 68 65 64 64 66 64 64 65 64 63 63 63 63 61 60 61 61 61 62 63
54 52 52 53 55 54 53 52 55 48 58 65 65 67 67 68 70 71 72 69 70 72 69 66 58 59 62 68 69 71 72 72 68 66 65 65 65 64 65 65 65 64 63 63 63 64 64 62 64 64 65 65 66 67
52 52 53 53 55 54 50 51 57 56 57 64 65 64 65 66 70 69 68 68 66 65 62 59 63 69 70 73 75 74 75 73 68 58 61 64 67 65 64 65 66 65 64 64 64 57 64 63 65 65 66 65 65 66
50 54 54 54 55 53 52 54 57 59 59 59 67 65 64 67 65 65 64 65 62 62 62 68 70 74 75 75 75 74 72 70 70 70 67 65 67 68 67 68 67 67 65 65 64 62 57 64 65 66 64 64 66 68
58 55 56 54 52 53 54 58 60 63 61 62 63 64 61 59 58 59 65 60 62 66 69 71 72 74 73 68 71 69 71 68 70 70 61 61 66 67 66 68 67 66 66 65 66 65 64 66 67 66 66 67 59 69
53 54 58 57 52 48 48 64 56 59 55 59 64 58 60 61 62 64 59 64 67 73 73 73 72 71 70 72 69 68 68 67 69 70 69 70 70 70 70 69 69 66 65 65 67 66 65 57 57 64 67 66 68 66
51 50 51 52 50 47 56 51 57 58 59 58 58 56 58 58 54 54 56 65 70 71 71 67 69 69 68 65 68 69 68 71 72 72 71 71 69 68 70 70 70 70 69 68 67 66 66 65 59 65 66 66 66 65
42 44 44 39 51 49 49 53 56 57 54 57 55 56 57 61 55 56 57 61 70 70 70 69 69 70 68 69 71 71 70 73 72 69 71 73 71 70 69 70 70 70 70 67 65 65 65 66 66 66 66 66 66 64
39 50 43 53 55 52 52 50 52 54 56 55 55 56 58 54 52 53 60 68 72 72 71 69 69 68 68 72 70 70 69 75 74 71 70 73 73 69 67 66 65 65 70 70 68 66 65 66 66 65 66 62 48 62
40 50 57 63 60 59 57 60 61 55 50 45 46 48 50 48 52 59 70 71 71 72 74 73 72 72 72 72 74 75 74 74 72 74 74 74 75 74 72 68 66 69 70 70 70 68 66 66 66 66 67 68 68 67
56 55 49 56 57 62 55 56 52 46 47 50 49 48 50 53 56 65 68 70 72 74 74 74 76 78 77 75 74 72 72 73 72 73 73 72 74 75 74 73 74 53 71 72 71 70 69 69 68 68 67 67 68 69
52 60 60 54 56 58 59 57 51 56 58 55 57 56 58 64 68 67 68 65 65 72 73 73 72 75 74 74 74 74 73 73 69 64 63 64 65 66 67 67 68 71 71 71 50 61 68 69 69 69 69 69 70 70
54 62 55 56 55 55 63 68 64 69 71 69 67 66 67 67 67 70 70 70 70 70 68 73 75 73 71 69 67 69 73 75 75 72 68 67 69 71 68 67 68 70 71 71 71 69 46 59 56 68 66 68 68 68
64 61 57 58 58 63 67 70 71 71 70 68 66 63 64 66 68 70 69 70 71 72 70 64 64 66 66 66 68 63 65 69 66 64 72 75 75 74 71 70 71 70 70 70 70 70 68 65 68 67 67 66 67 64
59 56 57 54 59 67 68 66 66 67 66 65 63 67 68 67 59 65 67 69 70 68 54 62 58 57 60 60 60 62 52 61 56 62 65 67 70 69 67 68 70 71 70 70 70 70 68 68 69 68 68 66 66 66
59 60 60 59 60 60 65 64 63 59 59 56 57 63 63 61 56 59 69 68 63 59 54 54 56 59 57 57 55 57 61 71 63 51 52 51 51 58 68 70 70 70 70 70 70 71 69 68 68 67 67 67 66 66

GFSWCAN_sfc_temp_102.txt.gz
Temp
55 56 56 56 56 56 57 57 57 57 57 58 59 59 59 59 59 60 71 80 74 72 78 86 86 80 80 79 73 77 75 77 75 67 67 64 62 52 54 65 63 60 60 59 61 51 47 71 69 63 65 77 79 80
55 55 55 56 56 56 56 56 57 57 57 57 58 58 59 59 59 59 67 81 81 71 77 86 90 91 88 86 81 81 76 75 77 72 73 72 65 68 65 58 72 60 67 62 64 55 67 73 73 78 79 76 78 79
55 55 55 55 56 56 56 56 57 57 57 58 58 58 59 59 59 57 65 72 79 71 77 80 81 89 93 93 94 77 81 82 79 81 75 75 65 71 63 65 68 71 74 67 67 67 72 75 78 79 80 78 80 82
54 55 55 55 55 56 56 56 57 57 57 57 58 58 58 59 59 58 66 76 77 74 69 78 92 87 93 94 90 90 86 86 84 81 75 73 70 75 69 70 69 72 72 68 68 72 73 75 77 78 78 79 79 80
55 55 55 55 55 56 56 56 56 57 57 57 57 58 58 59 59 60 67 73 79 72 67 72 86 89 91 90 87 87 85 81 79 75 73 71 78 74 75 73 70 76 71 67 65 73 71 72 77 79 77 76 78 78
54 55 55 55 55 56 56 56 56 57 57 57 57 57 58 59 58 65 66 76 80 80 69 67 83 84 86 87 84 82 82 81 79 77 76 80 79 73 67 64 74 78 79 78 73 78 77 78 79 80 77 78 79 78
55 55 55 55 55 55 55 56 56 57 57 57 57 57 58 57 61 65 63 66 59 77 69 68 70 81 85 84 82 81 82 80 80 77 74 75 74 72 68 61 74 77 78 78 79 77 73 77 74 79 79 79 76 80
55 55 55 55 55 55 55 56 56 57 57 57 57 57 57 57 57 65 73 61 61 73 74 66 67 69 83 75 73 82 76 78 76 74 77 73 72 72 62 71 75 77 77 77 77 78 78 79 79 78 79 78 75 76
55 55 55 55 54 54 55 56 56 56 56 56 57 57 62 61 67 73 63 62 73 69 64 67 65 61 80 77 78 77 78 69 79 71 71 73 69 60 67 70 74 75 73 74 76 77 77 76 76 75 76 75 74 75
55 55 56 55 54 54 54 54 55 55 54 55 60 64 63 72 60 64 69 66 67 69 70 65 75 57 69 74 73 72 74 68 62 68 76 67 63 71 73 73 75 76 76 77 72 70 73 72 71 71 71 72 74 74
55 55 55 56 56 54 54 54 54 53 52 59 62 64 69 60 71 67 62 60 63 61 68 70 72 64 64 67 66 73 66 68 58 63 64 61 60 68 73 74 76 76 77 77 77 75 72 72 66 67 70 73 74 74
54 54 54 55 55 56 54 53 53 52 60 54 56 60 69 68 63 59 59 63 62 60 70 68 71 67 57 75 69 67 59 66 56 72 62 54 66 71 72 73 74 76 76 77 78 73 73 72 73 72 68 70 72 73
54 54 54 54 55 55 54 53 53 52 54 61 57 57 57 61 45 51 50 56 60 69 72 71 69 72 71 74 66 65 56 59 72 61 57 60 70 71 71 73 73 75 76 76 75 75 73 71 69 68 69 72 72 71
53 53 53 54 54 55 55 53 52 53 52 52 50 39 52 51 56 60 61 63 71 72 71 71 69 66 70 67 67 60 66 68 56 53 57 69 68 70 71 73 73 72 74 74 74 69 70 71 70 71 72 71 70 68
53 53 53 53 54 54 54 53 52 53 51 49 50 42 51 61 64 67 71 70 69 75 73 69 70 71 60 63 64 62 60 55 60 59 67 66 69 69 70 71 72 72 72 72 70 69 68 68 66 68 70 70 68 67
54 52 56 55 56 56 54 54 52 52 50 49 50 50 59 59 60 64 67 68 71 69 70 69 61 58 49 50 59 58 57 55 63 69 70 70 68 69 70 71 73 71 71 70 69 67 66 66 64 65 68 68 67 66
52 56 54 54 54 55 54 59 51 50 49 48 55 59 58 58 60 63 69 68 66 63 59 56 49 50 55 53 59 65 61 67 72 67 67 69 68 68 70 72 71 70 70 70 68 65 66 69 70 67 64 66 67 65
52 54 54 54 55 54 62 62 61 59 54 59 55 63 65 70 66 67 68 60 56 67 62 59 63 57 57 57 59 68 73 73 59 63 72 69 69 70 71 71 71 70 69 69 68 69 69 67 66 66 66 66 66 66
55 55 52 53 56 53 58 62 65 55 62 66 67 71 72 72 70 70 72 72 65 59 60 59 50 52 61 67 68 65 70 74 73 73 71 70 70 70 71 72 71 70 70 69 68 68 68 67 68 69 68 67 66 68
52 52 52 53 53 52 49 52 59 58 58 65 70 68 70 70 74 75 75 75 66 54 50 54 56 60 59 53 62 70 75 76 74 70 70 72 72 68 70 71 71 70 70 69 69 61 70 67 69 70 70 68 69 67
50 53 52 53 57 60 56 59 57 61 64 62 67 66 63 70 70 70 70 75 70 68 65 68 69 73 65 59 62 69 76 78 76 75 72 70 67 66 66 70 71 72 70 68 68 67 62 68 70 71 68 67 68 69
55 54 55 57 50 57 60 66 62 64 63 64 63 63 60 60 62 66 72 66 67 70 72 73 74 76 73 61 65 75 78 77 76 73 64 63 66 66 65 67 71 71 70 70 70 69 68 70 72 71 70 69 66 71
54 53 54 59 55 52 50 67 56 61 56 59 63 60 61 61 67 72 60 67 70 73 74 75 75 75 74 75 73 77 77 75 75 76 72 73 71 69 71 70 75 72 70 71 73 72 69 63 63 70 70 69 70 69
52 55 54 53 55 49 61 56 60 58 60 60 57 57 59 60 67 59 59 66 72 75 74 71 75 74 75 73 75 73 71 76 76 77 75 67 65 68 73 74 76 76 75 75 73 72 71 70 64 69 69 69 68 68
44 47 50 41 57 55 57 58 57 56 54 57 56 57 58 63 57 58 61 68 62 70 65 70 66 68 73 70 70 75 76 75 76 71 74 70 71 71 72 76 76 77 78 74 71 71 70 69 68 67 67 68 68 68
39 52 44 55 57 55 56 53 55 56 57 56 58 61 62 59 57 57 57 58 56 65 63 67 64 62 65 66 67 74 67 79 79 74 75 75 73 72 71 70 68 72 77 76 73 71 70 68 67 66 66 62 55 66
43 53 58 67 60 61 61 59 58 55 54 52 57 57 58 53 53 54 57 59 62 76 80 81 80 66 70 69 71 71 76 74 71 76 76 70 75 78 77 72 70 74 77 76 74 72 70 69 68 67 67 69 69 68
57 58 53 59 58 62 56 56 53 50 53 56 56 52 51 50 48 53 54 59 74 73 80 82 82 79 77 77 76 72 70 73 70 75 71 69 77 73 72 77 76 55 75 76 74 73 71 70 69 69 68 68 69 70
59 63 62 58 59 60 60 55 50 52 51 52 50 51 50 56 60 62 72 75 79 78 58 59 68 79 76 79 77 77 78 77 68 63 64 64 66 66 73 73 71 74 75 73 48 61 70 71 70 70 70 70 71 71
58 64 60 58 57 57 63 57 51 54 60 62 61 55 54 63 74 77 75 75 74 72 70 74 75 73 73 71 68 74 78 77 77 74 66 61 59 61 66 71 74 75 75 73 71 69 50 64 60 69 67 69 70 70
63 61 59 58 58 66 69 71 69 65 58 55 55 57 62 63 67 73 73 73 75 75 73 71 71 65 63 64 70 64 65 72 75 74 74 77 76 74 75 76 76 76 75 74 73 71 70 68 68 68 68 68 69 66
62 58 57 57 60 69 71 70 71 67 62 65 66 70 69 63 59 66 70 72 71 69 60 67 67 64 66 68 65 60 58 70 72 71 71 73 73 76 76 76 77 77 75 74 73 72 70 69 68 67 68 68 68 69
61 61 60 59 58 62 67 67 64 61 62 62 64 63 63 64 59 67 74 74 71 69 68 66 67 64 60 58 58 59 56 64 56 49 50 49 48 56 71 76 75 76 75 74 73 72 71 71 71 70 69 69 69 68

GFSWCAN_sfc_temp_105.txt.gz
Temp
56 56 56 56 56 56 56 56 57 57 57 58 58 59 59 59 59 57 60 65 64 62 67 74 75 71 72 68 61 67 65 65 61 55 51 49 43 45 45 51 54 50 44 44 42 38 41 67 66 58 61 67 66 62
56 55 56 56 56 56 56 56 56 57 57 58 58 58 58 59 59 59 58 70 71 64 66 74 77 80 81 79 69 69 66 65 65 59 58 58 53 48 47 45 57 49 57 50 49 46 54 65 64 67 68 66 67 67
55 55 55 55 55 56 56 56 56 57 57 58 58 58 58 58 59 57 58 62 66 64 65 70 72 82 85 84 84 65 67 71 67 68 62 61 55 59 51 52 55 60 62 52 55 58 62 66 68 70 70 69 70 71
55 55 55 55 55 56 56 56 56 57 57 57 58 58 58 58 58 58 58 64 63 64 59 66 85 79 85 85 83 80 75 75 72 67 61 58 58 64 56 59 56 60 60 58 56 61 65 68 69 68 70 72 72 72
54 55 55 55 55 55 56 56 56 57 57 57 58 58 58 58 58 58 60 63 67 61 57 61 72 79 85 81 80 78 74 70 65 61 60 58 63 61 61 60 56 62 59 54 51 61 59 62 67 70 69 68 69 69
54 54 55 55 55 55 56 56 56 57 57 57 57 57 58 58 58 58 59 66 67 67 61 58 72 74 79 79 76 73 71 68 66 62 62 65 68 61 54 51 63 67 68 65 61 66 67 68 70 72 69 70 72 69
54 55 55 55 55 55 56 56 56 57 57 57 56 57 57 57 57 57 58 61 59 60 62 59 62 71 78 75 72 70 72 68 66 64 62 63 61 61 56 50 63 67 68 68 69 68 64 68 65 71 71 71 71 71
54 55 55 55 55 55 55 56 56 57 57 57 57 57 57 56 55 57 67 60 59 63 65 55 59 61 70 66 62 69 64 65 64 63 64 60 60 60 52 61 64 68 68 68 69 69 67 69 68 69 70 69 68 68
54 55 55 55 55 54 54 55 56 56 56 56 57 57 59 57 59 65 63 60 66 63 56 59 56 54 72 66 66 65 66 58 65 59 61 62 56 51 59 62 63 66 66 66 69 69 68 67 67 67 68 69 65 67
54 55 56 56 55 54 54 54 55 54 55 55 56 58 56 65 61 64 65 60 61 62 62 57 64 57 62 61 62 62 63 59 54 59 64 56 55 63 64 66 66 68 69 68 64 62 63 64 66 66 65 66 65 65
54 55 56 56 56 56 54 54 54 53 52 56 56 58 64 61 66 63 57 55 57 55 59 60 62 56 60 56 57 58 59 60 52 57 57 52 51 60 65 66 66 69 69 69 70 66 66 64 62 64 65 67 67 67
54 54 54 55 56 56 55 53 53 51 54 53 52 56 60 63 59 56 52 58 57 54 60 59 60 60 57 61 59 55 54 58 52 63 56 47 56 63 65 68 69 68 71 71 70 68 66 66 65 64 63 66 65 63
53 54 54 54 55 55 54 54 53 52 52 55 53 52 53 56 42 48 48 52 53 62 63 61 58 56 55 56 54 55 49 48 56 56 50 51 60 63 64 65 67 69 71 70 69 68 66 65 65 65 62 63 63 61
53 54 54 54 54 55 55 53 53 52 51 50 49 39 47 48 53 54 56 58 64 64 64 62 60 58 54 51 55 53 57 54 52 48 52 59 61 62 63 65 65 66 68 67 65 65 64 63 62 63 64 63 62 59
53 54 53 53 54 54 54 53 52 52 50 48 49 41 50 58 61 62 63 60 64 67 64 61 62 62 54 57 59 58 56 53 55 52 58 62 62 62 62 64 64 65 65 63 64 63 64 64 63 62 62 60 60 59
54 53 54 56 56 54 54 53 51 51 50 48 49 49 56 55 56 61 61 59 67 65 64 63 58 55 50 51 52 55 55 52 57 59 62 63 61 61 62 63 64 65 64 64 64 63 62 61 61 61 61 59 59 58
53 53 55 55 55 55 54 53 51 49 49 47 49 56 55 55 55 56 62 61 63 58 53 56 53 51 53 50 49 57 56 60 61 62 61 62 61 61 63 64 64 64 63 63 62 61 60 62 62 61 57 57 58 57
52 54 54 53 54 54 56 54 53 51 49 53 51 56 58 58 58 55 61 62 58 52 49 51 57 51 48 48 52 59 62 60 62 62 62 62 63 63 65 62 63 63 62 61 61 60 61 60 59 57 56 57 56 56
52 53 53 53 53 52 51 57 60 52 57 60 60 62 63 62 63 67 63 58 57 56 53 53 52 53 50 57 57 60 57 60 58 58 59 63 63 63 64 63 63 63 62 61 60 60 59 59 58 58 59 57 56 57
52 52 52 52 54 50 49 53 60 55 54 60 64 63 62 64 67 67 65 60 57 55 51 50 53 57 59 57 60 59 60 58 58 56 56 59 63 64 64 65 65 65 63 61 61 59 60 58 59 59 61 59 57 55
51 52 52 52 53 51 52 54 55 59 60 59 62 63 62 67 63 63 64 58 53 59 52 54 58 61 57 57 60 58 58 62 58 64 62 63 66 67 65 65 65 67 64 62 60 58 58 59 59 59 58 58 59 59
53 53 52 51 49 52 55 61 59 58 57 61 61 61 60 58 60 62 66 63 63 64 65 63 62 61 59 59 61 58 58 60 66 63 60 59 65 64 64 65 65 63 64 63 63 62 60 60 62 61 60 59 58 59
53 52 51 53 49 48 47 63 56 59 54 58 62 58 57 57 61 66 58 63 65 68 68 68 67 63 61 62 61 60 59 60 67 67 66 68 67 67 66 65 67 65 64 63 66 65 63 58 58 62 63 60 60 58
52 51 51 51 52 45 60 54 58 58 58 57 57 55 58 59 64 57 56 61 66 69 68 65 68 68 68 67 67 67 68 69 68 68 70 69 67 65 67 67 68 69 68 66 67 64 63 62 58 61 60 61 61 59
43 45 47 37 54 52 53 54 53 54 53 56 55 56 56 58 53 53 56 63 64 67 62 60 63 68 66 67 68 69 70 72 70 66 69 70 68 66 66 69 69 70 71 68 66 65 63 62 61 61 61 61 60 61
38 51 43 53 55 52 55 52 54 54 57 55 56 57 58 55 54 54 54 55 59 64 66 68 66 62 64 64 58 62 65 70 68 65 68 71 69 67 65 65 63 64 71 69 67 65 64 63 62 62 61 58 52 62
41 49 56 62 59 58 52 58 58 55 54 52 54 56 55 52 52 53 56 56 55 61 62 62 63 66 67 67 68 69 71 70 66 64 70 72 74 72 70 67 66 67 70 70 69 67 65 64 63 63 63 63 63 62
54 56 52 57 57 61 55 56 53 52 54 57 56 53 52 51 50 54 56 59 59 58 61 67 63 65 70 74 74 73 73 72 70 70 69 67 64 69 69 68 66 54 67 69 68 67 65 65 64 64 63 62 62 64
55 61 59 55 56 58 56 52 51 54 56 56 52 52 51 54 54 54 56 58 58 59 57 56 60 61 70 75 74 75 75 72 67 61 61 60 59 55 60 66 65 68 67 60 53 61 65 65 65 64 65 63 63 64
57 63 58 57 56 55 54 55 51 54 54 56 55 53 52 53 56 60 66 68 69 66 64 63 64 64 65 64 67 66 69 70 71 62 57 54 53 55 55 57 59 65 67 65 62 59 51 60 56 62 62 63 62 62
63 61 59 59 58 62 64 63 62 63 58 57 54 52 52 56 61 69 70 70 71 69 68 68 65 65 64 60 60 65 61 65 65 66 66 67 61 61 61 61 62 67 67 67 66 64 64 63 63 63 63 62 63 60
61 59 57 56 60 67 67 66 65 59 56 53 53 52 57 59 57 64 68 69 67 65 59 64 63 61 65 64 62 61 53 59 59 60 67 66 69 66 67 68 71 71 69 69 68 68 66 65 63 63 63 62 62 63
61 62 61 60 60 61 66 66 61 57 56 57 59 63 63 61 57 64 70 70 67 66 64 65 65 63 60 61 60 60 56 58 54 48 48 46 44 49 67 70 70 70 70 69 69 69 67 66 65 64 64 63 64 64

GFSWCAN_sfc_temp_108.txt.gz
Temp
56 56 56 56 56 56 56 56 56 57 57 58 58 58 58 58 58 55 50 55 53 54 58 68 69 60 60 59 55 61 59 58 52 48 47 42 41 42 41 46 47 46 40 39 38 35 37 61 61 54 58 60 60 59
56 55 55 55 56 56 56 56 56 56 57 57 58 58 58 58 58 57 47 58 60 56 57 67 71 73 70 68 62 59 59 57 56 51 48 47 43 42 41 42 49 45 48 45 46 44 53 58 58 64 63 60 61 59
55 55 55 55 55 55 56 56 56 56 57 57 58 58 58 57 58 57 48 50 53 56 58 57 65 74 70 75 74 61 58 63 60 58 54 51 49 47 42 45 50 53 55 49 50 56 59 63 64 62 64 65 64 62
55 55 55 55 55 55 55 56 56 56 57 57 57 58 58 57 58 58 48 52 52 53 50 57 73 68 74 74 75 70 68 65 63 59 53 50 50 54 49 52 50 54 55 51 50 56 60 63 65 66 67 68 67 67
54 54 55 55 55 55 56 56 56 56 57 57 57 57 57 57 57 54 50 53 55 53 48 55 66 69 73 71 73 71 66 62 58 56 52 51 52 55 50 51 50 55 54 49 48 56 55 58 62 67 66 65 65 65
54 54 54 54 55 55 55 56 56 56 56 57 57 57 57 57 57 49 48 53 57 56 51 50 61 65 68 71 71 66 64 61 58 56 53 53 57 54 47 44 54 58 59 58 57 60 61 63 65 68 65 65 66 64
54 54 54 54 55 55 55 55 56 56 57 56 56 56 57 56 49 49 51 56 54 52 52 51 52 64 68 67 64 63 63 60 59 54 53 53 55 53 46 44 57 59 61 61 63 63 60 64 62 66 67 67 66 66
54 54 54 55 55 55 55 55 56 57 57 56 56 56 56 56 52 50 57 57 55 53 56 48 51 57 65 57 59 59 58 57 57 56 53 52 53 51 46 53 57 62 61 63 64 64 62 63 63 63 64 65 64 63
54 55 55 55 55 54 54 55 55 56 56 56 56 56 51 47 46 54 61 59 57 57 49 48 48 49 61 58 56 58 56 51 54 53 52 54 47 45 53 54 57 59 61 61 64 66 64 63 61 62 64 63 60 60
53 54 54 55 55 55 54 54 54 54 54 55 53 48 45 52 62 62 58 53 53 53 50 48 54 49 56 55 55 55 53 51 47 52 54 50 47 54 57 60 62 62 63 62 59 57 59 57 59 61 61 64 63 61
53 54 54 55 55 54 55 54 54 53 53 52 49 48 53 60 56 53 48 47 49 46 50 53 54 51 55 50 51 52 53 50 45 50 51 45 45 53 60 60 60 63 64 64 63 63 61 60 59 59 59 60 61 61
53 54 54 54 55 55 54 53 53 51 52 51 50 51 54 53 50 47 45 49 48 49 54 53 52 54 52 53 50 50 47 48 45 50 50 41 49 55 58 61 61 62 64 63 64 62 61 62 61 60 59 60 59 59
53 53 54 54 54 55 54 54 53 53 52 53 51 51 50 49 38 42 40 44 46 55 56 54 50 50 51 51 49 47 46 43 52 45 44 45 50 56 57 60 61 61 65 64 63 63 62 60 60 60 57 58 59 57
53 53 53 54 54 54 54 54 53 52 50 49 48 39 41 41 44 46 47 50 55 56 54 54 50 50 49 47 48 48 49 50 44 42 45 50 53 56 56 59 61 62 63 63 61 61 60 59 57 58 58 58 57 55
53 53 53 53 54 54 54 53 53 52 50 47 47 39 44 48 50 52 52 53 55 55 56 54 53 52 49 47 49 50 47 45 46 48 50 53 54 56 56 58 59 59 57 57 59 59 59 59 57 55 56 55 55 54
53 53 52 54 55 53 53 52 51 51 49 47 47 45 48 48 50 53 52 51 54 56 56 56 51 48 47 48 47 48 48 47 50 51 52 54 54 54 56 57 58 57 57 57 59 59 59 59 57 57 59 59 57 55
53 50 55 54 54 54 53 51 50 48 48 47 44 48 50 49 49 50 53 53 55 52 48 51 47 45 47 44 45 49 48 50 53 53 53 54 57 56 55 56 57 59 58 57 55 57 54 54 57 57 52 50 52 51
50 53 54 54 53 52 51 50 50 49 46 46 42 47 50 52 52 52 53 56 52 49 49 50 47 43 43 44 44 48 50 52 54 55 56 56 57 55 57 56 59 59 58 58 58 55 56 56 54 51 50 50 50 50
52 52 53 53 52 50 48 49 51 46 48 52 50 54 55 54 55 58 55 53 54 54 50 47 47 44 43 45 47 50 49 50 52 52 54 57 57 56 56 55 56 54 55 54 54 56 56 54 55 54 53 51 50 48
52 53 53 53 53 49 48 49 54 47 46 50 53 52 52 52 58 59 54 52 52 50 47 47 47 50 50 50 54 55 56 54 54 52 52 55 56 56 55 57 58 54 54 53 52 52 51 49 49 51 53 51 49 48
51 51 52 52 50 50 49 49 50 49 50 48 52 53 54 54 53 53 51 53 51 50 49 51 49 51 53 54 58 55 54 54 54 56 54 54 56 59 57 56 58 59 57 54 52 50 52 53 51 50 50 50 50 52
51 53 50 50 48 50 49 51 48 53 52 50 50 52 50 49 50 51 53 50 52 53 52 51 52 54 55 56 55 55 56 56 56 54 51 54 54 55 55 59 61 61 61 59 56 52 51 51 51 50 51 51 51 52
52 52 50 50 46 44 42 50 49 50 46 49 53 48 48 48 51 54 49 51 53 57 57 56 56 56 57 57 56 56 56 58 54 55 56 56 58 58 55 57 62 60 59 59 58 55 54 51 51 54 53 52 52 51
52 49 47 46 45 40 50 47 49 49 51 47 47 48 49 49 51 48 47 50 54 56 56 57 55 54 52 54 53 53 57 55 55 56 60 57 56 59 61 60 59 61 63 61 58 56 57 55 52 56 56 54 54 55
43 42 42 36 47 46 49 49 49 47 46 48 48 48 48 50 46 46 47 49 51 53 55 54 55 57 55 54 54 57 59 57 58 60 57 63 63 54 55 58 62 65 61 60 57 57 57 56 54 56 57 57 56 57
37 44 40 48 47 47 47 48 48 47 48 49 49 50 49 48 48 49 48 49 51 54 53 52 52 55 55 57 53 52 54 57 57 54 56 64 62 61 59 58 57 60 62 64 61 59 58 60 58 58 58 56 51 57
38 45 49 51 51 52 47 51 50 47 48 47 48 49 50 48 48 49 50 51 53 53 55 55 55 54 56 58 58 57 59 60 60 61 60 59 59 59 58 59 59 62 61 65 63 62 60 60 59 59 57 55 56 56
46 47 45 50 49 50 49 50 49 47 47 48 48 48 47 46 45 48 51 55 56 56 56 57 56 55 56 56 57 58 59 60 59 61 61 57 55 56 65 63 64 53 66 67 65 64 63 62 60 59 57 55 55 56
47 53 53 49 51 51 50 48 47 46 48 47 46 48 46 51 53 53 54 55 56 57 56 55 56 57 56 60 60 60 61 62 61 55 53 51 54 54 57 60 62 63 64 62 53 58 63 63 61 61 59 56 56 56
49 56 49 53 52 49 48 50 50 52 53 53 53 50 51 52 55 57 56 57 55 54 55 55 55 56 57 58 55 60 63 60 58 55 51 49 50 53 56 56 56 55 56 57 54 55 50 56 52 56 55 54 52 52
54 56 53 54 52 54 54 56 57 56 54 52 52 50 50 52 57 60 58 56 56 57 57 55 55 56 53 54 55 57 56 58 58 60 60 57 56 57 56 56 58 59 58 56 55 58 59 57 55 54 55 54 55 54
51 52 53 51 53 59 60 56 55 52 52 51 51 51 52 52 51 55 59 57 55 53 53 53 50 50 52 52 58 57 50 57 55 56 59 59 59 56 56 55 56 60 59 59 59 57 56 55 54 54 55 56 56 56
51 54 53 53 52 55 57 57 54 51 51 52 52 53 55 52 50 54 58 57 55 53 52 52 53 52 56 53 53 54 52 56 55 46 44 45 45 51 56 57 59 61 61 58 57 56 57 57 56 56 56 56 56 56

GFSWCAN_sfc_temp_111.txt.gz
Temp
56 56 56 56 56 56 56 56 56 56 57 58 58 58 58 58 58 55 51 51 49 46 51 62 67 61 60 55 53 58 58 57 50 46 45 41 40 41 40 44 45 45 39 37 36 34 37 57 57 51 54 55 61 57
56 56 56 55 55 56 56 56 56 56 57 57 58 58 58 58 57 57 49 53 54 48 52 62 69 71 69 67 59 54 58 54 55 48 45 43 42 40 40 40 47 44 47 43 44 43 51 54 54 58 59 57 58 59
55 55 55 55 55 55 55 56 56 56 57 57 57 58 58 57 57 57 51 48 48 49 54 53 62 71 67 69 68 60 56 60 55 55 49 47 46 44 40 42 46 49 51 46 48 49 54 56 58 60 62 61 61 61
55 55 55 55 55 55 55 56 56 56 56 57 57 58 58 57 57 57 52 48 47 48 45 51 69 66 69 68 71 68 65 61 58 55 50 48 48 49 45 49 48 52 53 48 48 51 56 60 61 62 62 63 64 63
54 55 55 55 55 55 55 55 56 56 56 57 57 57 57 57 57 56 53 51 51 49 45 49 59 69 68 68 72 66 63 59 56 55 51 51 49 50 46 48 48 53 51 48 47 55 54 58 61 63 62 62 62 62
54 54 54 54 54 55 55 55 55 56 56 56 57 56 56 56 56 50 46 49 53 52 48 47 57 62 64 67 68 64 61 56 55 54 51 50 52 51 46 43 53 54 55 56 57 57 58 61 63 64 62 61 62 62
54 54 54 54 54 55 55 55 55 56 56 56 56 56 56 55 51 46 49 51 52 51 49 47 49 60 65 65 61 60 58 55 56 51 51 52 51 49 44 44 56 57 57 58 59 61 57 60 60 63 64 63 62 62
53 54 54 54 54 55 55 55 55 56 56 56 56 56 55 55 52 48 54 56 52 49 51 46 48 53 60 56 56 56 55 54 54 52 50 51 50 47 45 52 53 57 57 60 61 60 60 59 59 60 62 62 60 58
53 53 54 54 54 54 54 54 55 55 55 55 55 55 51 47 45 50 60 58 55 54 46 45 44 46 58 54 55 55 53 51 51 51 50 52 44 44 51 53 55 57 59 60 60 60 60 59 59 59 60 59 57 57
53 53 53 53 54 54 54 54 54 54 54 54 52 47 44 49 59 59 54 51 50 50 48 45 49 48 53 53 51 52 51 50 48 51 50 48 45 51 53 57 58 58 60 60 58 55 55 55 57 57 58 60 59 58
53 53 53 54 54 54 54 54 54 53 53 51 47 45 51 57 54 51 48 46 48 46 45 49 51 49 53 50 50 51 50 47 45 48 48 42 42 51 57 57 57 60 60 61 65 63 61 61 57 56 57 60 62 60
52 53 53 54 54 54 54 54 53 51 51 50 50 51 52 51 47 46 43 46 45 44 48 51 51 54 51 53 50 50 46 48 45 48 46 39 47 53 55 58 58 58 61 62 62 61 60 60 59 59 58 58 60 57
52 53 53 53 54 54 54 54 53 53 52 52 51 49 46 46 37 41 39 41 42 49 50 49 48 49 50 50 47 48 45 44 49 45 43 44 50 53 55 57 58 58 61 62 61 60 58 57 58 59 56 56 57 55
52 53 53 53 53 54 54 53 53 52 50 48 47 38 40 39 41 43 43 45 50 50 52 50 48 47 48 48 47 48 47 48 43 39 45 50 50 54 53 57 58 58 59 60 58 57 57 57 55 56 58 58 56 55
52 52 53 53 53 54 54 53 53 51 49 47 47 39 42 46 46 48 49 49 50 51 48 48 50 50 46 46 46 46 45 43 44 46 51 50 54 52 53 55 57 57 57 55 56 57 56 56 56 53 54 54 54 52
53 52 51 54 54 53 53 52 51 51 48 47 46 44 45 43 45 47 50 50 52 50 51 52 49 46 46 46 45 45 45 43 49 50 49 49 51 52 54 54 57 55 55 55 56 56 56 56 55 54 52 54 53 53
52 50 54 53 54 53 52 50 49 48 48 47 44 45 46 46 44 46 48 51 53 50 47 49 46 46 48 44 43 47 46 48 49 51 51 51 51 53 53 54 54 54 54 55 55 56 56 55 55 54 51 50 52 51
50 53 54 53 52 51 49 50 49 48 45 45 41 44 48 49 48 48 53 52 51 50 48 48 49 43 43 44 44 48 47 48 50 51 52 51 52 53 56 53 53 54 53 54 57 54 54 54 54 53 50 48 48 47
51 52 53 53 52 49 46 48 49 45 47 46 47 47 48 50 52 57 53 53 53 53 51 47 46 43 44 45 46 47 48 48 49 50 51 53 53 54 54 53 53 52 53 52 52 55 56 57 56 52 52 49 50 46
52 52 53 53 52 48 46 48 51 45 43 46 51 50 50 50 55 56 55 53 51 50 47 44 46 47 47 48 50 51 52 51 51 51 52 54 54 52 52 54 55 51 52 51 54 52 52 48 47 49 51 49 48 46
51 51 52 51 49 49 47 48 47 47 47 45 51 52 52 52 52 51 48 50 47 46 46 47 49 50 50 50 51 52 51 52 52 51 53 53 53 52 51 51 52 54 53 53 55 53 52 53 52 49 49 48 48 49
51 53 50 50 47 49 48 51 47 50 48 48 48 49 48 47 49 48 50 47 46 49 49 51 54 56 52 54 54 53 55 53 53 52 49 52 53 53 52 53 54 53 54 57 57 54 53 52 52 52 51 50 48 49
51 51 50 49 46 44 42 47 45 47 44 47 51 46 46 47 48 50 46 47 50 53 56 53 53 53 53 55 54 54 56 55 52 51 51 52 53 54 54 54 58 56 52 54 58 58 56 49 49 53 53 48 48 48
51 48 46 46 44 40 47 44 46 46 47 46 45 46 47 47 48 46 46 47 49 51 51 52 52 50 49 51 51 52 54 52 52 52 53 54 54 54 57 59 60 60 61 59 56 56 57 52 49 50 50 50 51 50
42 43 43 36 47 44 45 47 47 45 44 46 45 45 46 47 45 44 44 46 48 49 50 50 51 50 51 50 50 52 52 52 52 52 53 56 56 53 53 53 54 58 60 55 54 57 52 51 52 52 53 53 54 53
36 43 40 44 44 44 46 45 46 45 46 46 46 47 47 46 46 44 47 50 49 50 51 51 52 50 52 54 51 51 52 54 53 53 54 54 54 55 54 54 53 51 55 60 56 56 54 54 54 53 54 54 49 55
37 41 44 47 49 50 46 49 49 45 45 44 45 48 47 47 48 48 49 50 50 52 53 53 53 51 51 53 53 55 57 56 56 58 58 57 57 57 56 55 54 55 56 61 61 60 58 57 57 56 56 56 56 57
43 45 44 49 46 47 47 46 46 46 46 46 46 46 46 44 43 48 49 52 53 55 56 55 54 53 52 52 54 54 54 55 55 57 59 54 53 56 58 59 59 49 56 61 63 61 61 60 59 58 57 55 54 53
43 50 50 48 50 50 48 46 45 47 46 45 44 44 46 49 53 53 55 55 54 54 54 50 51 51 51 53 53 53 54 56 55 54 51 50 52 52 51 52 54 54 56 58 45 53 57 57 59 59 59 58 57 54
46 48 46 49 49 46 48 50 50 52 52 52 52 51 51 52 54 57 55 53 51 50 51 49 49 49 51 55 54 52 54 57 56 53 49 48 49 49 51 55 57 56 56 56 53 52 48 51 52 56 56 54 52 52
51 49 47 48 50 51 53 53 53 54 53 52 52 50 49 52 54 55 53 52 51 51 51 49 49 49 49 50 51 55 55 56 57 56 56 56 56 57 57 57 55 54 57 57 54 54 53 51 52 55 57 55 53 51
46 47 46 47 51 54 55 51 51 51 51 51 51 51 51 51 48 51 55 53 51 50 48 48 48 48 49 50 54 56 49 54 54 53 53 57 56 56 56 53 52 54 55 55 55 56 55 55 55 57 58 53 52 52
46 48 49 49 51 52 52 50 49 50 50 50 50 50 49 52 48 51 54 52 50 49 49 49 49 50 54 52 55 56 52 55 49 45 46 45 45 48 50 51 53 55 55 53 52 52 53 52 52 52 52 52 52 53

GFSWCAN_sfc_temp_114.txt.gz
Temp
56 56 56 56 56 56 56 56 56 56 57 57 58 58 58 59 58 54 53 52 48 44 47 57 63 56 57 54 53 55 57 56 49 45 43 40 39 41 39 43 42 42 39 37 36 36 38 57 58 53 56 57 59 58
56 56 56 56 56 56 56 56 56 56 56 57 58 58 58 58 58 56 50 51 51 45 48 55 62 66 66 63 58 53 54 53 54 46 43 42 41 39 39 40 45 42 46 41 43 42 51 53 55 59 58 58 58 58
55 55 55 55 55 55 55 56 56 56 56 57 57 58 58 57 57 56 52 48 46 44 48 50 56 67 65 68 69 55 55 56 52 52 47 45 45 43 40 41 44 47 48 45 47 50 53 56 58 61 63 60 60 61
54 54 55 55 55 55 55 55 56 56 56 57 57 57 57 57 57 57 52 52 46 45 43 50 62 59 68 65 67 67 62 56 54 52 49 46 47 47 43 47 46 50 50 46 47 51 55 58 60 61 61 62 61 61
54 54 54 55 55 55 55 56 56 56 56 56 57 57 57 57 56 55 54 55 52 46 43 46 55 59 66 68 68 66 61 57 54 53 50 49 46 48 43 46 46 51 50 47 46 54 53 57 62 63 62 61 61 62
54 54 54 54 54 54 55 55 55 56 56 56 56 57 56 56 56 52 45 49 54 51 44 43 54 56 65 64 65 63 58 54 53 53 50 48 49 50 45 43 52 53 53 54 56 56 57 60 62 64 61 62 63 63
54 54 54 54 54 54 55 55 55 55 56 56 56 56 56 55 52 47 48 49 53 52 47 45 47 58 62 63 60 61 55 52 55 50 51 50 49 48 43 44 55 54 56 56 56 59 57 59 59 63 62 63 61 62
54 54 53 54 54 54 55 55 55 55 56 56 56 56 55 55 53 48 53 53 52 49 50 44 46 51 59 55 58 56 56 52 52 50 48 49 47 45 45 52 52 56 58 57 57 59 60 58 58 59 60 61 60 59
53 53 54 54 54 54 54 55 55 55 55 55 55 55 53 48 44 49 59 57 53 50 45 44 42 44 56 51 53 55 56 54 50 50 50 51 43 44 51 53 54 56 59 59 58 57 58 58 57 57 59 59 57 56
53 53 53 53 53 54 54 54 54 54 54 54 53 48 44 48 57 57 52 48 47 48 47 45 48 46 51 50 48 50 50 48 47 49 49 47 45 50 52 55 56 57 58 58 56 54 54 53 56 56 58 59 60 57
53 53 53 53 53 54 54 54 54 54 53 51 47 45 50 56 52 49 47 45 46 43 44 48 51 48 51 49 47 49 47 45 44 47 48 42 42 49 57 56 56 56 58 60 63 63 62 61 56 55 56 57 58 57
52 52 53 53 54 54 54 54 53 50 51 50 49 51 51 49 47 46 43 44 44 43 45 47 50 52 50 51 49 48 45 45 43 48 45 39 47 51 54 58 58 57 58 60 61 60 59 59 59 58 57 57 57 56
52 52 52 52 53 54 54 54 53 53 52 51 49 49 48 47 39 40 38 40 40 47 48 48 46 48 48 50 47 47 45 43 48 43 42 45 50 53 54 56 57 57 59 60 60 60 59 57 57 58 56 56 56 56
52 52 52 52 53 53 54 54 53 52 50 47 47 38 41 40 41 43 42 44 48 47 48 46 45 46 45 46 47 45 48 47 43 38 45 51 53 55 54 54 56 56 58 59 59 57 56 56 55 56 58 57 57 56
52 52 52 52 53 54 54 54 53 51 49 47 46 39 43 46 46 47 48 46 48 48 47 48 47 47 44 45 45 45 42 42 43 45 49 51 53 53 52 53 56 56 56 56 54 55 55 55 56 53 54 57 58 54
52 52 51 53 54 53 53 52 51 50 48 47 46 44 44 43 43 45 46 46 50 48 49 48 46 44 44 43 44 44 43 42 48 49 51 50 50 51 51 53 55 57 55 54 55 55 55 55 54 53 52 53 54 55
52 50 54 54 54 53 52 50 49 47 47 46 44 45 44 43 42 43 46 47 50 48 46 47 44 44 45 43 43 47 46 50 49 52 51 51 51 51 51 53 53 54 53 52 52 53 54 53 52 53 50 50 52 53
49 52 54 53 52 51 49 49 48 47 45 47 41 45 43 45 44 45 47 49 48 47 47 47 49 44 43 44 45 49 50 51 50 50 51 51 52 51 53 52 52 53 52 53 54 52 52 53 54 54 54 51 50 50
51 52 53 53 52 49 46 48 48 44 47 46 46 45 45 46 47 49 49 50 51 52 50 46 45 45 45 46 47 50 49 48 50 50 51 52 51 52 52 53 52 51 52 51 52 53 55 56 57 52 53 52 53 51
52 52 53 53 53 48 46 45 48 44 43 46 49 49 46 47 50 51 53 52 51 50 47 45 46 49 49 49 50 51 51 50 51 51 51 52 52 52 52 54 52 50 51 51 51 50 50 49 50 53 54 54 52 50
51 51 52 51 49 48 47 47 45 47 45 43 50 48 48 50 51 50 49 51 48 48 45 47 48 51 49 49 50 50 50 50 51 52 51 51 53 52 52 52 51 52 51 52 52 51 53 56 54 54 52 53 53 54
50 53 50 50 47 48 45 49 48 49 44 46 45 49 48 47 48 48 50 47 47 48 48 52 54 57 51 54 53 50 52 51 52 51 47 50 52 52 52 52 52 51 51 53 55 54 57 57 54 54 55 54 50 52
52 50 49 49 45 43 42 47 44 45 42 46 50 46 46 45 47 49 45 46 48 51 50 50 51 52 52 53 53 55 53 53 52 52 52 52 54 55 52 52 54 54 52 52 59 58 57 50 51 55 56 54 52 51
51 48 46 45 44 40 45 42 44 44 45 44 44 45 46 46 46 45 45 46 48 49 50 50 50 50 49 50 51 52 53 53 52 52 53 52 53 53 54 57 57 58 58 58 57 58 55 55 51 54 53 53 53 53
42 42 43 37 46 43 41 44 45 43 43 46 45 45 45 46 46 44 44 45 47 49 50 50 50 50 49 50 50 51 51 52 51 52 52 54 55 53 53 54 55 58 56 55 55 56 56 56 55 54 54 54 53 53
36 42 39 45 44 42 46 44 47 46 44 45 45 46 46 46 45 43 48 50 50 49 50 51 51 51 50 51 51 51 52 52 52 52 52 54 55 56 55 54 53 53 55 57 55 56 55 55 55 54 54 53 48 55
36 40 43 46 46 48 45 47 48 46 44 45 45 47 48 46 46 48 51 50 49 52 54 55 53 53 52 51 52 53 53 53 54 55 56 54 56 57 56 54 54 55 55 57 56 57 55 55 56 56 57 57 56 57
42 43 42 46 45 46 47 45 44 44 45 45 45 45 46 45 43 49 49 52 52 53 54 56 54 51 51 51 52 52 54 53 55 54 55 54 54 55 57 58 59 47 56 58 57 57 57 56 57 58 57 56 56 57
41 46 48 47 49 48 48 44 45 47 46 45 44 44 45 48 53 53 54 54 53 53 51 51 52 50 51 51 51 52 53 53 54 53 52 51 53 54 53 55 56 55 54 52 45 53 58 57 56 57 57 56 56 57
46 50 48 49 46 44 48 50 49 51 51 51 50 50 51 51 53 54 54 52 50 49 49 48 48 50 51 54 53 52 52 54 56 55 53 52 52 51 52 53 54 54 54 53 51 50 46 52 49 51 51 52 54 54
50 47 47 48 47 50 52 52 53 53 53 51 52 50 49 51 52 53 52 52 52 51 50 50 49 48 50 50 51 53 53 57 56 57 55 55 55 56 55 55 56 55 55 55 54 54 52 52 52 51 50 51 54 54
44 46 46 47 47 51 53 51 50 50 51 51 50 52 52 51 48 50 52 52 51 50 48 49 50 50 50 51 53 52 47 54 53 55 56 56 56 58 57 55 56 56 56 56 56 55 55 55 54 54 54 54 55 54
44 45 48 48 47 48 50 50 49 49 50 49 50 50 50 50 48 51 53 52 52 51 50 51 51 52 54 55 56 56 51 54 50 45 44 43 43 48 53 54 55 56 57 56 56 56 55 54 54 55 55 55 55 55

GFSWCAN_sfc_temp_117.txt.gz
Temp
56 56 56 56 56 56 56 56 56 56 56 57 58 58 58 59 58 55 56 56 55 51 57 61 65 62 63 62 61 63 65 64 62 59 58 53 54 54 54 56 56 55 52 50 52 49 48 64 64 59 63 66 67 67
55 55 56 56 56 56 56 56 56 56 56 57 58 58 58 58 58 57 53 57 57 50 56 59 63 65 68 69 65 64 63 64 68 60 58 57 54 54 54 54 58 53 59 55 56 58 62 64 64 68 66 66 66 66
54 54 55 55 56 55 55 56 56 56 56 57 57 58 58 57 57 57 56 54 55 51 57 57 63 70 70 70 75 63 63 66 64 66 62 62 57 60 56 58 58 59 60 60 57 61 63 64 67 66 68 69 69 69
54 54 54 55 55 55 55 56 56 56 56 57 57 57 57 57 57 57 54 56 54 53 49 59 68 66 74 74 71 73 68 67 66 65 64 63 63 60 61 60 61 64 60 59 59 62 65 67 66 68 68 69 69 70
54 54 54 54 54 55 55 55 56 56 56 56 57 57 57 57 56 56 56 56 57 54 49 54 63 69 70 71 69 70 69 66 66 64 65 64 62 61 60 61 62 65 63 63 64 67 67 69 70 70 69 69 70 69
54 54 54 54 54 54 55 55 55 56 56 56 56 57 57 56 56 54 48 58 58 57 50 51 65 64 69 69 69 66 67 65 66 65 65 63 61 65 62 59 67 68 67 68 69 70 69 72 71 70 71 70 71 72
54 54 54 54 54 55 55 55 55 56 56 56 56 56 56 55 54 50 53 54 55 57 51 52 56 66 66 69 68 66 65 61 65 63 65 65 63 64 63 59 70 69 68 66 68 69 67 71 70 72 71 71 68 73
53 54 54 54 54 55 54 55 55 55 56 56 56 56 55 55 54 52 60 55 56 55 55 50 54 60 66 64 65 66 64 63 59 61 61 63 59 62 58 65 67 68 68 67 68 71 74 73 73 71 70 71 70 69
53 53 54 54 54 54 54 54 55 55 55 55 55 55 54 52 50 56 59 57 58 54 52 52 51 52 65 62 63 63 65 60 61 61 60 62 57 54 64 66 65 67 68 70 69 69 71 71 71 70 70 71 70 68
53 53 53 54 53 54 54 54 54 54 54 54 53 50 50 55 57 59 57 51 51 54 53 51 58 54 59 62 60 61 62 62 57 61 59 57 56 62 64 67 69 69 69 69 66 63 66 69 69 69 70 73 72 69
53 53 54 53 53 53 54 54 54 54 53 51 49 48 56 57 57 55 51 49 51 49 54 56 57 57 60 56 57 57 58 58 53 56 56 52 50 59 68 66 67 68 69 71 75 74 72 71 70 69 70 71 70 69
52 52 53 53 53 54 54 54 54 52 51 50 51 53 53 53 52 48 48 51 49 50 55 54 57 59 57 58 56 56 53 53 51 57 54 49 54 62 66 68 69 66 68 70 73 72 72 72 72 71 71 70 70 69
52 52 52 53 53 54 54 54 53 53 52 52 49 48 49 49 40 44 43 47 48 54 56 55 54 59 55 57 54 53 51 50 55 51 50 54 60 65 65 66 68 68 68 71 70 71 70 70 70 71 69 70 68 65
52 52 52 52 53 53 54 54 54 53 49 47 46 38 45 44 48 50 50 52 56 55 53 56 56 56 56 54 54 50 53 53 46 46 50 61 63 66 66 65 66 66 67 68 69 68 67 66 66 68 69 68 66 63
52 52 52 52 52 53 54 54 54 51 49 46 47 40 45 53 53 53 53 52 55 55 52 53 55 56 52 52 52 51 47 47 50 51 59 64 65 62 63 63 64 68 68 69 68 67 67 67 66 65 67 67 67 64
52 51 52 53 54 53 53 53 51 51 49 47 47 46 52 50 52 53 53 52 56 54 54 56 54 52 53 52 50 51 51 49 55 59 63 63 62 61 60 63 65 68 68 69 69 68 67 65 65 65 66 66 65 62
51 50 53 54 54 53 53 51 49 48 47 47 48 53 52 50 50 53 54 53 56 54 53 54 51 50 54 50 50 56 53 57 59 61 61 61 60 60 61 62 64 66 66 67 66 66 66 67 66 63 61 62 65 64
50 52 54 53 52 52 52 51 48 48 46 50 47 52 52 54 52 53 55 55 54 55 56 53 55 50 48 47 52 59 61 63 61 61 62 61 60 60 61 62 63 65 65 65 65 65 63 62 62 64 63 63 63 63
51 52 52 52 52 50 48 49 49 44 49 52 52 53 53 54 56 56 57 56 56 56 54 53 50 47 49 54 56 60 57 57 59 59 59 60 59 59 60 62 63 63 64 63 63 64 65 64 67 66 65 63 65 65
52 52 53 52 52 49 47 48 53 48 48 51 54 53 54 55 58 58 58 56 52 52 50 47 53 58 57 57 60 60 61 58 57 58 60 60 61 60 60 63 61 61 63 62 64 58 64 64 66 64 64 66 65 63
51 52 53 52 50 49 47 48 49 51 52 50 53 53 54 53 52 54 50 52 50 53 53 57 59 59 60 60 61 59 58 59 58 60 61 61 61 61 59 60 59 64 64 63 63 62 59 65 65 66 64 62 64 65
50 53 50 50 48 49 47 52 49 49 50 51 51 53 54 51 49 51 52 53 55 58 57 58 58 61 59 57 60 61 60 59 59 58 50 53 60 60 61 63 62 62 64 65 66 65 66 67 66 65 65 63 57 61
52 51 49 50 45 43 43 52 46 50 47 51 52 51 52 53 54 56 52 56 58 59 59 59 59 60 60 62 61 61 61 61 61 60 61 62 63 62 60 64 65 65 64 65 67 67 67 58 58 62 59 56 56 58
51 48 46 45 45 41 49 47 49 49 51 50 50 50 52 52 54 51 52 56 59 59 59 58 59 61 63 60 62 66 64 63 64 60 62 61 62 63 65 66 67 69 70 70 68 67 65 62 52 60 59 57 58 59
42 42 43 38 47 44 44 46 47 47 46 48 48 51 51 50 48 48 50 54 54 56 57 57 55 55 58 61 62 64 62 65 66 65 65 66 67 62 61 61 64 67 68 66 65 67 65 65 62 61 62 64 62 61
38 44 40 46 47 45 46 45 47 47 49 48 49 50 51 50 49 48 49 52 52 54 56 54 52 52 54 58 58 60 61 62 62 63 66 65 67 68 65 65 64 61 62 65 61 61 59 59 61 60 58 57 51 64
38 44 49 51 48 48 47 49 50 48 48 48 49 49 49 46 46 49 53 56 56 59 58 56 56 54 55 58 61 63 64 64 63 65 64 64 65 65 66 65 64 66 64 63 63 62 59 57 59 60 57 59 65 66
46 47 44 48 47 50 48 49 49 48 50 52 50 49 48 47 47 54 57 59 59 58 57 57 58 57 57 57 59 62 62 63 64 65 65 62 61 62 63 63 64 48 61 64 63 63 61 61 59 57 56 58 63 64
46 49 48 47 51 50 50 50 50 52 53 52 50 49 50 52 55 53 54 57 57 58 56 58 61 61 63 63 60 61 64 64 64 61 60 60 61 61 61 64 62 62 62 60 48 56 60 60 60 58 56 56 61 63
50 53 50 51 48 45 49 52 52 54 55 55 55 52 53 55 58 62 61 60 58 56 59 59 60 63 63 61 59 59 62 65 67 63 61 61 60 60 64 63 63 65 64 64 63 60 45 56 52 55 52 51 52 50
53 54 51 52 49 50 53 53 54 55 54 54 53 51 52 55 59 62 61 60 61 61 61 61 61 62 63 62 60 63 62 65 64 64 66 66 67 67 66 65 66 66 65 64 63 63 61 60 59 57 55 49 48 49
52 51 52 49 49 52 53 51 51 51 53 51 50 52 55 56 55 61 62 63 63 62 53 61 63 61 64 65 65 64 51 66 66 65 63 65 66 67 67 66 66 67 65 65 64 63 62 61 60 59 55 55 53 53
52 52 50 48 46 47 50 49 49 49 51 51 53 55 58 58 55 62 64 64 65 65 64 64 65 65 63 63 62 65 57 66 56 43 42 42 42 52 66 67 68 67 65 65 65 64 62 61 62 60 56 55 56 61

GFSWCAN_sfc_temp_120.txt.gz
Temp
55 55 56 57 57 56 56 56 56 56 57 57 58 58 58 59 58 56 59 63 55 56 62 67 70 67 70 70 69 71 72 74 74 67 68 65 63 65 63 66 63 62 60 61 63 55 51 73 70 63 68 74 75 76
54 55 55 55 55 56 56 56 56 56 56 57 58 58 58 58 58 58 54 63 61 51 61 66 67 70 70 71 69 72 72 75 77 72 72 73 65 68 65 60 68 59 68 62 64 63 69 73 72 75 75 71 74 70
54 54 54 54 55 55 56 56 56 56 56 57 58 58 58 58 58 57 57 59 57 54 63 65 68 76 78 74 78 65 76 75 73 77 78 77 65 73 64 67 67 69 70 68 65 70 71 73 75 75 75 75 75 71
54 54 54 54 54 55 55 56 56 56 56 57 57 58 58 58 57 58 55 61 57 57 56 68 78 72 79 79 76 77 76 77 77 79 77 75 70 73 73 70 70 73 70 68 68 71 72 73 74 75 75 76 77 79
54 54 55 54 54 54 55 56 56 56 56 56 57 57 57 57 57 57 56 57 61 54 53 61 72 77 78 77 77 76 75 73 74 74 74 73 77 73 77 75 72 75 72 70 69 74 73 74 77 77 75 75 77 76
54 54 54 54 54 54 55 55 55 55 56 56 56 57 57 56 56 56 51 61 60 58 53 56 73 71 75 77 76 73 75 74 72 78 78 80 75 75 69 67 75 80 79 78 76 79 77 79 79 80 77 77 78 78
54 54 54 54 54 55 55 55 55 55 56 56 56 56 56 55 57 53 53 60 57 60 55 56 63 72 73 73 77 76 75 73 74 75 74 78 75 74 72 66 75 80 79 77 79 79 75 79 77 80 79 79 75 78
53 53 53 54 54 55 55 55 55 55 56 56 56 56 55 55 54 54 66 55 59 53 61 55 62 68 75 71 69 77 71 73 70 73 74 73 72 74 65 73 77 79 79 77 78 82 82 82 81 79 80 79 77 77
53 53 53 54 54 54 54 55 55 55 55 55 55 55 55 54 54 64 58 58 61 55 57 61 59 58 75 71 75 72 77 68 76 68 68 71 69 61 70 72 76 77 76 78 79 81 81 79 78 78 79 78 77 77
53 53 53 54 54 54 54 54 55 55 54 54 54 51 50 62 57 60 58 57 53 58 60 56 67 62 67 70 69 70 71 66 61 68 71 66 64 71 75 77 77 79 80 82 75 73 76 77 78 77 78 80 79 78
53 53 54 54 54 53 54 54 55 54 53 52 50 51 64 58 62 62 54 55 57 55 62 64 65 62 71 59 66 70 62 65 57 64 63 61 58 68 75 76 78 79 80 81 82 82 82 81 79 78 79 80 79 78
53 53 53 53 53 53 54 54 54 58 52 51 52 56 55 54 55 52 52 56 56 56 64 62 65 66 70 71 61 64 62 64 55 67 63 54 63 70 75 77 78 79 79 80 81 82 82 82 82 80 80 79 79 79
53 53 52 53 53 53 53 53 54 54 52 52 49 48 49 54 43 48 48 52 55 63 64 63 61 66 65 67 61 60 58 58 68 58 56 61 68 73 75 78 78 80 78 79 79 82 82 82 82 81 79 80 80 77
52 52 52 53 53 53 54 54 54 52 50 47 46 40 49 43 53 56 57 59 67 67 61 65 64 63 67 61 62 53 61 63 54 52 56 68 70 73 75 76 75 76 76 76 77 79 79 79 79 79 80 79 77 74
52 52 52 52 53 53 53 54 54 53 49 46 47 42 47 59 64 64 65 63 66 67 61 62 62 61 60 59 62 55 50 51 57 58 67 73 73 72 71 73 74 76 75 76 78 77 77 77 77 77 79 78 76 74
52 52 52 53 53 53 53 54 56 52 49 47 48 49 57 57 57 61 61 59 64 61 61 61 58 57 57 60 56 55 53 53 62 68 75 73 70 71 70 71 73 76 77 77 78 77 78 77 76 76 77 77 75 72
52 50 53 53 53 53 53 53 50 48 47 48 53 60 59 59 54 61 63 64 64 59 55 57 53 54 64 56 56 64 60 66 71 74 75 69 67 68 69 70 71 73 75 77 76 77 77 78 78 75 72 74 76 73
51 52 53 53 53 52 56 54 49 50 46 54 54 59 61 62 59 61 65 65 59 59 59 56 62 55 55 54 59 67 70 75 73 71 72 71 69 69 70 69 71 72 73 75 75 76 76 75 73 74 74 73 73 71
52 53 53 53 53 51 54 54 51 45 52 59 61 62 61 61 64 64 65 63 64 61 58 58 56 57 60 64 64 66 70 70 70 70 71 70 69 67 67 68 70 71 73 73 73 76 76 74 77 78 76 74 74 73
52 52 52 53 53 49 50 49 55 52 52 56 61 59 60 61 65 65 65 66 59 58 55 56 60 64 64 68 70 67 70 71 69 68 70 73 70 67 69 71 74 73 74 74 75 67 76 75 78 78 77 74 75 73
51 52 53 52 50 52 52 52 53 57 57 56 61 59 59 63 61 60 61 63 57 59 51 63 64 68 69 68 71 71 69 69 68 69 70 71 73 72 71 71 69 71 74 76 75 72 69 76 76 76 75 75 77 76
51 53 51 52 48 53 52 53 53 50 50 54 51 55 57 55 52 51 55 53 50 62 65 63 63 64 68 61 65 69 69 67 67 67 54 59 70 71 71 72 73 73 75 75 76 75 75 77 77 73 73 76 69 74
52 52 50 52 47 45 44 59 49 49 50 55 59 54 55 58 55 58 52 59 63 71 69 68 68 67 67 69 70 69 67 66 69 70 71 72 74 75 75 75 76 75 74 75 76 77 77 66 68 75 76 73 74 74
51 48 46 48 49 42 50 47 52 54 57 55 54 53 55 57 61 56 57 62 66 65 66 65 68 69 71 69 71 75 74 72 73 73 74 73 73 70 74 74 74 74 77 77 76 77 77 75 65 74 76 74 74 71
41 43 43 37 48 45 47 50 51 49 50 54 52 55 55 57 54 55 56 57 60 61 62 66 62 59 64 68 73 75 73 75 75 74 75 76 77 74 73 74 75 75 76 75 76 76 76 75 73 73 72 69 66 67
38 44 41 46 48 48 50 44 47 50 53 53 54 59 58 56 53 51 54 57 56 57 60 58 56 57 63 68 68 71 72 73 73 73 78 78 78 76 76 72 62 68 72 69 71 72 74 73 71 70 69 65 52 64
40 45 52 56 48 48 46 52 55 53 52 52 56 55 52 48 48 49 55 63 64 67 65 59 64 65 66 67 70 73 74 75 73 74 76 77 79 78 77 74 71 72 74 72 71 69 68 67 68 70 67 62 62 63
50 53 48 48 46 50 50 54 53 52 55 59 57 53 49 51 50 61 64 66 67 67 67 59 70 68 67 62 67 73 76 76 75 75 76 76 76 77 74 77 75 48 66 67 66 65 65 66 68 66 64 56 55 55
52 53 55 52 54 54 55 54 55 58 61 59 56 54 54 55 61 56 57 60 63 62 65 66 67 75 74 74 73 75 79 79 74 68 65 64 65 69 72 73 72 74 73 70 48 55 63 64 65 64 62 63 59 56
54 55 54 55 52 49 54 59 56 60 63 61 60 57 57 57 64 69 69 67 66 67 69 70 72 74 71 70 65 67 74 76 75 73 70 67 66 71 74 74 74 76 74 72 71 69 46 58 55 64 62 59 55 54
64 62 57 56 48 50 55 62 60 60 55 56 55 53 57 62 68 69 68 68 70 71 70 69 70 72 71 70 69 66 66 71 71 71 73 77 78 75 74 74 76 76 75 75 75 75 71 68 68 66 63 60 54 51
62 57 59 52 53 59 56 52 51 53 54 54 51 53 57 61 60 66 70 73 70 68 57 68 70 69 73 74 74 73 53 74 73 73 72 73 74 76 77 77 78 76 74 73 73 72 70 69 70 68 67 62 58 55
59 58 56 52 49 48 51 50 49 51 52 50 51 58 64 64 59 67 73 74 71 71 71 71 73 73 71 73 72 72 65 74 59 42 44 43 42 54 74 77 76 76 74 75 74 72 70 67 69 65 61 57 53 53